GFSSW_850_thetae_000.txt.gz
Theta_e
308 308 309 309 309 309 309 309 310 310 310 311 311 311 312 312 313 313 313 317 317 321 323 323 325 326 327 328 329 329 330 330 331 331 331 329 327 324 321 322 321 322 322 322 320
308 308 308 308 308 308 308 308 309 309 310 310 311 311 312 312 312 313 315 315 317 317 321 326 327 327 328 328 329 328 328 328 329 330 331 329 328 326 322 323 322 321 321 319 319
307 307 308 308 308 308 308 308 308 309 309 309 309 310 311 311 313 316 317 315 316 317 320 325 326 327 327 327 327 326 327 327 327 328 328 327 327 325 324 325 324 323 322 320 320
306 307 307 307 307 307 308 308 308 308 308 309 310 310 311 311 316 317 319 317 316 315 320 324 324 327 327 329 326 327 324 325 326 327 325 326 325 324 322 324 323 322 322 321 320
301 302 305 306 307 308 308 308 308 308 308 308 309 310 310 315 313 316 319 319 317 317 319 321 324 325 327 327 326 326 325 325 326 326 324 324 324 323 323 323 322 321 321 321 321
302 300 300 301 303 305 307 308 308 308 308 308 308 309 309 313 313 313 314 315 316 320 319 320 324 324 325 326 326 325 326 326 325 324 323 323 324 321 323 322 322 321 321 321 321
307 307 304 302 301 302 303 305 307 308 308 308 308 308 310 312 313 312 316 322 318 319 321 319 323 324 324 327 325 326 326 326 325 323 324 322 324 324 324 323 322 322 322 321 321
308 306 307 307 306 305 303 302 303 306 308 309 309 308 312 312 312 313 313 317 318 321 321 322 322 324 324 326 325 325 326 327 327 323 322 322 325 325 324 322 323 322 322 321 321
309 307 307 306 307 307 308 306 302 302 305 308 309 311 314 313 312 313 313 313 314 317 318 322 323 324 324 327 328 327 327 328 328 325 325 324 326 325 324 323 323 323 322 321 321
308 308 307 307 305 306 308 308 305 302 304 308 314 315 313 315 313 314 314 313 316 316 322 323 324 326 327 328 329 328 327 326 327 327 325 326 326 325 323 323 323 323 323 321 321
305 307 307 307 307 304 307 307 311 318 316 313 315 313 314 313 313 315 316 314 316 322 325 324 326 327 327 327 328 327 326 327 327 327 325 327 327 326 324 323 324 324 323 322 321
303 305 306 307 307 305 305 306 309 308 311 313 314 315 314 315 316 315 318 316 318 323 325 326 326 327 327 327 327 326 327 328 327 326 325 326 325 325 325 324 324 325 324 323 322
302 303 304 306 306 306 306 307 305 308 312 312 312 313 314 314 316 317 317 317 319 322 324 326 326 326 327 327 327 327 327 328 327 327 325 325 325 326 325 324 324 324 324 324 323
303 302 303 305 305 307 306 305 305 305 314 315 314 314 313 314 316 315 318 318 321 322 324 326 326 326 327 327 326 327 326 326 326 326 326 325 327 325 325 325 325 325 324 324 323
300 302 303 305 308 307 306 304 305 308 318 319 318 316 315 315 316 315 316 319 321 322 325 326 327 326 326 326 325 326 325 326 326 326 326 325 327 325 324 324 324 324 326 325 323
300 302 302 303 306 307 306 303 307 317 317 317 318 318 318 316 317 317 316 318 320 322 325 325 325 326 326 324 324 324 325 325 325 325 327 325 325 324 323 323 324 324 327 326 323
298 301 302 303 306 306 306 306 315 317 318 318 319 319 318 318 318 319 318 318 320 323 325 325 325 326 325 324 324 325 326 327 328 328 327 325 323 324 324 324 325 325 325 326 323
299 300 303 303 303 305 306 308 314 316 318 318 318 319 320 319 318 319 319 319 320 322 324 325 325 326 325 324 325 325 326 327 327 328 327 325 324 323 324 324 326 327 328 326 323
301 299 303 303 302 304 307 310 313 315 318 318 317 320 320 320 320 319 320 319 320 322 323 326 326 325 325 324 324 325 326 326 326 326 326 325 325 325 325 326 328 329 327 325 323
301 300 302 304 303 303 307 310 310 313 315 317 318 319 321 321 320 321 320 320 320 321 324 325 327 324 325 324 324 325 325 325 326 328 328 325 325 324 325 328 333 331 328 325 323
301 302 303 304 303 303 308 308 309 311 313 316 317 319 319 321 321 321 321 320 320 320 322 324 325 326 324 325 324 325 326 325 326 326 327 328 326 326 325 330 332 333 328 325 324
301 304 304 304 304 302 307 308 307 309 308 311 315 318 319 320 321 321 321 321 319 321 321 324 324 327 324 324 324 325 325 326 327 327 326 326 326 326 327 332 332 333 328 325 324
302 302 303 304 305 306 307 308 309 308 308 310 313 317 318 319 321 322 321 320 319 320 322 324 324 325 324 327 326 324 324 325 326 327 327 327 326 327 329 331 333 333 328 326 324
302 302 302 303 303 306 306 307 308 307 307 307 309 312 316 319 320 321 321 320 319 320 320 324 324 325 326 327 325 326 324 325 326 328 327 327 326 327 327 330 332 332 329 326 325
300 302 303 306 302 306 305 307 307 308 307 307 310 312 317 318 319 320 321 321 320 320 324 327 325 324 323 323 325 325 324 324 326 327 327 326 326 326 327 328 329 332 330 327 325
300 301 300 303 304 305 305 305 306 306 307 308 309 310 315 318 319 319 320 321 321 322 323 327 325 324 324 323 323 324 324 325 325 326 326 326 326 327 326 326 329 331 330 328 325
300 300 300 303 304 304 305 306 305 307 306 307 308 310 312 315 314 316 317 319 321 323 325 326 325 325 325 322 322 325 324 325 326 326 326 326 326 326 326 328 329 331 329 328 327

GFSSW_850_thetae_003.txt.gz
Theta_e
308 308 308 308 308 308 309 309 309 309 310 310 310 311 312 312 313 313 315 317 318 322 325 329 330 330 330 329 329 330 332 333 332 331 332 330 331 329 327 326 325 324 324 324 325
308 308 308 308 308 308 308 309 309 309 309 310 310 311 311 312 312 315 317 318 316 318 324 330 330 329 329 329 329 330 332 331 330 330 330 330 330 329 329 327 326 324 324 323 323
307 308 308 308 308 308 308 308 308 309 309 309 310 310 311 312 316 319 320 318 318 315 322 328 329 329 329 329 329 330 332 330 328 327 327 329 328 328 328 328 326 325 324 324 323
303 303 305 307 307 308 308 308 308 308 308 309 309 310 311 311 318 321 318 317 315 314 320 323 326 328 330 331 329 331 330 328 326 325 327 329 328 328 327 326 325 323 322 323 323
309 307 304 303 304 306 307 308 308 308 308 308 308 308 309 317 316 316 317 318 317 314 320 322 325 327 331 330 329 330 329 327 325 326 328 328 327 327 326 325 324 323 323 323 323
308 306 308 307 304 303 303 305 307 308 308 308 308 308 308 315 314 315 316 320 325 321 320 322 325 327 328 329 329 328 329 327 327 327 328 327 328 326 326 325 324 324 324 323 323
309 308 308 305 308 308 305 302 303 304 306 308 309 308 313 314 314 315 314 315 317 318 322 321 322 325 326 328 327 328 328 328 328 327 328 327 327 328 326 325 325 324 324 323 324
309 308 308 308 305 307 308 309 306 302 302 305 308 308 315 314 314 314 316 321 321 321 318 322 321 322 326 326 327 328 329 330 329 329 328 326 328 329 327 326 326 325 325 325 324
307 308 309 308 308 306 306 308 309 308 304 302 305 313 315 315 314 314 314 315 315 319 320 321 322 321 324 327 328 329 330 330 329 329 329 327 328 329 328 327 326 325 325 325 324
305 306 307 307 308 308 305 307 308 308 305 305 314 318 317 315 315 315 315 315 315 316 321 321 323 325 326 328 329 330 331 330 329 330 330 329 329 329 328 327 326 325 326 326 325
304 303 304 306 307 308 307 310 313 316 315 314 316 314 316 315 315 315 316 316 316 316 320 321 325 326 327 328 328 329 329 329 329 330 329 330 329 329 329 328 327 325 325 326 326
302 303 303 304 306 307 307 310 312 312 316 319 317 316 316 316 317 315 318 317 316 320 320 326 326 326 326 327 327 329 329 329 329 329 330 330 330 329 327 326 326 325 325 327 327
295 302 303 303 304 306 309 310 311 310 313 314 314 317 316 316 316 318 317 318 318 319 322 326 327 326 326 327 328 329 329 329 329 330 330 329 329 328 328 327 326 325 326 327 327
301 299 303 303 304 309 310 310 309 310 315 317 317 316 316 316 317 316 318 319 320 319 322 325 326 327 326 327 328 329 328 328 328 330 330 328 329 328 328 327 326 326 325 326 327
305 298 301 303 308 311 310 308 308 310 318 321 320 317 317 317 318 317 317 319 321 320 322 324 325 326 327 327 328 328 328 327 328 329 329 328 329 328 327 326 325 325 325 326 328
305 301 301 304 305 308 310 308 308 317 318 320 320 320 319 318 318 319 316 318 320 321 323 323 324 326 327 327 327 327 327 326 327 328 329 327 328 328 326 326 325 326 325 328 328
304 304 299 305 308 307 309 309 314 316 318 321 321 321 320 320 319 320 319 320 323 322 324 324 325 327 328 328 327 326 327 328 329 331 330 328 327 327 326 325 325 326 328 329 327
303 305 301 302 306 306 308 311 314 315 319 321 321 321 321 321 320 320 320 321 322 323 324 325 326 327 328 328 327 326 326 328 329 330 329 328 328 328 325 325 325 326 328 330 327
303 305 303 304 305 306 308 313 313 316 318 320 321 322 322 322 321 321 321 321 322 324 325 326 327 326 327 327 327 326 327 327 328 328 328 329 328 327 325 326 327 328 331 331 328
304 304 303 303 305 306 307 310 310 312 314 318 320 321 323 322 322 322 323 322 322 323 325 327 328 326 327 327 326 326 327 328 328 329 331 329 328 327 327 328 332 332 331 330 327
304 303 304 304 305 306 307 309 309 310 312 314 318 320 322 323 323 323 323 323 322 322 324 326 328 328 328 328 327 325 325 327 328 328 329 330 329 328 327 330 333 333 331 328 326
301 306 305 304 306 304 307 308 308 309 309 312 313 315 319 323 324 323 323 324 323 323 323 326 328 330 328 328 327 326 325 327 328 329 328 329 329 327 327 330 331 331 330 327 326
304 305 305 306 309 308 307 307 307 310 310 311 312 313 317 320 323 324 324 324 323 323 325 327 328 330 330 328 327 327 326 326 328 330 330 329 329 327 328 330 330 331 330 327 326
302 308 304 304 303 307 309 308 308 309 309 310 312 312 313 317 321 324 324 323 323 323 325 329 329 329 330 330 327 327 325 326 327 330 329 329 329 328 329 329 331 331 330 328 326
303 304 304 306 306 306 305 307 309 307 309 309 311 311 313 318 321 323 323 324 323 322 326 331 330 327 327 327 326 327 326 325 327 327 329 329 328 329 329 329 329 331 331 329 327
301 303 303 304 303 305 306 306 307 307 308 309 309 311 313 316 320 322 322 325 324 322 324 330 332 327 326 326 326 327 327 326 325 326 327 328 329 328 327 327 328 331 331 330 328
302 301 301 302 306 305 306 306 306 307 306 308 309 310 311 313 312 315 317 320 325 323 327 328 328 330 327 325 325 327 327 327 326 325 327 328 328 328 327 328 328 329 330 330 329

GFSSW_850_thetae_009.txt.gz
Theta_e
306 307 307 308 308 308 308 308 308 308 309 309 309 309 309 309 310 310 313 318 318 317 324 327 327 328 330 331 331 332 328 330 330 329 330 330 326 328 329 328 328 327 325 325 327
305 304 305 306 307 308 308 308 308 308 308 308 308 309 309 309 309 311 315 316 318 318 316 324 327 327 330 331 332 331 329 330 330 329 329 329 327 326 327 328 328 326 324 325 326
310 309 307 305 304 305 306 307 307 308 308 308 308 308 308 308 308 312 315 317 318 319 318 319 324 330 330 331 331 330 330 329 330 330 330 330 326 326 325 327 328 326 325 324 324
308 307 308 309 309 307 304 304 305 306 307 307 308 308 308 308 311 318 318 317 320 318 318 318 322 328 330 331 331 330 329 330 329 330 330 328 328 326 326 328 327 326 325 325 324
306 307 308 308 307 307 309 308 305 304 304 305 307 307 308 309 309 315 319 315 317 318 317 317 319 321 323 330 331 330 330 330 330 330 330 329 327 327 326 328 327 325 324 324 325
303 304 306 306 306 306 306 306 308 308 304 303 303 304 304 311 311 311 312 314 315 318 317 318 319 320 322 326 328 330 329 330 330 331 329 328 328 327 327 328 327 325 324 324 324
297 299 302 303 306 306 307 306 305 306 309 307 303 301 301 307 311 312 314 313 315 317 318 317 318 320 322 321 324 325 325 326 328 329 327 328 328 326 328 328 327 325 326 325 324
299 296 301 303 304 306 305 304 305 305 306 308 307 304 305 306 309 310 313 315 316 320 320 323 320 319 320 322 322 322 324 326 326 326 327 326 327 326 328 328 327 327 327 326 325
304 303 298 300 302 302 303 301 301 305 305 307 308 305 306 307 310 312 311 312 316 317 321 320 322 319 321 320 321 321 323 324 327 327 327 326 327 327 328 328 327 328 328 327 326
305 304 304 300 299 301 301 300 300 305 306 308 308 308 309 313 313 313 312 311 314 316 317 317 317 317 317 320 322 321 323 325 327 327 326 327 329 327 328 327 327 328 329 328 327
304 305 304 304 300 301 301 301 310 315 312 313 312 309 314 317 316 318 315 314 315 316 315 321 316 318 320 319 322 322 324 325 327 327 327 329 329 328 328 328 327 328 329 329 329
303 303 303 304 303 300 302 302 306 309 311 313 313 313 313 314 314 316 317 317 315 316 315 315 316 317 321 321 322 323 323 323 324 326 328 329 329 328 329 328 328 328 328 328 328
302 302 303 303 304 306 309 310 312 309 311 313 313 314 315 316 315 315 317 316 316 315 315 315 316 317 322 322 323 324 324 323 324 326 326 327 326 327 329 328 329 329 328 329 327
303 303 304 304 303 308 310 311 311 312 312 310 312 313 314 317 319 317 316 317 317 316 315 315 316 318 321 323 323 323 324 324 325 327 326 328 326 327 327 325 326 327 327 328 327
303 303 304 304 304 303 310 310 311 312 311 312 312 314 314 318 320 320 317 318 316 317 316 316 316 317 318 322 323 324 324 324 326 326 326 326 325 325 327 327 325 324 328 328 327
303 303 304 304 305 304 307 309 310 311 312 312 317 316 315 317 319 321 318 318 317 317 317 317 318 317 317 319 323 324 324 325 325 326 326 327 326 326 327 327 324 324 325 329 328
302 303 303 305 305 304 305 309 311 313 310 312 316 316 316 316 319 320 318 317 317 317 318 318 318 318 319 319 320 324 323 324 326 325 325 326 326 325 325 326 323 326 329 329 329
303 302 303 304 304 305 304 308 311 309 310 312 311 313 314 318 317 319 320 317 317 317 317 319 319 318 319 319 321 322 323 324 327 329 326 326 327 326 327 326 326 328 330 330 329
303 303 304 304 305 305 304 309 308 308 308 310 309 311 315 315 318 319 319 318 317 317 317 318 319 320 320 320 320 322 324 323 325 326 325 325 326 330 325 323 325 329 329 329 329
303 303 304 305 305 306 305 307 307 307 308 308 309 309 310 311 314 316 319 319 319 318 318 319 319 320 320 320 320 322 325 326 323 325 327 327 327 328 325 324 329 330 329 329 328
303 304 304 305 306 304 307 306 307 306 307 307 308 308 309 310 312 314 318 320 320 319 317 319 321 322 320 320 319 321 326 324 321 321 324 326 327 325 326 330 330 330 330 329 328
304 305 306 306 305 303 307 306 307 307 307 307 307 308 308 311 312 313 316 320 320 320 318 318 321 322 324 322 321 322 324 324 325 327 324 325 327 331 331 331 329 331 331 329 328
303 305 305 306 307 305 305 306 306 307 307 308 309 309 308 310 313 314 316 317 318 318 319 319 319 324 323 323 322 325 325 324 324 324 326 327 326 327 329 331 332 331 331 329 328
302 304 305 305 305 306 306 306 305 306 307 307 308 309 308 310 311 313 315 316 316 318 323 321 319 319 326 325 324 326 326 325 324 327 326 328 326 328 329 330 330 330 330 328 327
302 304 305 304 305 305 305 305 305 305 305 306 308 309 309 310 311 313 313 314 315 318 315 321 319 324 322 324 326 326 327 326 325 325 326 325 326 326 326 326 330 330 329 328 328
302 304 303 303 304 304 305 305 306 306 306 307 308 309 310 310 311 313 312 311 313 313 312 315 322 321 323 325 324 327 326 326 326 325 325 325 325 325 327 328 330 329 328 328 328
302 303 303 303 304 306 306 307 307 306 307 307 307 308 309 310 310 310 310 310 311 311 312 315 326 322 322 322 325 325 327 326 326 325 324 324 323 326 328 326 328 329 328 328 328

GFSSW_850_thetae_012.txt.gz
Theta_e
306 306 307 307 307 308 308 308 308 308 308 309 309 309 309 309 309 310 312 315 316 316 317 325 323 327 328 330 329 331 328 329 328 328 329 329 326 329 327 327 326 326 326 328 327
309 309 307 306 305 305 306 306 307 308 308 308 308 308 308 309 309 312 320 315 316 314 316 321 326 327 327 329 330 329 328 332 330 328 328 329 327 327 325 324 325 326 325 326 326
305 306 307 308 309 308 306 305 305 305 306 307 307 308 308 308 308 317 315 315 316 315 316 316 324 327 327 328 329 330 331 330 330 329 329 329 329 329 325 323 326 325 325 325 326
303 303 304 305 306 306 307 308 308 306 304 304 305 307 307 307 308 314 317 316 317 319 315 316 317 326 327 327 328 329 330 330 330 330 329 327 329 328 327 327 327 326 325 325 326
297 299 300 300 301 303 304 305 306 308 309 307 304 304 304 305 307 317 317 318 315 318 316 317 317 319 321 327 329 329 329 330 330 329 329 329 328 327 328 330 329 326 325 325 325
300 297 296 296 298 300 302 303 304 306 306 307 308 305 302 305 310 312 312 311 311 315 317 317 318 319 318 321 322 328 329 330 330 329 329 328 328 327 328 330 328 325 325 324 324
304 303 301 299 299 299 300 301 301 303 306 306 307 307 308 305 309 310 310 312 312 311 315 317 318 318 319 317 320 320 324 326 327 326 325 326 326 326 328 328 328 325 325 324 324
306 305 304 303 302 301 300 299 299 300 302 306 306 308 310 310 309 308 308 312 313 313 315 318 317 317 318 319 319 319 318 320 321 323 324 324 326 325 327 327 327 326 325 324 324
303 304 303 303 303 303 303 303 302 300 299 305 307 308 308 308 309 314 311 309 313 314 316 318 319 317 317 316 317 317 320 320 321 322 324 324 326 325 327 326 326 327 326 326 325
302 302 302 302 303 303 303 303 303 301 301 307 309 309 307 310 310 312 312 309 309 313 313 314 319 316 314 315 319 319 319 321 322 323 323 324 324 324 326 326 325 326 327 327 327
302 302 302 302 302 303 303 307 308 314 310 311 309 308 314 313 313 316 314 311 311 315 313 316 320 320 320 318 318 320 320 320 322 323 324 324 325 326 326 326 324 326 327 327 327
302 302 302 302 303 302 305 308 309 307 306 308 310 311 310 310 311 313 315 313 312 313 314 315 317 319 317 317 317 317 320 321 321 322 322 322 324 326 325 325 326 326 326 326 327
303 302 302 302 303 303 308 310 308 307 307 309 309 311 312 310 312 313 314 315 314 313 314 315 316 318 317 318 320 319 319 321 322 323 322 322 324 325 326 326 327 327 327 326 327
302 302 302 302 303 304 306 309 307 308 309 311 311 312 312 313 315 313 314 315 316 313 314 314 315 318 318 316 318 320 321 321 324 324 323 323 324 322 324 324 324 325 326 326 327
302 302 303 303 304 304 303 304 309 309 309 309 309 311 312 314 317 316 316 315 316 315 314 314 315 315 315 316 316 321 321 322 323 324 321 322 323 323 323 325 324 322 325 327 327
302 302 303 304 304 303 304 307 309 309 310 309 311 309 312 313 314 319 317 316 316 316 315 314 316 315 315 316 317 320 321 321 321 321 323 323 324 325 323 325 325 322 326 326 325
301 301 302 303 303 304 305 306 309 311 308 309 309 308 309 314 314 316 318 317 316 315 315 316 315 315 316 315 317 319 319 321 320 324 325 323 325 325 323 323 324 323 325 326 326
301 301 302 302 303 304 306 308 312 307 308 308 308 308 311 310 311 316 318 317 315 314 314 315 316 316 317 316 315 315 318 321 323 324 324 323 325 325 323 323 324 326 326 326 326
301 302 303 303 304 305 305 309 307 306 307 307 307 308 308 309 309 312 316 317 316 315 315 315 316 318 317 317 316 316 316 319 321 323 323 323 324 325 323 325 326 326 327 327 327
302 302 304 304 305 305 305 306 306 306 306 307 307 308 308 308 309 311 314 317 317 316 315 316 317 318 318 317 317 316 319 321 319 324 325 324 325 325 324 326 327 326 325 327 327
302 303 305 305 305 305 306 304 305 304 306 307 308 307 307 308 308 311 311 314 315 317 316 315 316 320 318 317 316 315 317 320 320 320 323 323 323 321 323 324 327 325 326 328 328
301 301 303 305 305 303 306 304 304 305 306 306 307 306 307 308 309 310 312 312 312 313 316 315 314 316 317 318 317 316 315 319 323 323 321 321 322 322 322 327 327 326 327 328 328
302 302 304 305 304 305 304 305 305 305 306 306 307 308 308 309 308 311 313 313 312 313 315 316 316 316 319 318 319 317 318 320 318 320 322 322 321 326 328 328 328 327 327 327 328
301 300 304 305 304 305 305 305 305 304 304 306 307 306 308 309 309 308 312 311 311 312 314 312 317 316 319 321 320 319 318 322 322 321 322 323 324 326 330 329 327 328 328 328 328
302 299 304 299 300 301 302 304 305 305 304 304 305 308 308 309 308 309 309 310 311 312 310 309 317 316 317 319 321 321 320 321 324 322 324 323 323 323 329 329 328 329 327 326 327
302 302 302 303 302 301 303 304 306 306 306 307 306 307 308 308 310 311 310 310 311 311 309 309 314 318 317 318 318 319 321 322 324 323 322 323 324 322 329 329 328 327 326 326 327
301 302 302 302 299 302 302 305 305 305 306 306 307 307 307 308 309 309 310 309 309 309 309 309 313 318 318 319 319 318 320 323 324 323 323 323 321 321 323 328 328 326 327 326 326

GFSSW_850_thetae_015.txt.gz
Theta_e
309 309 308 307 306 306 306 306 307 308 308 308 308 309 309 309 311 312 315 321 317 314 314 315 323 325 327 327 329 330 326 328 328 327 327 327 326 329 328 327 326 325 325 326 326
304 305 305 307 308 308 308 307 306 306 306 307 308 308 308 308 309 312 324 320 320 315 313 314 321 325 329 329 329 327 326 327 327 327 326 327 328 328 327 327 326 325 326 326 326
298 300 302 303 304 305 306 307 308 308 306 305 305 306 307 307 307 315 319 320 321 317 314 311 321 324 326 327 328 327 328 327 327 329 329 328 328 329 327 326 326 326 326 325 326
299 297 297 298 300 301 303 304 305 306 308 309 308 305 305 305 307 315 317 317 317 317 315 311 322 326 324 325 327 327 328 328 328 328 329 327 329 328 328 328 329 329 326 325 325
304 303 302 299 298 297 297 299 302 304 304 306 307 308 307 302 304 314 315 316 315 317 318 312 315 324 322 325 326 326 326 327 328 329 329 329 327 328 328 329 329 329 327 326 325
306 305 304 303 303 301 299 299 299 300 302 305 307 307 308 306 307 310 312 314 313 312 316 314 315 316 318 318 319 324 325 326 328 329 329 328 328 328 328 327 327 327 326 326 326
302 303 303 303 303 303 303 302 300 299 299 302 306 307 310 311 310 308 309 311 313 310 310 314 316 318 318 316 318 318 317 318 320 324 325 327 325 326 326 326 326 327 326 326 326
301 301 302 302 302 302 302 302 303 302 301 301 301 307 309 308 309 311 310 310 312 311 311 310 313 317 317 317 317 317 317 319 320 321 323 322 323 323 325 325 326 326 326 326 326
301 301 301 301 301 301 302 302 302 303 303 302 306 308 309 307 308 311 311 311 310 311 313 314 315 317 316 316 314 315 317 317 318 319 320 321 322 322 325 325 325 326 326 325 325
301 301 302 301 301 301 301 302 305 308 303 304 306 308 307 308 309 309 310 311 310 308 308 311 315 313 311 313 317 316 316 317 318 319 319 320 321 322 324 324 324 325 326 325 325
301 302 302 302 302 302 301 302 308 309 307 308 307 306 309 309 310 311 310 309 307 311 309 311 311 317 316 316 317 318 317 318 319 320 320 320 321 322 323 322 323 324 326 325 325
302 302 302 302 302 301 302 304 307 306 306 307 307 308 308 309 310 311 312 310 310 308 311 313 313 314 318 317 317 318 317 318 319 320 320 320 320 321 321 321 323 325 326 324 324
302 302 302 302 302 302 303 304 304 305 305 307 307 307 307 306 311 311 312 312 311 310 310 311 314 315 319 320 320 318 317 317 318 320 320 320 321 321 322 322 323 326 326 326 327
302 302 301 302 303 304 303 304 304 306 306 308 310 309 308 309 310 308 311 314 313 310 311 311 313 315 317 320 317 316 316 317 318 319 320 320 322 321 321 322 321 323 324 325 325
301 301 301 302 303 303 302 303 306 306 307 306 309 310 311 311 312 311 310 313 315 312 311 311 312 313 316 317 316 317 318 319 320 319 319 321 321 320 321 323 322 320 323 325 325
302 301 301 301 302 302 303 304 307 309 309 307 308 307 308 312 312 313 314 312 314 315 312 312 314 313 314 317 317 316 317 318 318 318 321 321 321 321 320 322 322 322 324 325 325
302 301 301 301 302 302 303 305 308 309 307 306 307 307 308 308 313 313 314 314 314 315 315 313 313 314 314 315 314 314 314 316 318 320 322 320 321 322 321 321 322 322 324 325 325
301 301 302 302 302 302 304 305 308 306 307 307 307 307 308 307 307 310 313 316 314 314 314 314 314 314 315 314 315 314 316 319 321 321 322 321 323 323 322 321 323 323 323 325 324
301 301 304 304 304 304 305 302 304 306 306 306 306 307 307 307 307 309 310 313 315 314 313 314 314 316 315 315 314 314 317 317 318 321 321 321 322 321 323 324 324 324 324 325 325
301 302 305 305 304 304 305 303 305 306 305 306 307 307 307 306 307 308 310 312 315 315 312 314 314 316 315 315 314 313 313 315 315 321 323 322 323 324 323 326 326 325 323 325 325
301 302 304 305 304 304 306 304 304 304 304 306 306 306 306 306 308 308 310 311 312 312 313 313 314 317 316 315 315 313 314 314 314 316 320 321 322 319 321 324 325 323 324 325 326
301 300 303 304 304 303 305 304 304 304 305 305 305 306 307 306 307 306 307 309 311 311 313 312 311 314 316 315 316 315 315 314 318 319 318 320 322 321 319 321 323 323 325 326 326
301 301 303 305 304 304 304 305 304 304 305 305 306 307 307 308 308 307 310 310 309 309 310 312 314 315 313 316 314 315 314 315 314 316 319 322 322 323 322 320 325 323 325 326 327
301 300 302 305 303 303 303 303 305 304 304 304 305 306 307 308 308 308 307 307 307 308 312 310 312 316 315 316 317 316 315 314 316 317 318 320 321 328 327 325 324 325 326 327 327
301 299 302 299 299 299 301 302 304 306 304 304 304 306 306 309 309 309 308 308 308 308 309 308 310 316 317 315 316 319 316 316 317 318 320 321 321 325 326 325 325 325 325 326 326
301 301 302 302 301 300 301 304 305 306 306 306 306 307 307 307 309 311 310 310 309 308 309 307 309 313 319 317 316 316 317 316 318 319 320 320 320 321 326 327 326 326 325 325 326
301 302 302 301 299 298 300 304 303 304 306 306 306 306 305 307 307 308 309 308 309 309 308 308 310 310 318 317 315 315 316 316 318 320 321 321 320 319 326 326 326 326 326 326 327

GFSSW_850_thetae_018.txt.gz
Theta_e
302 304 304 306 306 308 309 309 308 307 306 307 307 308 308 308 309 309 313 323 320 315 312 314 321 322 325 327 327 329 326 327 326 326 326 326 326 327 328 329 327 328 328 327 325
298 298 299 301 302 304 304 305 307 308 309 308 306 306 306 307 308 308 319 317 319 317 317 313 315 319 326 326 328 326 325 326 323 324 325 325 327 328 327 328 327 327 328 326 327
303 302 301 299 298 299 300 302 303 304 305 307 309 308 306 305 305 310 314 315 318 320 320 316 312 319 328 327 327 326 328 327 325 326 327 327 328 329 328 326 328 327 329 329 327
303 303 303 303 302 301 299 298 298 300 302 304 305 306 309 308 304 311 313 316 316 318 317 313 314 325 323 324 327 326 326 327 326 326 327 327 328 328 328 328 329 329 329 328 326
301 302 302 302 302 302 302 302 301 299 299 301 303 306 306 309 306 311 314 316 314 318 316 313 320 324 323 323 324 324 325 327 327 328 327 327 327 327 328 328 329 329 328 327 326
301 301 301 301 302 302 302 302 302 302 300 300 301 305 307 309 309 310 309 314 313 311 315 312 313 322 321 322 322 323 325 325 325 325 326 327 327 328 328 329 328 327 327 327 326
300 300 301 301 301 301 301 301 302 302 302 302 301 303 307 308 309 310 309 309 310 310 309 310 312 315 317 316 317 318 317 316 318 319 320 322 322 324 324 325 327 326 326 326 326
299 300 300 301 301 301 301 301 301 301 302 303 302 306 306 305 307 309 310 310 307 308 309 310 310 315 316 316 315 316 315 317 317 319 319 320 320 321 322 323 324 325 325 325 326
298 299 300 301 301 301 301 301 301 302 305 306 305 306 305 303 305 308 309 309 311 309 310 312 311 317 315 315 315 313 316 315 315 317 318 320 319 320 322 322 322 323 323 325 325
300 300 301 301 301 301 301 301 302 307 307 305 306 305 304 305 308 308 309 307 309 308 307 308 313 312 311 312 316 315 314 314 315 316 316 316 317 318 320 320 321 323 323 323 324
303 301 302 301 301 302 301 301 307 307 305 306 305 304 303 307 308 309 308 307 307 307 304 309 311 314 313 314 315 315 315 314 315 317 318 317 317 318 320 320 319 321 322 323 324
302 302 302 301 301 301 301 303 305 303 304 306 307 307 305 305 307 307 310 308 307 309 307 309 310 313 314 314 315 315 316 316 317 319 318 318 318 318 318 318 320 321 322 323 324
302 301 301 301 301 302 303 303 303 305 304 306 305 307 306 306 308 306 308 309 308 307 308 309 310 312 315 316 316 316 317 317 318 318 317 317 318 318 320 320 321 322 323 325 325
302 302 301 301 302 302 302 303 303 305 305 307 308 307 308 307 308 306 308 310 309 308 308 308 309 311 313 316 316 316 317 318 320 318 317 317 320 319 318 319 319 321 323 325 324
302 302 301 301 301 302 302 302 304 306 306 304 309 309 307 308 308 309 307 311 312 309 309 309 309 309 311 315 318 317 319 318 317 316 316 317 318 319 318 320 319 319 323 323 323
302 301 301 302 303 301 303 304 305 306 307 306 307 306 306 310 310 311 308 309 312 310 309 309 312 310 312 314 317 318 317 315 316 315 318 318 319 320 319 321 320 320 322 324 324
301 301 301 302 303 302 302 304 305 306 305 306 306 306 307 308 308 309 312 308 311 314 313 311 310 311 312 314 314 316 313 314 315 315 319 318 318 319 318 318 319 319 322 324 324
300 301 302 304 303 303 303 303 304 304 304 306 306 306 306 307 307 307 310 312 309 311 313 314 313 311 313 312 314 315 314 313 316 318 320 318 321 320 319 320 321 322 321 323 324
300 301 304 304 304 303 304 302 302 306 306 305 306 305 305 306 305 307 307 313 313 312 311 313 314 313 313 314 315 314 315 313 315 318 319 318 319 320 319 321 322 322 322 323 324
301 301 304 304 304 303 304 304 303 304 304 304 306 306 307 305 305 306 307 311 312 311 310 312 313 313 313 313 314 314 314 315 314 319 321 320 321 321 323 323 325 324 322 323 324
301 301 303 304 304 304 304 305 304 304 303 304 306 306 305 305 305 305 307 308 309 310 310 311 312 315 313 313 312 310 313 311 313 314 318 320 320 318 320 321 323 322 322 324 324
301 295 302 304 301 302 304 305 304 304 304 304 305 304 305 305 308 306 306 306 307 308 308 309 311 313 314 312 314 313 312 313 315 315 315 318 319 318 318 318 320 321 323 324 325
299 300 302 305 302 301 302 303 304 304 304 304 304 305 306 307 307 307 307 310 306 308 308 311 312 313 314 315 313 313 312 312 312 312 316 316 317 320 322 322 320 321 324 325 325
300 298 301 303 302 302 301 302 303 304 304 304 303 304 305 307 307 308 307 307 306 307 309 310 309 313 314 314 313 313 314 313 311 311 316 318 319 322 325 321 321 322 324 325 325
300 298 301 298 299 300 299 301 303 304 305 304 304 305 305 307 308 310 309 308 308 308 310 308 308 311 311 314 315 315 314 314 313 314 315 317 318 318 321 322 321 323 324 325 325
301 300 301 301 302 298 299 302 303 303 303 305 305 306 305 307 307 307 309 310 309 308 310 308 307 309 311 314 316 317 314 314 314 314 314 317 317 316 320 324 323 324 324 325 326
301 301 301 301 299 301 302 302 302 302 303 305 305 304 304 305 306 306 306 308 308 309 309 309 307 307 309 310 315 316 316 314 315 314 315 316 317 319 325 324 323 324 325 326 326

GFSSW_850_thetae_021.txt.gz
Theta_e
300 300 299 299 299 300 304 305 305 306 308 309 309 308 307 308 310 310 312 318 319 315 313 316 318 319 325 325 327 330 331 329 327 327 327 327 329 327 327 329 328 327 328 328 328
303 302 302 301 301 300 299 300 301 302 303 305 306 308 309 308 307 308 315 315 317 314 314 315 313 317 325 327 327 329 331 328 327 326 327 327 327 328 328 329 329 329 329 328 329
302 302 303 302 302 302 302 302 300 300 300 301 302 304 306 308 308 309 311 313 315 315 312 313 313 318 324 326 327 328 330 328 327 326 326 327 327 327 328 329 328 328 328 329 329
300 301 301 301 302 302 302 302 302 302 302 300 299 300 303 305 310 311 313 313 314 314 312 312 318 322 322 325 326 328 327 328 328 327 327 327 327 328 328 328 328 328 328 328 329
300 300 300 300 300 301 301 301 302 302 302 302 302 300 301 307 307 309 314 315 314 317 312 314 318 318 320 322 323 328 327 327 328 328 328 327 328 328 327 326 326 327 328 328 328
299 299 299 300 300 300 300 300 301 301 301 301 302 301 303 306 307 309 309 312 313 310 312 312 317 319 320 321 322 323 324 325 326 326 327 327 326 326 326 325 326 326 325 325 326
297 298 298 299 300 300 300 300 300 300 301 301 302 304 306 305 307 308 309 310 310 308 308 310 313 317 318 320 321 322 324 325 324 325 326 323 322 323 322 323 323 323 324 325 324
298 299 298 299 299 300 300 300 300 300 300 301 305 307 306 303 304 306 308 309 309 308 307 308 309 312 315 316 317 318 319 320 320 320 320 320 322 322 321 322 323 323 323 323 322
300 300 300 300 300 300 300 300 300 301 302 304 305 305 306 303 303 305 305 306 308 309 306 309 310 314 314 317 319 318 320 319 319 319 320 321 322 321 321 321 321 322 322 323 323
303 302 301 301 301 301 301 300 302 306 307 304 305 305 303 305 307 307 308 308 307 308 309 309 312 315 315 316 319 319 317 319 319 319 319 320 321 321 319 321 322 322 322 323 323
302 302 301 301 301 301 301 302 305 306 304 306 305 305 304 304 305 305 309 307 309 307 311 309 312 315 316 315 316 319 320 320 320 318 318 319 320 321 321 321 322 322 322 322 322
301 302 302 301 301 300 303 304 303 304 305 304 303 305 303 303 306 305 306 308 308 309 310 310 312 314 316 315 315 315 318 319 319 318 318 320 321 321 322 322 321 321 323 323 324
301 302 302 302 301 302 301 303 303 303 305 305 305 306 306 306 307 306 307 308 309 309 309 312 314 312 313 316 315 315 316 317 317 318 319 320 321 321 322 322 321 321 323 323 324
301 301 301 301 302 301 302 303 303 303 307 306 307 306 307 307 308 307 306 308 309 310 310 311 313 312 312 314 316 317 316 316 316 317 319 320 323 323 322 322 322 322 324 324 323
300 300 300 300 302 303 301 303 303 305 303 304 309 308 307 308 308 310 308 307 310 310 310 311 311 311 312 313 315 316 316 317 317 318 320 321 322 321 321 322 323 323 324 325 323
301 300 300 301 302 301 302 302 305 307 304 305 307 306 307 308 308 308 309 307 309 312 311 312 311 312 313 313 315 316 318 318 319 320 322 321 320 321 321 322 322 325 325 323 324
301 300 301 303 303 302 302 303 305 304 303 306 306 306 306 307 308 307 309 310 310 313 314 312 312 312 312 313 315 318 319 320 320 320 321 320 321 321 321 322 324 325 326 324 324
301 300 303 304 304 302 302 304 303 302 305 305 305 305 305 306 306 306 309 314 310 312 315 315 314 313 312 313 314 318 320 319 320 321 321 320 320 320 323 322 321 323 324 323 325
300 301 303 304 304 302 303 304 302 304 305 305 305 304 305 306 305 304 307 313 313 309 311 316 316 315 313 314 316 318 320 319 320 321 322 323 322 323 324 325 325 324 324 325 326
300 302 303 303 302 302 305 304 303 303 304 304 304 304 305 305 305 305 306 308 309 310 310 314 315 316 314 314 315 318 319 318 319 319 319 323 325 325 326 326 327 328 327 326 326
300 301 303 302 302 302 306 305 305 304 304 304 304 304 305 304 305 307 306 306 308 308 310 312 315 316 315 315 315 315 319 318 318 319 318 318 321 327 328 328 329 330 327 326 326
300 303 302 304 304 302 304 303 303 304 304 305 305 305 305 304 305 307 307 306 307 308 311 311 316 317 316 316 316 316 317 318 318 319 320 320 322 323 327 325 328 328 326 326 326
300 299 301 303 303 303 302 302 303 304 304 305 305 304 305 306 307 307 308 308 307 307 308 311 316 318 316 316 316 316 316 318 318 319 319 319 321 323 327 326 324 327 326 326 326
300 302 301 301 301 302 302 302 303 303 305 304 305 305 306 306 306 308 308 307 307 307 309 310 312 316 317 317 317 316 316 316 318 317 318 318 318 322 324 327 327 326 326 326 326
300 301 300 302 302 302 301 302 303 303 303 303 306 306 307 307 307 310 308 309 309 309 309 311 312 311 312 312 314 317 316 316 316 317 317 317 318 322 322 326 329 326 326 327 327
301 301 301 301 301 301 301 302 303 303 303 303 305 305 305 306 306 307 308 309 311 309 311 311 312 311 314 314 315 317 317 316 316 316 318 319 321 320 321 325 326 326 326 327 327
301 300 301 301 301 302 303 303 304 303 304 304 304 304 305 306 305 306 305 306 307 310 311 311 312 312 316 313 316 317 318 318 316 316 317 318 319 321 324 327 329 327 327 328 328

GFSSW_850_thetae_024.txt.gz
Theta_e
302 302 302 302 302 302 302 301 302 303 303 305 307 309 309 310 310 309 311 313 315 315 315 316 320 326 326 326 329 328 331 332 332 331 331 330 331 330 330 331 331 330 330 330 330
301 301 302 302 302 302 302 303 302 302 301 301 302 304 306 308 309 310 313 312 312 312 314 320 321 321 326 328 329 331 332 331 331 331 331 330 330 330 330 330 330 330 330 330 330
300 300 301 301 301 302 302 302 302 302 302 303 302 301 302 303 308 311 313 314 314 315 316 316 319 319 322 325 329 331 333 331 331 330 330 330 330 329 330 331 330 330 330 330 330
299 299 300 300 300 300 301 301 301 301 302 302 302 302 302 301 312 313 312 312 313 316 315 314 318 319 323 324 326 330 330 330 330 330 330 330 330 330 330 330 329 329 329 328 328
298 298 298 299 299 300 300 300 300 300 301 301 301 302 304 309 309 309 312 314 314 317 314 316 318 320 326 326 324 327 329 328 328 329 329 329 330 330 330 328 328 328 327 328 328
297 298 298 298 298 299 299 300 300 300 300 300 301 301 307 308 308 308 308 313 315 314 318 316 317 319 325 326 327 325 325 325 326 327 328 329 329 328 328 327 327 327 325 325 326
300 301 300 299 299 299 299 299 300 300 300 300 300 305 307 307 305 307 307 308 310 310 312 316 315 319 322 325 324 325 326 327 326 326 327 326 328 328 326 326 325 325 324 325 325
301 302 301 300 300 300 300 300 300 299 300 300 301 308 308 302 305 304 307 308 309 309 310 311 315 317 320 321 321 324 326 328 328 327 327 327 329 327 325 324 325 324 324 324 325
302 302 302 301 301 301 301 300 300 300 301 303 306 309 307 306 305 305 307 308 309 311 311 310 311 315 317 319 322 324 326 327 327 327 326 326 327 327 325 324 324 324 324 325 325
302 302 302 302 301 301 300 301 301 303 307 308 308 307 306 305 307 310 309 310 310 310 312 310 311 315 318 320 324 324 325 325 327 328 324 324 325 326 326 324 323 324 325 325 325
302 301 301 302 302 302 302 305 307 307 306 307 306 307 305 305 305 306 307 311 311 311 314 312 314 316 318 320 321 322 325 326 326 326 326 325 325 327 326 324 324 325 326 326 325
301 301 301 301 301 301 303 304 305 305 306 305 305 304 304 304 305 306 306 309 312 313 314 315 315 317 318 319 320 321 322 324 324 324 325 325 325 326 326 326 325 325 325 325 325
300 300 300 300 300 304 304 305 305 305 306 305 306 306 306 307 306 306 306 307 311 314 314 316 316 316 317 318 319 320 321 321 322 324 324 324 324 325 325 325 325 325 325 325 324
301 301 301 300 304 304 304 304 304 305 308 307 309 309 309 309 310 309 308 307 310 312 314 314 316 317 316 317 318 320 320 319 321 322 324 323 327 325 326 328 327 326 325 325 324
302 301 300 300 303 304 304 304 305 306 305 306 310 309 309 310 310 311 310 309 308 312 314 315 314 316 317 317 318 319 320 320 320 322 322 322 324 325 326 327 327 327 325 323 327
302 301 300 304 304 304 304 304 305 308 305 306 308 309 309 309 309 310 310 311 310 309 313 314 315 315 317 317 317 318 318 319 320 321 324 323 324 325 327 328 328 327 324 325 330
300 300 302 303 305 303 304 305 308 305 305 305 308 307 307 307 308 310 310 312 313 310 309 314 315 315 315 317 317 318 319 321 323 324 326 325 326 327 327 326 325 325 326 330 331
300 301 303 304 303 302 304 306 306 304 304 305 306 306 306 307 308 308 310 312 314 312 311 312 317 315 315 316 317 317 321 322 324 326 327 326 326 327 325 325 323 322 326 330 331
301 304 305 304 303 303 306 307 306 306 305 305 305 304 305 306 306 306 307 309 311 314 313 314 316 317 316 316 318 318 322 322 323 325 326 327 325 324 324 324 325 326 324 329 331
302 304 305 303 303 304 306 306 306 305 305 306 306 305 304 305 306 306 307 309 309 310 313 315 319 318 316 316 317 319 321 323 323 325 326 325 327 327 327 326 328 329 329 330 331
304 305 305 303 304 305 307 306 305 305 305 306 306 306 306 306 306 305 307 309 308 308 311 314 317 319 318 317 318 319 321 322 323 323 325 325 325 324 326 328 329 330 331 332 331
303 307 303 305 306 305 306 304 304 306 305 306 306 306 307 307 307 306 307 308 307 308 311 314 317 320 319 318 319 320 321 322 323 324 323 323 323 327 328 330 331 333 332 332 331
304 303 303 305 307 306 304 305 304 305 305 306 307 306 307 307 308 308 309 308 307 309 311 313 316 321 320 320 318 319 320 322 322 324 324 323 322 327 329 329 330 332 331 331 331
304 307 305 304 303 304 304 305 305 304 305 305 306 307 308 308 308 308 310 310 308 308 309 311 316 319 321 320 319 319 319 321 322 323 323 322 322 326 328 330 331 332 331 331 330
303 305 303 306 305 304 304 304 304 304 304 304 306 307 306 307 308 310 308 309 310 310 311 313 316 318 318 317 317 320 319 319 321 322 322 321 321 322 327 327 330 331 331 331 331
303 303 302 303 303 303 304 305 305 306 305 305 306 307 307 308 307 308 307 310 308 309 312 313 318 317 317 317 317 319 320 319 319 321 321 320 320 321 322 322 324 330 331 332 331
301 301 301 303 303 303 306 305 305 305 306 305 305 306 307 307 307 307 307 307 308 309 312 313 317 317 317 318 318 320 320 319 320 320 321 320 321 323 324 323 326 331 330 331 331

GFSSW_850_thetae_027.txt.gz
Theta_e
301 301 301 301 302 302 303 303 303 303 302 302 303 306 308 308 309 310 315 315 316 317 316 325 325 326 328 326 325 327 331 332 333 333 332 331 332 331 331 332 332 332 332 331 331
300 300 300 300 300 301 301 302 302 302 302 303 303 303 304 306 307 311 313 314 315 315 316 319 325 324 326 330 328 330 335 334 333 332 332 332 332 331 332 331 331 331 331 331 331
299 299 299 299 300 300 300 300 301 301 301 302 302 303 303 303 310 314 315 314 313 313 314 316 324 325 325 325 329 330 334 334 333 332 332 332 332 331 332 333 331 331 331 331 331
297 297 298 298 299 299 299 300 300 300 300 301 301 302 302 304 315 318 314 313 312 312 313 313 316 322 326 327 326 330 331 332 332 332 332 333 332 332 331 332 331 331 330 331 330
297 297 297 297 297 298 298 299 299 300 300 300 300 301 302 311 312 312 311 313 313 318 321 317 316 320 327 326 327 329 329 329 329 330 331 330 331 332 332 331 331 331 330 329 329
299 299 299 299 299 299 298 298 298 299 299 300 300 300 308 310 311 311 312 312 315 316 321 319 319 321 325 327 328 328 329 329 328 328 329 331 331 330 331 331 330 330 329 329 328
300 301 301 300 300 300 300 300 299 299 299 299 300 303 309 308 308 309 310 311 311 313 315 319 319 321 323 326 326 327 330 330 330 329 329 328 329 330 329 329 329 329 328 328 327
301 302 302 302 301 301 301 301 300 300 299 299 300 308 309 306 306 307 308 309 310 311 314 314 318 320 321 323 325 327 329 331 329 329 328 328 331 330 329 329 329 329 327 327 327
303 302 301 301 302 302 302 301 301 301 300 302 306 309 309 308 308 308 308 308 310 311 312 313 314 316 320 322 325 328 330 329 329 329 330 330 331 330 329 329 329 328 328 327 326
301 301 301 301 301 301 301 302 306 307 309 310 310 310 310 307 307 309 311 310 310 311 313 314 314 317 319 323 326 327 328 327 328 328 329 330 330 329 328 327 327 328 327 326 326
301 300 300 300 300 300 300 307 308 310 311 310 308 309 308 308 306 307 308 309 311 312 315 315 317 316 318 320 323 325 326 327 328 328 328 328 329 330 329 327 328 328 328 327 326
302 301 301 301 300 300 306 306 307 306 308 306 306 306 306 306 306 306 306 309 312 315 314 317 318 318 317 319 320 322 323 326 327 327 328 329 329 329 329 328 327 327 328 327 327
302 302 302 301 300 308 306 306 306 306 307 306 306 307 307 307 307 307 306 307 310 314 316 316 318 318 318 318 319 321 323 324 326 327 327 328 327 327 327 327 326 326 326 326 327
301 302 301 300 305 306 306 306 305 306 309 308 309 309 309 309 311 309 308 307 309 310 314 316 316 318 318 319 319 321 322 323 325 326 327 325 328 327 327 328 327 326 327 327 328
300 300 300 301 305 306 306 305 305 306 309 308 310 310 310 310 311 313 311 310 309 310 311 313 316 317 318 319 319 320 321 323 324 324 325 325 326 325 326 326 327 329 327 328 328
300 300 301 307 307 306 306 306 306 309 309 308 310 309 311 311 311 311 311 312 311 310 310 313 314 317 317 319 320 320 320 321 323 324 326 325 326 326 326 327 329 329 328 328 327
300 301 305 306 307 306 306 306 309 310 307 307 308 308 308 309 309 310 310 312 313 313 312 311 313 316 318 318 320 321 321 322 324 326 328 325 325 326 327 329 329 329 328 326 326
301 304 307 307 306 306 307 308 311 307 307 307 307 307 307 307 308 310 309 309 311 312 318 312 311 314 317 318 319 321 322 322 325 326 325 324 325 328 330 328 327 327 326 331 333
304 307 307 307 306 306 307 310 309 307 307 306 307 308 308 306 306 308 308 308 311 313 319 317 312 313 316 318 318 320 323 322 324 326 325 328 328 329 330 329 327 326 325 333 333
306 307 308 306 307 307 309 308 307 307 307 307 307 308 308 308 308 309 308 311 310 310 310 316 320 314 315 318 318 320 322 322 325 326 327 328 331 330 329 328 327 327 327 331 334
307 308 308 306 307 308 310 307 306 305 306 308 308 308 308 308 308 307 308 310 310 309 310 313 318 320 315 319 319 318 321 322 324 324 326 329 329 329 330 328 329 330 328 331 335
307 309 306 306 309 308 308 306 305 306 305 307 308 308 308 308 309 309 308 310 309 310 311 313 316 321 320 318 319 319 321 322 327 326 326 328 328 327 327 329 331 331 330 334 334
307 307 307 306 309 309 307 307 306 306 306 307 307 308 309 309 311 310 310 309 309 309 313 314 318 318 325 323 320 319 320 322 324 327 327 327 328 328 331 331 330 334 335 335 334
307 310 307 307 306 306 307 307 307 306 306 306 307 307 309 310 309 311 311 310 309 309 310 310 316 318 325 323 320 320 320 322 325 326 327 326 326 327 330 332 334 334 334 334 334
307 309 306 309 308 305 306 307 307 308 307 306 307 307 308 308 309 311 310 311 310 310 310 312 318 315 317 320 322 320 321 322 324 325 327 327 326 329 331 332 333 334 333 334 333
305 305 305 305 305 306 306 308 307 307 308 308 308 308 308 309 309 310 309 310 311 309 313 311 318 317 314 319 321 322 321 322 323 324 325 326 325 326 329 326 329 332 333 333 333
304 303 304 304 307 307 308 306 306 306 307 307 307 309 309 309 309 308 308 308 309 310 311 313 318 318 317 318 319 322 322 322 322 324 324 324 322 324 324 325 325 331 332 333 333

GFSSW_850_thetae_030.txt.gz
Theta_e
300 300 300 300 300 300 300 301 301 301 302 302 303 304 305 306 308 307 311 317 316 317 318 323 320 329 332 334 329 325 326 329 331 332 332 332 332 332 331 332 332 333 333 332 331
299 299 299 299 299 299 300 300 300 300 301 301 302 303 303 304 306 307 314 313 315 316 317 318 325 327 328 329 330 328 328 329 330 331 332 332 332 333 333 332 332 332 331 331 331
297 297 297 297 298 298 298 299 299 300 300 300 300 301 302 303 309 312 314 315 315 314 316 317 319 324 326 326 328 330 330 329 330 332 332 333 333 333 333 333 332 332 332 332 331
298 298 298 298 298 298 298 298 298 299 299 300 300 300 301 302 314 318 313 314 315 314 313 313 315 319 327 328 327 328 330 330 331 332 332 333 332 332 332 333 333 333 332 332 332
299 298 298 298 298 298 298 298 298 298 299 299 299 300 300 308 311 313 314 313 312 314 314 315 315 317 322 326 327 328 328 328 330 331 332 331 331 331 331 331 331 331 332 332 332
300 300 301 301 300 300 300 300 299 299 299 299 299 299 306 308 308 310 312 313 314 316 317 321 319 319 320 323 325 327 327 327 328 328 329 330 330 329 330 331 331 331 331 331 332
301 301 301 301 301 301 301 301 301 301 300 300 299 300 308 307 308 310 310 311 313 314 317 319 323 322 321 323 323 325 328 329 330 329 330 329 331 331 329 328 329 329 330 330 330
301 301 301 301 301 301 301 302 302 301 302 300 300 305 308 306 307 308 308 309 309 311 313 314 317 317 321 322 323 325 326 329 329 329 330 330 332 332 329 329 329 330 330 330 330
301 301 301 301 300 300 300 300 301 305 307 304 302 309 309 309 310 310 309 308 309 309 311 313 314 317 318 322 324 325 327 327 329 329 329 331 331 331 329 329 330 330 330 330 330
302 302 301 301 301 300 300 300 307 307 309 311 311 311 312 311 310 309 310 311 309 309 311 313 314 316 318 320 325 325 325 327 329 329 329 330 331 331 331 330 331 331 330 329 328
302 302 302 302 301 300 303 308 308 310 312 313 313 313 311 310 308 308 308 309 311 313 312 313 316 317 318 318 320 323 326 326 328 328 329 330 330 330 331 330 331 330 330 329 330
301 300 301 301 300 305 309 309 308 307 307 307 307 307 307 307 307 307 308 308 310 313 314 314 317 318 317 318 318 319 322 325 327 327 328 329 330 330 331 331 330 330 330 330 329
301 300 300 300 301 309 308 308 307 306 308 307 307 307 307 307 308 308 308 307 309 310 314 314 315 316 318 318 318 319 321 323 324 325 326 327 329 330 330 330 329 328 328 328 328
301 300 300 303 308 307 308 307 306 306 308 309 309 309 308 308 309 309 309 308 309 308 310 313 315 315 317 318 319 321 320 320 322 323 326 325 329 331 330 331 330 329 328 328 328
301 300 301 308 307 308 307 307 307 307 311 310 312 311 311 312 313 313 312 309 309 309 309 309 312 315 315 318 319 320 319 320 321 323 325 324 328 328 329 329 329 329 328 327 328
301 301 304 308 309 309 307 307 307 310 312 309 309 308 309 310 311 312 312 313 311 310 310 310 310 312 316 316 317 320 319 320 322 323 326 327 327 327 327 330 329 329 328 328 328
301 303 307 308 307 307 307 308 310 311 309 306 307 307 308 308 309 311 312 312 314 315 313 312 310 311 313 315 317 318 323 323 324 324 325 324 325 327 328 328 328 329 329 329 329
302 307 308 309 307 307 307 309 309 310 307 307 307 307 308 308 308 308 310 311 311 311 313 315 317 312 312 314 317 318 322 323 323 324 324 323 326 327 329 328 327 327 328 328 331
303 309 309 308 308 308 309 310 308 308 306 307 307 309 309 309 309 309 308 309 310 311 314 316 316 316 315 313 316 318 319 321 325 323 323 325 327 328 329 329 330 328 327 331 335
306 309 309 309 308 308 310 309 308 307 306 306 307 308 309 309 309 310 311 311 312 311 312 311 312 313 317 314 314 318 319 321 324 325 326 325 327 329 331 331 332 330 329 335 337
309 311 311 307 309 309 311 309 307 306 306 307 307 308 309 309 310 309 309 310 312 311 311 311 313 312 316 318 314 318 319 320 324 323 326 327 327 333 333 332 329 329 329 336 337
309 312 309 308 310 311 310 308 307 308 306 306 308 308 308 310 310 310 310 312 311 311 312 311 314 316 314 317 317 317 319 321 324 325 325 326 328 331 329 330 331 330 329 336 336
310 309 310 308 312 310 308 308 308 307 308 309 307 308 309 309 311 310 312 310 310 310 313 314 316 317 316 316 319 320 319 322 325 328 327 327 328 330 328 329 331 333 330 336 336
310 312 309 307 309 308 309 308 308 308 309 308 308 308 309 310 310 310 310 311 311 311 311 311 313 315 319 318 319 323 322 321 323 326 326 327 327 329 331 331 336 335 337 336 336
309 310 309 310 309 308 307 307 309 308 307 307 309 309 309 310 308 310 311 311 311 311 311 311 313 314 315 314 317 320 324 322 322 326 326 326 329 329 332 336 335 337 337 336 336
307 307 306 305 307 309 308 308 309 308 308 308 309 310 309 310 310 310 310 310 311 311 310 312 316 315 317 315 315 317 320 322 322 323 325 326 328 332 333 334 335 335 335 335 335
306 306 305 306 308 309 310 308 309 308 309 307 308 311 310 310 309 309 309 309 310 310 311 313 316 318 318 315 316 318 321 323 323 324 326 327 330 332 328 329 335 334 334 335 334

GFSSW_850_thetae_033.txt.gz
Theta_e
298 298 298 298 298 299 299 299 300 300 300 301 302 302 303 305 308 307 308 317 316 317 317 320 321 324 332 332 332 333 325 323 324 326 328 330 329 332 332 332 332 333 332 332 332
298 298 298 298 298 298 298 298 298 299 299 300 301 301 302 302 305 307 314 312 313 315 317 318 319 325 332 331 334 334 326 324 324 325 327 329 330 332 333 332 332 332 332 332 332
298 298 298 298 298 298 298 298 298 298 298 299 299 300 300 301 303 309 312 314 314 314 315 316 318 319 328 327 328 329 330 327 325 326 327 329 331 332 332 331 332 332 332 332 333
299 300 300 300 300 300 300 299 299 299 299 298 299 299 300 300 311 315 314 313 314 314 314 315 315 316 315 322 326 325 328 329 328 327 327 328 330 331 331 330 331 330 331 332 332
300 300 301 301 301 301 301 301 301 300 300 300 299 299 299 305 304 309 311 314 313 314 313 314 314 314 313 317 323 325 325 326 328 329 329 329 330 330 331 331 330 329 329 331 331
300 301 301 301 301 301 301 301 301 301 301 301 300 300 303 307 303 306 309 310 312 315 314 313 313 314 315 316 316 323 326 327 327 326 327 327 328 328 329 328 329 329 329 329 330
301 301 301 301 301 301 301 301 301 301 301 301 303 302 307 303 302 305 310 311 311 313 314 316 317 319 318 316 318 319 321 322 324 326 326 326 327 327 328 329 329 329 329 328 328
301 301 301 301 301 301 301 300 300 301 301 305 305 304 307 302 307 307 306 309 310 311 312 313 315 314 315 319 320 321 321 321 322 323 325 326 328 327 328 329 329 329 329 329 328
301 301 300 301 301 301 300 301 303 305 305 307 308 308 309 311 310 310 309 307 308 308 309 310 312 313 314 315 316 319 322 322 323 323 324 325 327 327 328 328 328 329 329 328 329
301 300 300 300 300 300 305 307 308 308 309 311 311 311 310 311 311 310 310 311 310 310 309 310 311 312 311 313 317 319 321 322 322 323 324 325 325 326 326 327 328 328 329 329 329
300 301 300 300 300 301 307 308 308 310 310 308 309 313 313 313 312 309 308 309 310 311 308 310 310 312 313 313 316 318 322 322 322 323 324 324 325 326 327 327 326 327 329 329 329
300 301 300 300 302 308 308 309 308 306 306 306 307 307 307 307 307 308 307 307 308 308 312 311 309 312 314 315 315 316 316 317 320 323 323 324 325 326 326 326 326 326 327 328 329
301 301 300 303 306 306 308 307 307 307 306 306 307 307 308 307 308 307 307 307 307 307 308 311 312 312 314 315 316 315 316 316 317 319 320 320 321 322 323 324 326 327 328 328 328
301 301 301 303 308 308 308 307 307 307 305 308 311 311 310 308 308 307 308 308 308 306 307 307 309 314 313 314 316 316 316 317 318 318 319 320 321 321 322 323 324 326 327 328 328
301 301 302 308 308 309 308 307 307 307 310 309 310 308 308 310 311 311 312 309 308 308 307 306 308 309 312 314 315 315 318 317 318 317 317 319 319 321 322 324 325 324 326 326 327
301 305 306 308 309 307 307 307 308 310 312 310 308 307 307 308 308 310 313 313 313 309 308 308 309 308 308 310 314 315 316 316 317 316 318 318 319 320 320 321 324 324 326 326 326
301 305 307 308 309 307 307 308 310 310 309 307 306 308 308 309 310 309 310 311 313 315 308 309 309 309 310 309 310 311 313 314 317 317 318 318 320 321 321 322 324 323 325 326 327
301 305 309 310 309 308 308 308 308 308 309 306 306 307 307 308 309 309 310 309 312 313 313 314 314 313 314 309 308 310 312 314 318 319 318 319 320 319 321 322 323 324 325 329 332
303 309 310 309 309 308 308 309 305 308 307 307 307 306 307 308 308 310 310 310 311 310 313 313 313 313 313 311 311 309 310 314 315 317 318 319 319 320 320 320 323 323 330 336 337
304 309 310 310 308 309 308 309 308 308 308 308 306 307 307 308 309 310 310 310 311 311 311 310 311 311 310 310 311 315 312 314 314 316 318 321 319 320 321 324 322 325 329 337 338
309 312 312 309 309 310 307 309 307 308 308 307 308 307 307 309 309 308 310 310 311 310 311 311 310 311 311 310 312 315 312 311 313 315 318 321 321 321 321 322 323 325 336 337 337
309 311 309 308 310 310 308 308 307 308 308 309 308 309 308 309 309 309 310 312 310 311 312 310 312 313 312 313 313 313 313 311 313 317 318 320 320 324 326 326 325 331 336 336 336
307 311 310 309 309 308 309 308 307 308 309 309 308 308 309 309 310 311 311 310 309 310 311 311 311 313 313 313 315 315 317 316 314 317 317 319 321 320 322 328 325 332 336 336 337
308 310 309 308 308 308 308 307 308 308 308 307 308 308 309 309 308 310 311 310 309 311 312 311 310 312 314 314 314 317 317 318 320 319 318 320 320 321 326 326 327 335 336 336 336
309 309 307 306 306 306 309 308 308 309 307 308 309 309 309 309 309 309 310 310 310 311 311 312 311 312 312 313 314 315 315 316 317 318 320 320 321 320 326 335 332 335 335 335 336
308 306 306 306 306 307 309 310 310 309 308 308 308 309 309 310 309 310 309 309 309 311 311 311 315 313 315 314 315 315 313 314 315 316 319 320 320 327 330 335 335 335 335 335 335
305 305 306 306 306 307 308 309 309 308 308 308 308 310 311 310 309 309 309 309 309 309 309 311 314 316 316 317 316 315 315 314 315 316 318 321 320 329 330 335 332 334 335 335 335

GFSSW_850_thetae_036.txt.gz
Theta_e
298 298 298 298 298 298 298 299 299 299 300 300 300 301 301 301 303 305 308 314 315 316 316 317 324 317 315 328 331 331 325 322 322 324 326 326 327 331 329 331 332 332 332 333 332
299 299 298 299 299 299 299 299 299 299 299 299 299 300 300 301 302 303 311 311 311 312 315 315 320 323 326 327 331 331 331 328 322 323 323 323 325 326 329 330 331 332 331 332 331
299 300 300 300 300 300 300 300 300 299 299 299 299 299 299 299 300 306 312 313 313 312 311 315 316 317 326 331 329 330 334 331 329 326 325 325 325 326 327 329 331 330 330 330 330
300 300 300 300 300 300 300 301 301 301 300 300 300 299 299 299 300 312 312 313 313 314 310 313 315 315 314 323 327 327 329 331 331 329 327 326 326 326 327 328 329 331 331 329 329
300 300 300 300 300 300 300 300 300 300 301 301 301 301 300 301 301 310 313 310 313 313 313 312 314 314 312 313 316 321 325 327 327 328 328 328 327 327 328 329 329 330 330 328 329
301 301 301 301 301 301 301 301 300 300 300 300 300 302 308 305 302 303 304 304 309 312 313 312 314 314 313 313 314 316 317 321 324 324 324 326 326 327 327 328 327 327 328 328 329
301 300 300 300 300 301 301 301 300 300 300 300 300 305 307 307 303 303 302 306 310 310 311 312 313 313 314 314 315 315 315 317 318 320 323 325 325 325 326 326 326 327 327 328 329
300 300 300 300 300 300 300 303 303 308 305 302 303 307 307 308 308 308 307 304 309 309 309 312 312 312 316 316 316 318 316 317 318 319 320 322 324 326 326 326 326 327 327 327 327
300 300 300 300 300 300 304 306 307 307 308 307 306 310 310 308 310 310 310 307 307 309 309 309 310 310 312 313 314 314 320 320 320 320 321 321 323 323 324 326 326 326 327 327 328
300 300 300 300 302 301 307 308 307 310 307 308 311 311 309 311 312 312 311 310 307 308 309 308 308 309 308 311 316 316 318 319 321 321 321 322 322 322 323 324 324 324 325 326 326
300 300 301 300 304 307 308 307 307 307 306 306 306 307 307 306 305 307 310 308 308 309 307 308 305 308 310 311 312 315 317 319 320 320 321 322 322 322 323 323 323 324 324 325 326
300 300 301 300 305 307 308 307 307 307 306 306 306 307 308 307 306 306 307 307 306 306 308 307 307 308 309 312 312 313 314 315 315 315 319 321 321 322 322 322 323 323 324 325 326
300 301 301 302 306 308 309 306 307 307 306 306 309 309 309 308 307 306 306 307 306 305 305 309 311 310 309 311 312 313 313 314 315 315 315 315 316 317 318 319 321 322 323 324 326
300 302 304 304 306 306 306 306 307 307 304 309 309 309 308 308 307 308 307 307 306 305 305 304 306 308 309 310 311 312 313 315 314 315 315 316 316 316 318 318 319 320 322 324 323
301 302 306 307 307 307 306 307 307 307 309 307 309 308 308 309 309 309 310 312 307 307 305 306 306 306 308 310 312 311 314 315 315 315 314 315 314 316 316 318 319 319 321 322 323
301 301 306 307 308 307 307 308 308 307 307 309 307 307 307 307 308 309 310 311 311 313 308 306 307 306 306 307 308 309 312 313 314 313 315 315 314 316 316 317 318 320 323 323 323
301 303 307 308 308 308 307 308 304 304 308 308 307 306 306 307 308 309 309 309 311 313 312 308 307 307 308 307 307 307 307 310 311 314 316 316 315 317 316 317 317 318 319 321 323
301 305 309 310 309 308 308 304 304 306 308 308 307 307 306 307 308 310 309 309 310 312 314 313 315 310 312 309 307 305 305 309 312 315 315 316 316 316 317 318 319 319 321 322 323
302 306 308 310 309 308 307 304 301 308 308 308 308 306 305 308 308 309 309 310 311 311 312 312 312 311 310 310 310 310 306 306 309 312 313 315 316 317 318 318 318 318 321 324 328
304 310 311 310 308 309 303 307 307 307 307 308 309 307 307 308 308 309 309 310 311 311 310 310 310 310 310 309 309 309 312 309 307 313 314 315 317 318 317 318 318 317 320 332 336
307 310 311 309 308 309 301 306 308 307 308 309 308 308 308 307 308 309 309 310 311 311 310 310 309 310 310 309 308 309 312 310 308 309 314 315 316 316 318 317 318 318 328 335 337
308 307 310 309 308 305 302 307 308 307 308 309 309 308 308 309 309 309 310 310 309 310 311 309 310 312 310 309 309 309 311 311 308 309 312 314 315 317 316 318 319 320 334 335 337
307 310 310 308 308 301 304 307 307 308 308 308 308 308 308 308 308 310 310 310 310 309 311 310 308 310 307 307 313 312 314 316 314 309 310 313 316 316 315 317 322 332 335 335 336
308 305 307 306 305 304 305 308 308 308 308 307 306 308 308 308 307 309 309 310 310 310 311 311 309 309 307 309 312 314 315 314 315 317 313 312 314 316 317 316 323 334 334 335 335
309 304 305 300 303 303 304 307 309 308 308 307 307 308 308 310 308 307 309 309 309 309 310 308 310 310 310 310 311 312 313 314 315 315 317 318 318 317 317 318 324 333 334 334 335
306 305 305 305 305 304 305 308 309 309 308 308 308 308 309 310 310 309 308 308 308 308 309 308 311 312 312 312 313 313 314 315 315 314 314 316 317 317 317 329 329 333 334 334 335
296 303 303 305 303 304 305 307 308 308 308 308 307 307 308 309 309 308 308 308 307 307 309 312 312 313 313 314 315 316 315 315 314 315 316 316 316 318 321 335 332 332 334 334 335

GFSSW_850_thetae_042.txt.gz
Theta_e
299 299 300 300 300 300 300 300 300 300 300 300 300 300 300 300 300 301 304 307 306 309 310 310 314 318 320 326 328 327 319 320 322 322 323 323 322 326 325 327 327 329 330 330 332
300 300 300 300 300 300 300 300 300 300 300 300 300 300 300 300 301 302 304 305 305 306 306 309 311 317 320 319 326 325 321 320 320 321 322 322 324 324 324 324 326 327 330 330 330
300 300 300 300 300 300 300 300 301 301 300 300 300 300 300 300 300 303 310 308 307 306 307 307 310 313 320 318 323 328 330 326 323 322 322 324 325 325 324 323 325 326 327 328 328
300 300 300 299 299 299 300 300 300 300 300 300 300 300 300 300 299 305 310 308 307 307 308 311 310 314 312 326 324 326 327 328 328 326 329 326 326 327 327 326 327 326 326 326 327
300 300 300 300 299 299 299 300 302 304 305 306 306 304 302 303 304 304 303 302 302 303 305 314 307 314 311 312 321 326 325 328 329 329 330 331 330 328 328 329 328 327 326 326 327
300 300 300 300 300 300 300 304 305 305 306 307 307 306 304 304 305 307 306 305 305 304 305 310 313 311 312 311 315 315 320 324 325 323 322 323 323 323 326 326 326 326 326 326 326
300 300 300 300 301 302 304 305 305 304 305 306 305 305 304 303 307 309 309 308 308 308 303 307 312 313 311 311 313 313 313 313 313 316 317 322 323 323 323 323 324 324 325 325 325
300 300 300 300 301 304 306 306 307 307 307 305 304 306 305 307 308 308 308 310 308 307 306 304 309 311 311 312 314 313 311 314 316 313 315 319 322 322 324 323 323 324 325 325 326
300 300 300 301 301 303 305 305 304 306 308 304 307 308 307 307 308 308 308 308 309 307 306 306 308 308 310 310 310 311 316 313 315 315 316 317 319 321 323 323 323 323 323 323 323
301 301 301 302 302 303 305 304 303 304 307 305 307 307 307 307 308 308 308 307 308 307 307 306 307 305 305 308 313 312 314 315 316 317 316 316 318 318 319 320 321 322 322 322 322
301 301 302 302 302 304 305 304 305 305 305 305 305 305 306 307 308 308 307 307 306 307 304 305 304 305 309 310 311 311 312 314 315 317 318 316 317 318 318 318 318 319 320 321 321
300 301 302 303 303 304 305 307 307 306 305 306 306 306 307 308 307 308 307 306 306 305 304 304 304 306 308 308 309 309 310 310 311 313 313 313 313 312 313 314 317 318 319 319 321
300 301 301 305 304 305 305 307 307 307 305 306 307 307 308 306 307 307 307 306 305 304 303 303 305 307 307 307 308 309 309 310 312 312 312 313 314 315 315 313 314 315 316 318 318
300 300 301 304 307 307 306 307 307 307 302 305 307 307 307 306 306 307 308 306 305 305 304 302 303 304 305 307 307 306 309 311 312 312 312 313 315 314 314 314 313 313 315 315 316
302 301 301 303 307 308 307 307 307 307 302 305 307 307 307 306 306 307 307 307 307 306 305 305 304 304 304 305 306 307 307 308 310 310 311 311 311 313 312 312 312 313 314 314 315
303 302 301 304 308 308 308 307 307 301 300 307 307 307 306 306 306 307 307 309 310 310 309 307 305 304 304 305 306 307 307 307 308 309 310 310 311 312 311 311 311 312 313 314 315
304 303 303 306 309 308 308 307 301 302 304 307 306 307 306 306 306 306 307 307 310 311 312 310 307 305 305 304 305 305 303 306 308 309 310 310 311 311 311 312 312 313 313 315 316
305 306 309 309 309 308 308 300 303 302 306 307 307 307 306 305 306 307 308 308 310 310 312 313 311 307 306 304 304 302 302 305 310 312 309 310 313 312 312 313 313 314 315 315 316
305 310 310 309 309 308 307 302 300 305 307 307 307 307 305 306 306 306 306 308 310 310 313 313 313 310 308 306 304 305 303 304 304 306 305 308 310 311 312 312 312 312 314 315 317
305 310 310 309 308 307 303 306 305 305 307 306 307 307 307 305 306 307 307 308 309 310 310 311 312 310 310 308 307 305 304 304 302 306 309 309 310 312 312 312 312 313 312 315 320
305 310 310 310 308 307 301 303 305 307 307 308 308 308 306 306 306 307 307 308 309 309 308 309 309 310 309 309 306 307 307 307 303 304 309 310 310 309 311 312 311 310 313 316 327
305 304 308 306 305 299 299 303 305 307 307 308 307 308 307 307 307 307 308 308 309 309 309 308 308 311 310 308 308 306 307 308 309 310 307 307 308 308 310 310 311 313 315 318 327
306 306 308 306 297 297 300 304 305 307 307 308 308 307 306 307 308 308 308 309 308 309 309 309 308 310 308 309 309 308 309 307 308 310 312 310 308 310 310 311 313 313 315 317 331
304 301 304 304 303 302 303 304 306 305 307 307 306 306 307 308 308 309 309 308 308 308 308 309 310 308 307 308 308 308 309 309 310 312 308 310 311 311 312 312 313 313 315 323 331
300 300 303 297 299 300 303 304 306 305 307 307 306 307 308 309 307 307 308 308 307 307 307 308 311 308 308 309 309 309 309 309 309 309 313 312 312 313 312 312 312 313 317 328 332
299 299 300 300 301 302 302 305 305 306 305 306 307 306 306 307 306 308 308 308 309 306 307 307 309 310 310 308 309 311 310 310 310 309 309 310 312 311 312 313 319 318 320 330 333
303 299 300 300 299 299 299 304 304 304 305 306 307 306 306 306 306 306 306 305 306 308 306 307 309 307 309 309 309 310 310 310 311 310 310 310 311 311 312 321 322 323 326 331 333

GFSSW_850_thetae_045.txt.gz
Theta_e
300 300 300 300 300 300 300 300 300 300 300 300 300 300 301 301 301 302 303 303 304 305 307 309 311 315 316 323 324 322 321 321 321 322 321 323 324 325 325 326 327 328 330 329 331
300 300 300 300 300 300 300 300 300 301 300 300 300 300 300 300 302 302 306 305 303 304 305 306 308 313 323 321 325 326 325 323 321 321 323 322 324 325 326 326 327 328 328 328 328
300 300 300 299 299 299 299 300 300 300 300 301 301 301 301 302 302 302 308 307 308 305 305 306 306 316 319 318 324 327 329 325 322 320 322 322 323 324 324 326 326 326 327 327 328
300 300 300 300 300 300 300 300 304 304 303 304 305 305 304 305 303 303 304 306 308 303 303 310 308 312 317 320 320 323 324 326 327 324 324 323 323 324 325 325 325 326 327 328 326
300 300 300 300 300 301 302 305 305 304 305 305 305 305 305 303 304 306 307 306 305 305 303 310 312 311 314 317 321 322 322 323 324 327 328 329 330 330 329 329 329 329 329 328 327
300 300 300 300 300 302 304 305 305 304 305 305 305 304 305 305 307 309 309 308 307 307 307 305 315 311 312 314 317 320 322 322 323 326 328 328 327 328 328 327 327 326 326 326 326
300 300 300 301 300 302 303 304 305 304 306 307 303 304 306 306 307 309 308 309 309 309 307 307 306 313 311 312 313 315 318 318 322 324 326 325 327 328 326 325 325 325 325 325 326
300 301 301 302 301 302 302 304 303 302 303 307 303 305 306 307 307 307 307 308 309 309 308 306 304 307 313 312 313 314 316 318 319 317 319 322 326 326 325 324 324 324 325 325 326
300 301 301 302 301 302 303 303 303 303 304 306 304 306 308 307 307 307 307 307 307 308 307 304 306 307 311 313 313 315 316 317 318 319 318 320 323 323 322 323 325 325 325 325 324
300 300 301 302 302 302 302 304 304 304 305 305 305 307 306 307 307 307 307 307 306 306 307 306 308 309 310 314 315 314 315 316 318 318 318 319 321 322 321 321 322 323 323 323 323
300 300 301 303 303 303 303 304 305 305 305 305 306 306 306 307 306 306 307 307 306 307 309 307 307 308 309 312 313 314 315 316 316 318 319 319 321 321 320 320 320 321 321 321 322
301 300 301 304 305 305 304 306 307 306 307 305 305 305 307 306 306 307 306 307 306 308 307 307 307 307 308 309 311 312 313 314 314 315 316 319 320 319 318 319 319 320 321 321 321
301 301 301 304 306 307 305 306 307 307 306 306 306 306 307 306 307 306 306 306 307 307 308 309 308 307 308 309 310 312 313 314 314 315 316 316 318 318 319 318 318 318 318 318 318
301 302 301 301 306 307 306 308 307 307 307 306 307 307 307 306 307 306 307 307 307 307 307 307 308 306 307 308 309 311 311 312 313 315 317 316 318 318 319 319 318 317 317 317 317
301 303 302 301 305 308 308 308 307 306 305 306 307 306 307 307 306 306 307 307 309 309 308 309 308 308 307 308 308 309 310 310 311 312 313 315 315 316 317 317 318 318 317 316 317
301 303 302 304 307 308 308 307 307 306 305 306 307 307 307 307 307 306 307 307 309 311 311 311 310 309 307 307 308 309 309 311 311 312 313 313 314 316 316 317 317 317 316 315 316
301 305 307 307 308 308 308 307 306 307 306 307 307 307 307 307 307 307 307 308 311 311 311 311 311 309 308 307 307 307 309 310 310 312 313 312 312 315 315 316 316 316 316 316 317
303 308 309 309 309 308 308 304 305 304 306 307 307 307 308 307 307 306 307 308 310 311 312 314 312 312 309 309 307 307 308 310 309 311 311 311 312 313 315 315 315 315 316 317 319
303 310 309 309 308 307 307 308 307 306 307 308 308 307 307 307 307 307 308 308 310 311 311 311 312 309 311 310 308 307 307 309 309 310 311 312 312 313 314 315 315 316 316 318 319
302 310 309 309 308 307 308 308 307 305 307 308 308 308 308 308 308 308 308 308 309 310 310 310 312 311 309 310 308 308 309 307 308 310 310 312 312 313 315 315 316 317 316 316 318
302 309 307 308 307 307 310 307 306 306 307 308 308 308 308 308 308 308 308 307 309 309 309 310 311 310 310 311 309 309 309 309 309 309 311 312 314 316 316 316 317 316 316 316 317
302 309 307 306 308 301 307 305 305 307 307 308 308 309 309 308 308 308 308 308 308 309 309 310 311 312 310 309 309 310 310 310 311 310 310 310 312 314 315 315 316 316 315 317 318
303 304 306 303 308 305 304 305 305 307 307 307 307 308 308 309 309 308 308 308 308 308 309 309 310 309 309 310 310 310 310 310 310 312 313 312 311 313 314 315 314 315 314 315 318
301 307 302 302 302 303 303 304 305 305 306 307 308 307 308 309 308 309 309 307 307 308 308 309 310 309 310 309 309 311 310 310 312 312 311 312 313 313 313 314 314 314 314 314 316
301 302 301 305 301 301 303 303 305 306 306 305 307 308 307 309 307 307 308 308 308 307 308 309 310 310 309 310 310 310 310 310 310 311 312 311 311 312 313 314 314 313 313 314 315
303 301 301 301 300 303 303 305 305 306 304 305 306 307 307 307 307 307 307 308 310 308 308 309 310 310 310 309 309 310 309 309 310 310 311 311 311 311 311 311 312 313 314 315 317
303 301 299 302 301 302 303 304 304 303 304 305 305 306 307 307 306 306 306 306 307 308 308 309 309 309 308 308 310 310 310 310 310 311 311 312 311 311 311 312 313 313 317 319 323

GFSSW_850_thetae_048.txt.gz
Theta_e
300 300 300 299 300 300 300 300 300 301 301 301 301 301 301 301 302 304 307 306 303 304 306 308 311 319 323 326 324 324 326 327 325 323 323 322 324 324 325 329 331 332 334 333 334
300 300 300 300 300 300 300 300 300 300 301 301 301 303 303 303 303 307 308 307 304 304 305 309 310 315 320 322 326 328 328 328 326 325 323 322 323 325 327 327 331 331 331 330 334
300 300 300 300 300 301 300 301 303 303 303 303 304 304 303 304 307 310 307 307 309 308 310 310 311 312 318 323 323 327 330 328 328 325 323 322 323 324 326 329 332 331 332 330 330
300 300 300 300 300 301 302 303 303 303 303 303 303 304 304 304 308 307 307 306 304 304 311 313 312 312 318 322 323 326 327 327 328 327 324 324 323 324 324 325 328 329 328 329 330
300 300 300 301 300 302 303 304 304 303 304 305 305 304 303 308 307 308 309 308 308 308 307 311 314 313 316 319 321 324 325 326 326 327 328 327 326 327 327 326 326 327 328 329 330
300 300 300 301 301 301 303 304 304 303 304 305 304 302 308 310 308 309 308 308 310 309 309 307 312 314 314 315 318 321 322 323 324 325 326 327 328 328 328 329 329 330 330 329 329
300 300 301 302 301 302 302 304 303 303 302 304 303 305 310 309 307 308 309 310 309 310 310 309 308 311 315 316 314 316 319 321 324 325 325 326 328 329 327 327 328 329 329 328 328
300 301 301 302 302 302 302 303 303 304 303 305 304 308 310 307 307 309 309 310 309 309 309 309 308 307 310 314 316 316 318 319 321 323 324 325 329 329 327 327 328 328 328 328 328
300 300 301 302 302 302 302 303 304 303 304 305 310 310 310 308 307 308 309 309 309 309 309 308 308 308 308 313 316 317 318 319 320 321 322 323 327 327 326 326 328 327 327 327 327
301 300 301 302 303 303 304 303 304 304 305 306 307 311 309 308 307 307 308 308 309 309 309 310 309 311 311 311 314 316 318 318 319 321 321 322 323 324 325 324 326 326 326 326 327
301 301 300 302 304 305 305 308 309 310 308 309 309 308 308 307 307 307 307 308 309 309 311 311 311 311 311 311 312 314 316 318 318 319 320 322 323 323 323 323 325 325 325 325 325
299 301 301 301 305 307 307 308 308 307 309 308 308 308 308 307 308 308 307 308 309 311 311 311 311 311 310 310 311 312 315 317 318 318 320 320 322 323 323 324 323 324 324 324 324
298 301 302 301 304 307 307 308 308 308 310 308 307 307 308 307 308 308 307 308 309 309 310 310 311 311 310 310 310 311 312 315 317 317 319 320 321 322 322 323 322 322 322 322 322
298 300 303 301 305 307 309 308 308 307 312 308 309 309 308 308 308 307 307 308 309 309 310 310 310 310 310 310 310 310 311 312 314 317 319 320 321 321 322 322 322 321 321 321 322
299 302 303 301 305 309 309 308 307 308 312 308 309 307 307 308 308 308 307 308 310 310 310 310 310 310 311 311 310 310 310 312 314 316 317 317 319 320 321 321 322 323 321 321 321
302 304 303 304 308 309 308 307 308 312 311 308 308 309 309 308 308 308 308 307 309 311 311 311 311 311 311 312 312 310 310 311 313 315 318 318 319 319 320 321 321 322 320 320 319
303 306 307 307 310 309 308 308 312 312 308 309 309 310 310 309 309 308 309 309 311 312 310 311 311 312 313 312 311 309 311 312 312 314 316 316 317 318 319 319 320 319 319 319 320
304 308 308 308 308 307 309 310 311 308 309 309 310 310 309 309 309 309 309 309 310 311 312 312 311 312 310 313 311 309 310 312 312 313 313 315 316 318 318 318 318 318 319 319 322
304 309 310 309 308 307 310 311 311 309 309 310 310 310 310 309 309 309 310 309 310 311 312 311 311 310 311 312 314 313 310 311 311 313 313 314 315 316 317 317 319 319 318 320 320
303 311 310 309 308 309 311 309 309 308 309 310 310 309 310 310 310 309 309 309 309 309 310 311 313 310 312 310 312 313 311 310 310 312 313 314 316 316 318 316 318 320 320 320 321
307 311 309 308 306 309 312 309 308 308 307 310 310 310 310 310 309 309 309 309 309 309 310 310 312 311 310 311 313 310 310 310 311 310 312 314 315 317 317 318 320 320 319 319 320
307 310 308 303 309 308 308 306 305 308 309 309 309 310 310 309 310 309 309 309 308 309 311 310 312 312 311 310 311 311 312 312 312 313 313 314 317 318 321 320 319 318 318 318 318
306 306 306 303 310 306 306 307 307 308 308 308 309 309 309 310 310 310 309 309 308 309 310 312 312 313 311 312 311 312 311 312 314 314 316 314 314 318 317 317 316 317 317 317 316
304 309 308 305 305 304 305 307 308 307 307 308 308 308 309 310 309 309 309 308 308 308 308 309 312 312 313 311 311 311 311 311 313 315 313 314 315 316 317 316 317 316 317 316 315
304 307 305 310 309 306 306 306 307 308 307 307 308 309 308 309 309 310 308 309 308 308 310 310 312 311 311 311 311 311 311 312 312 312 313 313 313 314 315 315 315 315 314 314 316
304 305 305 305 306 307 306 307 306 307 306 307 307 307 307 307 307 309 309 310 310 310 310 311 312 311 311 311 311 311 310 311 311 311 312 312 313 313 313 313 313 313 314 314 316
302 303 301 304 306 307 307 306 305 306 306 306 307 307 308 309 308 308 308 308 309 310 310 311 311 311 312 309 310 311 311 311 311 311 311 312 312 313 314 314 314 313 313 315 317

GFSSW_850_thetae_051.txt.gz
Theta_e
300 300 300 300 300 300 300 300 300 300 301 301 301 302 302 302 302 310 312 310 310 307 306 310 313 314 320 322 325 327 330 330 329 328 327 325 325 324 325 327 329 335 337 337 338
300 300 300 300 300 301 300 301 302 303 303 303 302 303 303 303 304 311 310 307 306 305 310 311 312 314 319 323 326 328 331 330 329 328 328 326 325 325 326 328 329 334 334 334 337
300 300 300 300 300 301 302 303 303 303 303 303 303 303 303 303 314 314 306 306 305 307 310 312 312 314 316 321 324 328 332 330 329 328 328 326 325 325 326 328 330 333 334 334 334
300 300 300 301 300 301 302 303 303 302 303 304 304 303 303 308 314 311 309 309 307 306 310 312 313 314 317 319 322 326 327 328 329 329 329 329 325 325 326 326 328 331 334 334 333
300 300 300 301 301 301 302 303 303 303 302 303 303 303 310 313 311 309 309 311 312 311 310 310 315 316 317 318 319 323 325 326 326 327 328 329 328 328 327 326 326 327 332 332 331
300 300 301 302 301 302 302 303 303 303 303 303 303 305 314 314 309 310 310 311 312 312 312 311 310 313 316 318 319 320 322 323 324 326 327 329 329 329 329 328 327 326 327 329 331
300 300 301 302 302 302 302 302 303 303 304 303 304 308 314 311 310 310 311 311 312 311 312 312 311 310 315 318 317 318 319 321 322 324 326 327 328 329 328 328 329 329 329 330 332
301 300 300 301 302 302 303 303 303 304 303 305 306 313 314 309 309 309 310 311 311 311 311 311 311 311 311 311 314 318 320 320 321 322 323 325 328 328 327 328 328 329 329 329 331
300 301 301 301 302 303 305 304 304 304 305 305 315 313 313 309 309 308 309 310 309 310 311 311 311 311 312 312 312 314 319 320 320 321 322 323 326 327 327 327 329 329 329 329 329
298 301 301 301 302 304 305 308 309 307 309 312 311 314 312 309 309 308 309 309 309 310 311 311 312 314 314 313 312 313 315 317 320 321 321 322 323 324 324 326 328 328 329 329 329
299 299 301 301 302 305 306 312 313 315 312 311 310 310 309 309 308 309 309 308 310 311 313 313 314 315 315 315 315 314 314 315 318 319 320 321 323 323 324 324 326 327 328 329 329
305 298 301 302 301 305 310 311 310 310 311 310 310 309 309 309 309 309 309 309 311 312 312 312 313 314 314 314 313 313 314 314 315 317 320 321 322 322 324 325 324 325 326 327 328
307 300 302 303 301 308 310 310 310 310 312 311 309 309 309 309 310 309 309 309 311 311 311 311 312 312 312 312 313 313 312 313 315 316 318 321 321 322 323 323 324 324 324 325 326
307 301 303 302 308 309 312 310 310 310 315 312 311 310 309 309 311 309 309 309 310 311 311 311 311 311 311 311 312 312 313 312 313 314 316 319 322 322 323 324 324 324 324 324 325
307 302 303 301 310 312 311 310 310 311 319 311 311 309 309 310 310 310 309 309 310 310 311 311 311 311 312 312 312 313 313 313 313 313 314 315 320 321 323 323 324 325 323 323 323
307 303 305 307 310 311 310 310 311 317 316 311 310 311 311 311 311 310 310 309 309 310 312 312 312 312 312 313 312 313 313 313 312 313 315 315 318 320 321 323 323 324 323 323 323
307 304 307 308 313 310 310 311 316 317 312 312 311 311 312 312 311 311 311 311 311 311 312 311 312 312 312 313 314 314 315 314 312 314 314 315 318 319 320 321 322 322 322 323 322
307 306 310 311 311 310 311 315 316 313 312 312 312 312 313 311 311 311 312 312 311 311 312 312 313 312 312 312 313 313 314 313 312 314 314 314 315 318 320 321 320 321 320 321 322
307 312 313 313 311 309 312 316 315 313 311 312 312 313 312 312 312 311 312 311 311 311 311 312 312 312 312 313 313 315 315 314 312 312 314 316 317 317 320 320 320 321 320 321 322
307 312 314 311 311 310 314 314 311 311 311 311 312 312 312 312 311 311 311 311 310 311 311 312 314 311 312 314 314 315 315 316 313 314 314 315 316 318 318 319 320 321 322 322 323
311 311 312 308 309 312 315 312 310 309 309 311 312 312 312 312 312 312 311 311 311 311 311 312 313 313 311 313 315 313 315 314 316 314 315 316 316 317 319 319 320 322 322 321 321
310 314 311 306 312 311 312 308 307 310 310 311 311 311 311 311 311 312 311 311 310 310 311 312 313 313 312 312 312 314 315 313 315 313 314 314 315 317 319 321 322 322 321 320 320
308 310 309 308 314 313 310 309 309 310 311 310 310 310 311 310 313 313 312 310 310 310 312 312 313 314 312 313 314 314 315 313 314 316 319 318 317 318 321 322 321 320 319 320 318
308 312 310 309 310 310 311 311 310 309 309 309 310 310 310 311 311 312 312 311 310 310 310 310 313 312 316 312 312 314 314 313 313 315 316 314 315 317 317 319 319 318 318 318 317
310 310 309 310 310 310 312 312 309 310 310 309 311 310 310 310 311 311 311 311 311 311 311 312 315 313 313 312 312 311 311 312 313 313 314 314 314 315 316 317 318 316 316 316 317
307 307 306 306 308 310 309 310 309 309 309 309 311 310 310 309 309 311 311 312 313 313 313 313 315 313 312 312 311 311 312 311 312 312 312 313 313 314 314 314 315 315 315 316 316
304 304 304 305 309 310 311 310 310 309 307 308 309 310 311 310 309 309 310 311 312 313 314 313 314 315 315 313 314 313 312 312 312 312 312 312 313 314 314 314 315 315 315 316 317

GFSSW_850_thetae_054.txt.gz
Theta_e
300 300 300 300 300 300 300 300 301 302 302 302 302 302 302 302 302 305 313 314 312 311 310 308 311 314 316 320 322 324 329 332 330 329 329 328 327 326 325 325 326 329 333 339 340
300 300 300 300 300 301 301 302 303 303 302 303 303 303 303 303 303 313 311 310 308 308 305 312 311 313 315 318 321 323 328 329 329 329 329 328 328 327 326 326 326 328 333 335 338
300 300 300 301 301 301 302 303 303 302 302 303 304 303 303 303 317 314 313 307 305 305 307 312 314 314 315 317 320 323 327 328 328 329 329 329 328 327 326 327 326 329 331 335 335
300 300 300 301 301 301 302 302 303 303 302 302 303 303 303 309 317 315 309 308 311 311 313 312 313 314 316 317 317 321 324 326 327 328 329 330 330 330 328 326 326 327 330 334 335
300 300 300 301 302 301 302 302 303 303 303 303 303 305 311 319 313 311 311 312 313 314 313 312 312 315 317 317 318 319 320 322 324 326 328 328 329 330 330 327 326 326 327 331 335
300 300 300 301 302 302 302 302 302 303 304 303 303 306 316 319 311 311 312 313 313 313 313 314 313 312 313 316 319 318 319 320 321 323 325 327 328 328 329 329 329 328 327 328 334
300 301 300 300 302 302 302 303 304 303 304 304 304 306 317 314 311 311 312 312 312 313 312 313 313 313 313 314 316 317 319 320 321 321 323 324 326 328 329 329 329 330 329 328 328
298 299 301 301 301 302 303 304 304 304 304 306 306 308 319 311 310 311 310 311 312 311 312 312 312 313 312 313 314 314 317 319 320 320 321 322 324 326 325 328 329 329 330 330 329
301 299 300 301 301 302 304 304 308 308 305 305 316 315 316 311 311 309 310 311 310 310 311 311 312 312 313 314 314 314 313 315 317 320 320 321 322 325 325 326 328 329 329 329 330
307 304 299 301 301 302 303 306 312 311 313 316 315 314 315 312 310 309 310 310 310 311 312 314 313 315 316 315 313 314 314 314 314 316 318 321 322 323 323 323 326 328 330 329 329
307 308 300 301 302 302 310 314 314 317 317 314 312 312 311 311 310 310 311 310 311 312 313 313 313 314 316 317 317 316 315 316 316 316 316 318 321 323 324 324 324 325 327 329 330
307 308 301 303 303 302 311 314 311 311 312 312 312 311 310 310 310 311 310 310 311 312 312 312 313 314 314 315 315 315 315 314 314 315 316 317 317 320 323 324 324 325 325 326 328
307 308 302 303 305 312 312 312 311 312 313 314 312 311 311 310 311 311 311 310 311 311 312 312 312 313 312 312 313 314 314 314 314 314 314 315 317 319 320 323 323 323 325 325 326
306 307 304 303 313 311 314 312 311 312 315 314 312 312 310 310 312 311 310 310 310 311 311 311 311 312 312 312 312 313 313 313 313 313 313 314 316 320 320 322 324 323 324 326 326
303 307 305 304 304 314 311 312 311 313 325 313 312 311 311 311 312 313 311 310 311 311 311 311 312 313 313 312 313 313 313 313 313 314 314 314 314 315 318 321 324 325 323 325 324
302 307 307 314 314 313 311 312 314 320 321 313 312 312 312 313 313 312 311 311 311 312 312 312 312 313 313 314 314 314 313 313 313 315 315 314 314 315 316 319 321 325 324 324 324
302 306 307 307 313 311 311 313 318 319 314 314 313 313 312 313 313 313 312 312 312 312 311 312 311 313 313 314 314 313 315 318 316 316 317 314 314 315 317 318 319 322 324 324 324
304 306 310 311 312 311 311 316 319 317 314 313 313 313 314 314 313 312 313 312 313 312 311 311 311 311 313 313 312 313 312 313 314 315 314 313 315 317 318 318 317 320 322 322 322
304 314 314 315 312 311 312 318 318 314 313 312 313 313 313 313 312 312 312 312 312 312 313 313 312 312 311 312 312 313 313 314 316 316 316 315 313 315 317 318 320 321 321 322 322
310 314 315 313 311 310 314 317 315 313 311 312 313 313 313 312 312 312 312 312 312 312 312 313 313 311 312 311 313 315 315 317 317 317 317 313 312 313 317 318 319 321 322 321 322
312 315 314 312 310 313 319 315 313 310 309 312 313 312 312 312 312 312 312 312 313 313 312 312 313 313 312 312 313 313 315 314 315 318 318 315 312 317 318 321 320 323 322 322 323
312 315 313 309 313 315 314 311 309 310 311 312 312 312 312 312 312 312 312 313 312 312 312 312 313 313 312 313 313 314 313 316 319 317 316 315 317 317 317 319 318 319 322 323 322
312 312 312 310 317 314 312 312 312 311 311 312 312 312 311 312 313 312 313 312 312 312 312 313 312 313 312 312 313 312 313 313 314 317 318 317 316 315 316 316 315 316 321 321 320
312 315 313 310 312 313 313 313 313 311 311 311 311 311 312 312 312 312 313 312 312 311 312 312 313 313 315 313 313 314 314 315 315 317 315 313 313 314 315 315 314 315 317 320 318
311 314 312 313 311 311 312 313 313 312 311 311 311 312 312 312 311 312 312 312 311 312 313 313 315 314 313 313 312 312 313 313 315 315 312 313 313 315 315 315 314 315 316 317 317
309 308 307 308 309 311 313 313 314 312 312 312 311 311 311 311 311 312 312 312 313 313 314 314 316 315 315 314 313 313 313 313 313 312 311 311 312 314 315 314 315 314 315 316 317
305 306 305 306 310 310 312 310 311 311 310 309 310 311 311 311 311 311 311 311 313 314 315 315 314 315 314 313 314 315 314 314 316 315 314 316 316 316 316 316 316 315 316 316 317

GFSSW_850_thetae_057.txt.gz
Theta_e
300 300 300 300 300 300 301 301 302 302 302 302 302 303 302 302 302 302 305 313 313 313 312 311 309 311 316 317 321 322 322 329 330 329 329 328 326 328 327 326 326 325 336 339 340
300 300 300 300 301 300 301 302 303 302 302 303 304 304 303 303 303 304 310 312 312 309 308 310 312 311 313 315 316 320 320 322 326 327 328 327 327 327 327 325 325 325 330 335 339
300 300 300 301 301 301 301 302 302 303 302 302 302 303 303 302 316 314 314 310 306 306 305 308 312 313 314 314 315 319 321 321 323 325 327 327 328 328 328 324 326 326 326 334 335
300 300 300 301 301 302 302 302 302 303 303 303 303 303 305 307 317 314 310 309 312 312 312 313 312 312 313 312 315 315 317 321 322 323 324 325 327 328 328 329 328 327 326 326 327
299 300 300 300 301 302 302 302 302 303 303 304 303 304 312 319 318 311 311 312 313 314 314 314 313 312 311 313 314 314 315 317 319 322 323 324 325 326 328 328 328 329 328 327 327
298 299 300 301 301 301 302 302 304 304 303 304 304 304 312 319 311 311 312 313 313 312 312 313 314 313 313 311 310 313 314 316 318 318 320 322 323 324 326 327 327 329 329 329 329
302 300 299 301 301 301 302 302 304 304 304 304 305 305 312 317 311 311 311 311 311 312 313 312 313 312 313 311 313 312 312 313 316 317 317 319 320 321 323 325 327 328 328 328 329
307 306 301 300 301 301 302 303 303 309 305 305 305 307 314 311 310 311 309 310 311 311 310 311 312 312 312 312 312 311 311 311 315 317 318 318 317 319 321 323 324 328 328 328 329
307 307 307 300 301 301 302 302 304 310 307 307 312 317 318 313 311 310 309 311 310 310 311 311 312 312 312 311 309 310 310 310 312 313 314 316 318 318 319 321 323 323 324 329 328
306 307 307 301 301 302 304 311 314 313 312 317 311 315 315 314 311 310 310 311 310 310 312 313 313 310 310 310 311 311 310 311 311 312 312 312 313 316 319 320 320 323 325 327 328
302 307 307 302 302 302 312 314 312 317 312 318 317 317 312 311 310 310 311 310 310 311 311 312 309 308 310 311 313 314 314 314 314 314 312 312 313 314 315 315 318 320 321 322 328
300 306 306 303 303 305 312 313 311 311 312 312 312 312 312 310 310 311 311 311 310 309 310 309 309 311 311 311 311 311 312 313 313 314 313 312 312 313 313 314 316 317 320 321 321
307 304 305 307 311 312 313 313 311 312 311 312 313 312 312 310 311 311 312 311 310 309 309 309 310 311 311 310 311 310 310 311 312 312 312 312 312 312 313 314 315 317 318 321 321
309 303 305 304 313 312 313 312 312 311 311 315 311 311 311 310 311 311 311 310 310 309 309 309 309 311 311 312 312 312 312 312 312 311 310 312 312 311 312 313 314 316 318 320 321
310 303 305 310 311 313 311 312 313 312 321 313 312 312 311 311 312 312 311 310 310 310 310 309 310 310 311 312 313 313 313 312 312 312 311 311 311 312 312 313 313 313 315 316 321
309 304 306 314 313 313 311 311 313 317 321 312 312 312 312 312 313 313 312 311 311 310 310 310 311 312 312 313 313 313 311 312 312 311 312 311 311 312 312 312 313 313 315 315 317
308 306 305 307 313 312 311 313 315 320 315 313 312 312 311 312 313 313 312 311 310 311 311 310 310 310 313 314 312 310 310 311 313 312 312 312 313 313 313 312 313 314 315 315 316
305 313 307 313 312 312 311 313 320 318 313 312 312 312 312 313 313 313 312 311 313 312 311 311 312 312 313 313 312 311 311 313 313 310 310 313 314 312 313 314 314 314 315 316 316
310 313 315 315 312 310 311 315 318 314 312 311 311 312 313 312 311 311 311 311 312 312 312 313 312 312 312 311 310 310 311 311 313 312 313 313 313 313 313 315 317 317 316 316 317
312 314 315 313 313 311 312 316 316 311 310 310 310 313 312 312 311 311 311 312 313 313 311 313 313 311 311 311 310 312 311 312 312 316 316 315 314 315 317 317 315 314 314 315 317
312 315 315 313 309 313 315 316 314 311 310 311 312 313 312 311 311 311 311 311 313 312 311 310 312 312 311 311 312 313 313 313 315 314 315 315 314 316 316 315 315 314 314 316 318
313 314 315 310 312 316 315 312 312 312 311 311 312 312 311 312 311 311 312 313 312 312 312 312 311 312 312 310 312 311 314 314 316 315 317 318 316 315 313 314 314 313 314 317 319
312 313 313 312 315 312 313 312 312 312 312 311 311 311 311 311 312 312 312 312 312 312 313 312 311 311 311 310 312 312 312 312 312 313 315 316 314 315 314 313 313 313 314 317 318
313 314 313 312 311 310 310 311 312 312 312 311 311 311 311 312 311 312 311 311 311 312 312 313 312 312 312 312 311 312 312 312 312 314 314 314 314 313 315 315 314 313 315 316 317
311 313 308 310 310 309 310 312 313 313 312 311 311 311 309 311 311 310 310 311 312 311 313 313 314 314 313 314 314 313 313 313 312 312 313 315 314 314 314 315 314 313 314 314 314
308 307 306 306 309 309 311 313 311 311 310 311 310 310 310 309 310 311 312 311 311 312 313 312 315 314 315 314 313 314 313 313 313 315 315 316 315 313 315 313 313 313 314 313 314
305 306 307 306 308 308 308 308 309 309 310 310 309 308 309 309 310 310 311 310 310 310 311 313 313 312 313 312 314 313 316 316 316 315 315 317 315 314 316 315 314 314 314 316 322

GFSSW_850_thetae_060.txt.gz
Theta_e
300 300 300 300 301 301 301 301 302 302 302 302 303 303 303 303 302 303 303 305 310 313 313 312 311 311 314 316 320 321 318 327 330 330 329 328 327 328 327 328 328 325 335 339 339
300 300 300 300 301 301 301 301 302 302 302 302 302 302 303 303 303 307 305 312 312 310 308 306 311 310 311 314 316 318 317 320 325 327 327 327 326 326 327 327 327 327 330 337 337
299 300 300 300 301 301 301 302 302 302 302 303 303 303 304 304 315 315 314 312 307 306 306 305 310 312 312 312 314 315 318 320 321 322 323 323 324 325 325 326 327 327 327 326 331
299 299 300 300 300 301 301 302 302 303 303 303 303 303 309 313 315 311 311 313 312 313 313 310 311 311 312 312 313 312 314 317 320 320 321 321 322 323 324 325 325 326 328 327 326
302 300 300 300 301 301 301 302 302 304 303 303 304 303 309 318 317 311 312 312 313 313 313 313 314 312 310 311 312 311 313 314 315 316 319 321 322 323 322 323 324 325 326 327 329
307 306 302 300 301 301 301 302 302 304 305 303 304 304 307 318 311 311 311 312 312 312 312 312 312 312 312 311 310 311 311 312 313 314 315 316 318 320 320 321 322 323 325 326 327
307 307 307 303 300 301 301 302 302 304 308 304 305 305 305 310 311 310 310 309 310 312 312 311 312 311 312 310 312 311 310 310 312 313 314 316 317 317 319 319 320 321 323 325 327
302 306 307 307 300 301 301 302 302 303 308 305 305 308 308 311 310 310 309 310 310 310 310 310 310 312 312 311 311 310 310 309 312 312 314 316 316 317 318 318 318 319 321 323 324
302 302 307 306 301 302 302 304 311 310 311 310 310 317 316 316 311 310 310 310 310 310 310 311 311 312 311 310 308 308 309 310 311 311 311 312 313 314 315 317 318 319 319 321 322
308 301 306 304 302 303 309 313 312 314 312 316 312 314 314 314 311 311 310 310 310 310 310 312 311 309 306 308 310 310 309 309 311 312 312 311 311 312 313 314 314 314 315 318 320
310 303 306 303 303 305 312 312 310 315 310 311 314 317 314 311 310 311 311 310 310 310 309 309 307 306 308 308 311 311 311 310 311 312 312 311 311 312 312 313 312 313 313 314 315
310 305 307 306 308 309 312 312 311 310 310 311 311 311 311 311 310 311 311 310 310 308 308 306 307 309 309 309 309 309 308 308 310 311 311 310 311 312 312 311 312 313 313 314 315
310 307 307 308 312 312 312 312 312 312 309 311 313 312 312 312 310 310 311 311 309 308 308 307 308 309 309 309 311 310 310 311 312 312 310 310 310 310 311 311 312 313 313 313 314
310 307 306 304 310 311 311 312 311 313 310 315 311 311 311 310 310 311 311 310 309 308 308 307 308 309 309 311 311 311 312 312 312 311 310 310 311 310 310 311 311 312 312 313 313
310 305 306 312 312 313 312 311 311 313 314 313 311 312 311 310 311 312 311 310 308 308 308 308 309 308 309 312 312 312 312 310 311 311 310 311 309 310 310 311 311 311 312 312 313
310 303 306 311 313 312 311 311 313 314 315 311 311 311 310 310 311 312 311 311 311 308 308 308 310 311 312 312 313 311 310 309 309 309 311 309 310 310 310 310 311 312 312 313 314
307 309 305 309 312 310 309 313 312 316 315 312 310 311 310 311 312 312 311 310 308 310 309 309 309 312 312 311 310 308 309 308 309 310 311 310 309 309 310 311 312 313 315 315 315
308 311 305 311 311 311 310 311 317 315 311 311 310 310 311 311 311 311 310 309 311 310 310 311 310 311 311 311 310 309 308 309 314 311 310 311 311 310 310 312 315 314 314 313 313
310 315 316 315 314 309 313 312 313 310 309 309 309 311 311 311 310 310 309 311 311 310 310 311 312 311 311 311 309 308 310 308 311 310 312 311 311 310 315 315 315 314 313 313 313
314 315 315 313 312 313 310 314 315 311 310 310 310 312 312 310 310 310 310 312 313 311 309 310 311 310 311 310 310 310 310 310 309 313 314 313 312 312 316 315 314 312 312 313 313
313 315 315 313 311 314 309 314 313 312 311 311 311 311 311 310 310 310 311 311 312 312 309 310 310 311 310 310 310 309 310 311 310 311 310 316 314 312 314 314 313 311 312 313 313
313 310 314 310 310 310 311 311 311 312 311 311 310 311 310 310 310 310 310 311 312 311 312 311 310 311 311 310 310 309 311 311 309 311 315 315 313 312 313 312 312 312 313 314 316
312 313 313 311 308 306 308 310 310 312 312 310 310 310 309 309 310 311 311 311 311 311 311 310 309 312 310 308 310 311 311 311 312 313 314 315 312 312 313 312 312 313 314 314 314
312 308 311 311 309 307 307 309 311 312 312 310 310 309 309 308 309 311 311 311 311 311 313 312 309 311 311 310 308 311 312 312 312 313 312 312 312 312 313 313 312 314 314 314 315
308 307 305 304 306 305 307 308 310 311 309 309 309 309 309 308 308 309 309 311 310 311 311 310 312 312 313 313 313 314 314 314 314 313 313 313 315 313 313 314 312 314 315 314 315
306 306 306 305 306 306 306 308 308 309 308 308 309 309 307 307 307 308 308 309 309 309 309 308 310 313 314 313 313 312 311 315 314 316 315 314 314 312 313 313 314 314 315 315 315
303 304 306 304 304 304 304 306 306 306 307 307 306 306 307 307 308 308 309 309 309 309 308 308 309 310 313 312 312 313 315 315 314 315 314 315 313 311 312 312 312 312 313 317 316

GFSSW_850_thetae_063.txt.gz
Theta_e
299 300 300 300 300 301 301 301 301 302 302 302 302 302 302 303 303 302 303 303 307 310 312 311 311 311 312 314 318 320 319 326 327 326 325 326 326 327 326 326 326 327 327 328 337
299 299 300 300 300 301 301 301 302 302 302 302 303 303 303 304 306 311 307 308 311 310 309 307 310 310 309 313 317 317 317 321 325 326 327 326 324 324 324 324 325 326 327 327 335
301 299 299 300 300 300 301 301 302 302 303 303 303 303 304 310 314 310 311 310 307 310 307 305 307 311 311 311 314 314 317 320 321 321 322 321 322 322 321 322 324 324 324 325 328
306 305 302 300 300 300 301 301 301 302 303 303 303 303 308 317 314 312 312 312 312 313 313 309 311 311 310 310 312 311 313 315 317 317 318 319 320 320 321 321 322 323 323 324 326
305 307 307 305 301 300 301 301 301 302 304 304 303 303 309 316 311 312 312 312 312 312 312 313 312 312 309 309 310 311 311 312 313 313 314 315 318 318 318 319 319 320 321 322 323
302 302 306 307 306 300 301 301 301 302 305 306 304 304 306 313 311 311 311 311 311 312 312 312 312 312 311 310 310 310 310 310 311 312 312 313 314 315 317 317 318 318 319 320 321
306 303 302 306 306 301 301 301 301 302 305 306 304 304 305 307 310 310 310 309 309 310 312 311 311 311 311 310 310 311 309 309 311 312 312 315 314 315 316 317 317 318 318 318 319
309 307 302 306 304 301 302 301 302 303 306 308 306 309 307 313 310 310 309 309 310 309 311 310 310 311 311 310 309 309 307 308 309 311 312 314 315 315 314 315 315 314 316 316 318
309 309 303 306 303 302 303 309 311 313 312 309 311 316 315 315 311 310 310 310 310 310 310 310 310 311 310 308 307 306 308 309 310 310 310 312 310 311 313 313 313 313 313 313 314
308 310 303 305 303 305 311 310 312 313 312 315 314 314 313 313 311 310 310 310 310 310 310 311 310 307 304 306 309 310 310 309 309 311 311 310 310 311 312 312 313 313 313 313 313
309 310 304 305 307 310 312 311 310 312 310 310 311 312 316 312 310 311 311 310 310 309 307 308 305 306 307 306 309 310 310 309 309 310 309 309 310 310 311 311 311 312 312 312 313
309 311 304 307 311 312 313 312 311 311 310 311 310 311 312 312 311 310 311 310 309 308 307 305 306 307 308 308 308 308 308 309 309 311 311 309 310 310 310 310 311 311 312 312 312
309 310 305 307 312 312 312 311 311 312 309 311 312 312 311 311 311 310 310 310 309 307 307 307 307 308 308 308 310 310 311 311 311 311 310 309 310 309 310 310 311 311 312 312 312
309 310 305 305 311 311 311 311 311 312 310 315 311 311 312 310 309 311 310 310 308 307 307 307 307 308 308 308 311 310 311 311 310 310 309 310 310 309 309 309 309 310 311 312 312
309 308 305 309 313 312 311 311 311 313 311 314 310 311 311 309 311 311 311 310 308 307 307 308 308 307 308 311 311 310 311 309 310 309 309 310 309 309 309 309 308 309 310 311 312
308 305 306 312 312 311 310 311 313 311 313 311 310 310 310 310 310 310 310 310 309 307 307 307 308 309 311 311 312 310 309 307 307 307 309 309 309 309 307 308 308 309 311 314 314
307 310 306 312 311 311 309 313 312 312 312 310 309 308 309 310 310 311 310 309 308 310 309 309 308 311 311 310 308 307 306 305 307 308 311 308 309 308 309 309 309 313 314 314 313
311 306 308 309 313 310 312 310 315 313 309 309 309 308 310 309 310 310 309 309 310 309 309 309 309 310 310 310 309 308 306 306 311 311 308 308 309 308 309 313 314 314 314 313 312
314 309 314 314 312 310 312 312 309 309 309 309 309 311 310 310 309 309 309 311 311 309 310 310 311 310 310 310 308 308 308 306 308 308 309 309 309 308 309 314 313 313 313 312 312
315 315 314 313 312 311 309 314 314 313 310 310 311 311 311 310 310 309 309 311 311 310 308 309 311 310 310 309 308 306 307 310 306 312 313 310 310 310 310 310 311 312 312 311 313
313 314 314 311 310 314 308 312 313 311 311 310 310 310 310 310 309 309 309 309 311 311 309 309 308 310 310 308 307 307 308 310 308 306 308 311 312 310 310 311 312 311 312 312 314
312 309 313 311 311 306 309 310 310 310 311 310 309 310 309 309 309 309 309 310 311 311 311 309 308 310 310 309 308 307 308 309 308 308 311 315 313 310 308 310 310 311 311 313 314
312 312 313 312 306 304 305 308 309 311 311 310 309 309 308 308 308 309 311 311 310 310 310 309 308 311 308 307 307 310 311 310 310 310 313 313 311 309 309 310 311 311 312 314 315
310 306 310 310 307 306 306 307 310 309 310 309 309 309 308 308 307 309 311 310 310 310 311 311 307 311 312 309 306 310 311 312 312 315 312 312 311 311 310 312 312 312 312 315 313
305 304 304 302 303 303 305 307 308 308 308 308 308 308 308 308 307 307 308 307 308 309 310 310 310 309 310 310 311 312 313 313 313 313 315 313 312 312 311 311 311 312 313 313 315
304 304 304 304 304 304 304 306 307 307 307 307 306 306 306 305 306 306 306 306 307 308 309 306 309 310 312 312 312 313 312 311 311 314 315 314 314 312 311 310 311 311 311 312 316
300 303 305 302 302 303 302 305 305 305 305 306 305 304 305 305 307 306 306 307 307 308 306 307 308 307 311 310 311 313 312 313 314 314 314 314 313 311 311 310 310 309 309 311 310

GFSSW_850_thetae_066.txt.gz
Theta_e
300 299 299 300 300 300 301 301 301 301 302 302 302 303 303 303 304 304 304 303 305 304 307 309 311 312 310 312 317 319 322 325 324 324 324 325 325 325 325 325 323 325 325 324 324
305 303 301 300 300 300 300 301 301 302 302 303 303 303 303 308 312 311 310 305 310 311 310 310 310 310 309 312 316 317 318 319 323 324 324 324 324 323 322 321 321 323 323 322 323
305 306 306 304 302 300 300 300 301 301 302 303 303 303 305 315 313 310 311 308 309 310 307 307 306 310 309 311 313 314 317 318 320 321 321 320 319 320 320 321 321 321 321 321 322
303 303 305 306 306 302 300 300 301 301 302 304 303 303 308 316 310 311 312 312 312 312 312 308 309 310 308 309 311 311 312 316 317 318 316 316 316 317 317 318 318 319 319 319 319
308 305 303 304 307 305 301 301 300 301 302 306 304 304 308 313 311 311 312 311 312 312 312 312 312 310 308 308 309 310 310 311 312 312 313 314 313 314 315 315 317 318 318 318 319
308 308 306 303 306 305 301 301 301 301 302 306 304 304 305 308 311 310 310 310 309 309 312 312 311 311 310 310 309 309 310 310 311 312 312 313 313 313 315 316 316 316 317 318 318
307 309 307 303 306 302 301 301 301 301 302 306 305 304 305 308 310 310 310 309 309 309 309 311 311 311 310 309 310 310 308 307 308 310 311 312 312 313 314 315 316 315 315 316 317
307 309 308 304 304 302 302 302 305 306 305 308 308 308 307 313 310 310 309 309 310 309 310 310 311 310 311 310 308 308 306 306 307 310 311 312 312 314 313 313 313 313 313 313 314
309 309 307 305 304 305 310 310 310 312 312 311 312 314 314 314 310 310 310 310 309 309 309 309 309 310 309 307 306 305 308 309 308 309 309 311 311 311 312 312 312 313 313 313 313
309 310 307 305 305 311 311 310 313 312 311 312 315 313 313 313 312 310 309 309 309 309 310 310 309 305 303 305 307 308 309 309 308 308 309 309 309 310 311 311 311 312 312 312 312
309 310 307 307 309 311 312 311 310 310 310 310 310 312 312 312 310 310 310 310 309 309 306 306 306 307 307 306 307 309 309 308 308 309 309 309 309 309 310 310 310 311 311 312 312
309 310 306 309 311 312 312 311 311 310 309 311 311 310 310 311 311 310 310 310 309 307 306 304 306 306 307 307 307 307 307 308 309 309 310 308 308 308 309 309 310 311 311 311 311
309 310 306 308 311 311 311 310 311 312 309 310 312 312 310 310 310 310 310 310 308 307 306 305 307 307 308 308 309 309 309 310 310 310 308 308 307 306 308 309 310 311 311 311 311
309 310 305 308 311 311 311 311 310 311 308 312 310 311 311 311 309 310 310 310 307 306 306 306 307 308 307 307 309 310 310 310 309 308 307 308 307 305 307 307 308 309 309 310 311
309 305 305 309 312 312 311 311 310 312 309 312 310 310 310 309 309 310 310 310 307 307 307 307 308 307 307 309 310 308 310 309 309 308 308 308 307 306 306 307 306 306 309 310 311
306 307 308 311 312 311 308 309 312 309 312 310 310 309 309 309 309 310 310 309 309 307 306 305 307 308 309 310 310 308 308 305 304 305 307 306 307 306 306 307 307 307 311 313 313
310 306 308 312 311 310 309 312 311 311 310 309 308 307 309 309 309 309 309 309 307 309 309 308 308 310 310 308 307 306 305 304 305 305 307 307 307 307 307 308 308 309 312 313 312
306 307 310 311 312 310 312 309 315 311 308 309 308 307 310 309 309 308 308 309 309 308 308 309 309 310 310 308 308 308 305 305 309 310 305 307 308 306 306 308 309 312 313 312 312
310 313 314 313 312 311 312 310 309 308 308 308 308 310 310 310 309 308 308 309 310 308 309 309 310 309 309 309 307 307 307 305 306 306 307 307 306 307 308 308 309 311 312 312 312
315 314 314 312 310 312 308 312 312 312 310 309 310 310 310 309 309 309 308 309 311 309 308 309 310 309 310 309 308 306 305 308 305 311 311 309 307 308 308 307 307 309 310 311 312
312 314 312 310 311 313 307 310 312 311 310 309 309 308 309 309 308 308 308 308 310 310 307 307 308 310 309 308 307 307 307 308 306 305 309 309 308 306 308 308 308 308 310 311 311
312 308 312 312 309 304 307 309 310 309 311 309 308 308 308 308 308 308 308 308 311 310 310 308 306 310 310 307 306 306 306 307 304 306 305 306 311 309 307 307 308 309 312 312 311
308 312 312 312 307 305 304 307 308 309 310 309 308 308 307 308 308 308 308 310 309 309 309 309 308 311 310 307 306 308 308 308 307 308 312 312 310 309 307 308 309 311 312 312 314
306 305 307 309 306 304 305 306 309 309 309 307 307 308 307 307 306 308 309 309 308 310 311 311 308 311 311 308 305 308 309 309 310 313 311 311 311 311 311 310 309 311 311 311 311
304 303 303 301 302 303 304 305 308 307 307 306 306 306 306 306 306 307 306 306 307 308 307 309 310 310 310 310 310 310 310 311 311 311 313 312 312 311 311 311 310 310 310 310 310
302 303 302 302 303 302 304 305 306 306 306 306 305 305 304 304 305 306 305 306 305 306 308 306 310 309 310 310 310 312 310 311 311 312 312 311 311 311 311 310 310 310 309 309 309
297 301 304 301 301 302 301 304 305 303 305 305 304 303 303 304 305 305 305 304 304 306 307 307 309 309 310 308 309 310 310 310 310 311 312 313 312 310 311 311 311 309 309 308 309

GFSSW_850_thetae_069.txt.gz
Theta_e
305 305 303 301 300 300 300 301 301 301 302 302 303 303 303 304 310 310 310 304 304 305 304 306 311 311 311 312 317 322 323 323 323 323 323 325 325 325 325 324 324 324 324 322 322
303 304 305 305 303 301 300 300 301 301 302 303 303 303 304 312 311 309 311 305 308 309 310 311 310 310 310 311 315 319 320 321 323 323 323 324 324 324 323 324 323 323 322 322 320
306 304 304 304 306 304 301 301 301 301 301 303 303 303 307 315 312 310 309 310 311 310 308 307 307 310 310 311 314 317 318 319 321 322 322 323 322 321 322 322 323 321 320 319 320
308 307 305 303 305 306 304 301 301 301 301 302 305 303 308 315 312 311 312 312 312 312 310 306 306 310 311 311 311 314 314 317 318 319 318 320 319 317 319 320 318 317 317 318 318
307 308 308 304 304 306 303 301 301 301 301 302 305 304 307 311 311 311 311 310 310 311 312 312 311 310 312 311 311 312 313 312 313 313 313 314 315 316 316 316 316 317 317 317 317
307 307 309 304 305 304 301 301 301 301 301 303 305 304 305 311 311 310 310 309 309 309 311 312 311 311 311 312 312 311 311 312 311 312 312 313 314 315 316 315 315 315 316 317 317
309 309 309 305 305 302 302 302 301 301 301 303 307 305 304 309 310 310 310 309 309 309 309 311 311 310 310 311 310 310 312 312 311 312 313 313 313 314 313 314 315 315 315 315 314
308 309 310 305 304 303 304 308 309 309 306 307 309 308 307 307 310 310 310 309 309 309 309 310 311 310 311 309 310 311 310 311 311 312 311 312 314 314 312 312 314 313 314 313 313
308 309 309 305 304 310 311 310 310 312 312 311 310 312 314 313 311 310 310 309 309 309 309 310 309 310 310 311 312 311 311 311 312 312 313 313 313 312 311 312 312 312 313 313 313
308 310 309 307 309 311 311 310 312 312 311 311 314 313 313 313 312 311 310 309 309 309 309 309 309 311 310 311 311 311 311 311 311 311 313 313 312 312 311 311 311 311 312 311 313
309 310 308 308 311 312 311 310 310 309 311 310 310 311 312 312 310 310 309 309 309 309 310 308 311 312 311 310 310 310 311 311 311 311 312 312 312 311 311 311 311 312 311 311 311
309 310 308 310 311 312 311 311 310 311 311 311 310 310 310 311 311 310 310 310 309 310 308 309 310 310 309 309 309 310 311 311 312 312 312 312 312 311 311 311 311 311 311 311 311
309 310 306 308 311 311 311 310 310 311 310 310 311 311 310 310 311 310 310 309 310 309 309 309 309 309 309 310 310 311 311 312 312 312 311 311 311 310 311 310 311 311 311 310 310
310 307 305 309 311 311 310 311 310 311 312 312 311 311 311 311 310 310 310 310 309 310 308 309 308 309 309 310 311 311 311 312 311 311 311 310 310 310 310 311 311 311 311 311 310
306 304 306 310 311 311 311 309 310 312 314 312 310 310 310 310 309 310 310 310 311 310 309 311 310 309 310 310 311 311 312 311 311 311 311 310 310 310 310 311 311 312 312 311 313
310 305 309 311 311 311 308 309 312 315 314 311 310 310 311 310 310 310 309 309 308 309 309 310 308 309 310 311 311 310 311 311 309 310 310 309 310 310 311 311 312 311 311 311 314
306 307 311 312 312 310 311 312 316 315 311 311 310 309 309 311 311 311 311 311 311 311 311 310 310 312 310 311 310 311 311 310 308 309 308 310 310 310 311 311 311 311 311 312 314
307 309 310 312 311 310 312 314 319 313 310 309 309 309 310 311 311 311 311 312 311 311 311 312 312 312 311 311 311 311 310 308 307 307 308 309 309 310 310 310 310 311 312 313 313
310 313 313 312 311 311 312 317 317 310 309 310 310 311 312 311 310 310 311 312 312 312 312 313 312 311 311 311 311 310 311 309 310 310 311 309 310 311 311 312 312 312 312 312 313
313 314 313 311 310 312 313 315 313 312 311 310 311 311 311 311 311 311 311 310 312 311 311 312 312 311 311 310 309 310 310 311 312 312 312 311 311 311 311 311 312 312 312 312 313
312 313 312 311 311 312 317 313 313 312 310 311 311 310 311 311 311 311 311 310 311 312 310 311 312 311 311 311 311 311 311 311 312 313 312 312 311 311 311 312 312 312 312 312 313
310 313 312 312 312 306 312 309 308 310 310 311 310 310 310 311 311 311 311 311 311 312 312 312 313 313 312 311 310 310 311 312 314 313 314 314 312 312 312 312 312 312 312 312 313
305 311 311 310 314 311 307 308 308 309 311 311 310 309 309 310 311 310 310 310 309 311 312 312 313 312 311 310 309 311 311 311 311 312 312 313 313 312 312 312 312 312 312 313 312
303 309 305 308 305 306 306 306 309 309 309 308 309 309 309 310 309 310 310 310 308 310 311 312 312 313 312 311 310 311 311 311 312 315 313 314 313 313 313 313 313 313 313 312 311
302 305 304 305 304 304 305 306 307 307 307 307 308 307 307 309 308 309 309 308 308 308 309 310 312 312 312 311 311 312 311 312 313 312 313 313 312 312 313 314 313 313 313 312 311
300 301 301 303 303 304 305 306 307 307 306 306 307 306 306 307 307 307 307 307 307 308 310 311 311 311 311 311 312 313 312 312 312 312 312 312 313 313 312 312 313 312 312 312 311
295 298 302 301 303 304 304 305 306 304 303 304 305 305 305 304 304 304 304 305 306 307 307 309 310 312 312 309 310 311 310 310 311 311 312 315 314 313 313 313 312 312 312 312 311

GFSSW_850_thetae_072.txt.gz
Theta_e
304 304 305 305 303 302 301 301 301 301 302 302 303 303 303 307 311 310 315 309 306 304 305 308 310 312 312 316 319 321 326 327 326 327 327 325 326 326 326 327 326 326 327 326 324
307 305 304 305 305 304 302 301 301 301 302 302 303 303 304 313 310 315 312 308 308 308 310 310 310 311 313 315 318 322 324 324 325 326 326 325 325 325 325 325 326 327 326 325 323
308 307 306 304 305 306 305 302 301 301 301 302 304 303 307 315 315 312 311 312 312 309 309 310 311 311 313 315 317 320 323 322 322 323 324 325 325 325 323 325 324 325 323 322 322
307 307 308 305 304 306 306 302 301 301 301 302 305 304 308 314 317 314 312 311 311 312 312 308 310 312 313 315 315 318 319 320 320 321 322 324 323 324 324 323 321 321 321 321 321
309 309 308 307 304 306 304 301 301 301 301 302 305 304 308 316 315 312 311 310 310 312 314 314 312 312 314 314 314 315 317 316 317 318 319 320 320 321 322 321 318 321 320 320 320
309 309 309 306 305 304 302 301 302 301 301 301 306 304 309 314 312 311 310 309 312 313 313 314 313 313 313 313 314 314 314 315 315 315 316 317 317 317 317 317 316 321 319 318 319
308 309 310 305 304 302 302 302 302 301 301 302 308 306 310 311 313 310 310 313 313 313 312 312 313 312 313 314 313 313 314 315 315 315 316 315 316 317 316 316 317 323 319 318 318
308 309 310 305 304 305 308 309 309 310 306 306 309 310 313 307 310 311 313 312 310 313 313 311 311 312 312 313 313 314 314 314 316 315 314 315 317 318 315 315 317 317 321 322 317
309 310 310 306 308 310 310 311 310 312 311 311 311 314 315 310 313 311 312 311 310 310 311 310 311 312 313 314 315 316 314 315 315 315 315 315 315 317 314 315 315 314 317 318 316
309 310 309 308 311 311 310 310 312 312 311 310 313 316 314 314 313 312 311 310 310 310 311 312 312 314 315 315 315 316 315 314 314 315 315 315 316 316 315 314 314 314 314 316 315
309 310 309 308 311 312 311 311 313 314 315 314 313 314 314 314 312 312 310 310 311 311 313 312 314 314 315 314 314 313 314 314 315 315 314 315 316 316 315 315 314 313 313 314 314
310 311 308 310 312 312 311 313 312 312 315 313 312 312 313 313 313 312 311 311 312 313 312 312 313 314 313 312 312 313 314 315 315 314 314 315 315 315 316 315 314 314 314 313 315
309 311 307 311 311 311 312 312 310 311 315 313 312 312 312 312 313 312 311 312 313 313 313 313 313 312 312 312 313 313 314 314 314 314 314 314 315 316 314 314 313 314 314 314 313
306 307 305 310 312 311 313 311 311 311 318 315 314 313 312 313 313 312 311 312 313 313 313 313 312 312 312 313 313 313 314 313 313 314 315 315 315 315 315 315 314 314 314 314 313
309 304 306 311 311 313 312 308 309 313 320 314 313 311 311 312 312 312 311 312 313 314 312 314 312 312 313 313 313 313 313 313 314 314 314 314 314 315 314 314 314 315 313 313 314
306 308 308 311 311 311 308 309 314 320 319 314 313 313 313 313 313 312 312 311 312 314 314 314 313 313 313 313 313 313 313 314 315 314 313 313 313 313 314 314 314 314 312 313 315
307 310 311 312 314 310 311 314 321 321 314 315 313 313 313 314 314 314 314 315 314 315 315 314 314 313 313 314 314 314 315 316 315 314 314 314 313 313 314 313 313 313 312 314 315
309 310 311 313 311 310 313 318 321 318 315 312 312 313 314 315 315 314 314 315 315 314 315 315 315 314 314 314 314 315 315 315 314 313 312 313 312 314 313 312 312 313 314 314 315
313 312 314 312 311 312 314 319 319 316 312 313 314 314 315 314 313 313 314 314 314 315 315 315 315 314 313 314 314 314 315 314 314 313 313 313 313 313 314 313 314 314 314 314 315
309 316 316 312 311 313 316 315 316 314 313 313 314 314 314 313 313 313 314 313 313 314 314 314 315 314 313 313 313 314 313 313 313 313 312 312 314 314 314 313 314 314 314 314 314
312 315 315 312 312 315 319 316 315 314 313 313 314 314 313 313 313 314 313 313 312 313 313 313 314 313 313 313 313 313 313 312 313 314 316 314 314 316 314 314 315 314 314 314 315
310 315 313 312 315 314 316 314 310 312 311 312 312 312 313 313 313 314 314 313 311 312 313 313 314 315 313 313 313 313 313 313 320 315 315 316 316 315 315 315 314 314 314 315 314
308 312 312 307 316 313 311 310 309 310 310 312 313 312 312 313 314 313 313 312 311 312 312 313 314 315 314 314 314 313 313 313 313 315 317 318 316 315 315 315 314 314 314 314 315
307 312 309 310 308 308 308 308 309 310 310 310 311 310 311 312 313 313 313 312 311 311 311 312 314 314 316 314 313 315 313 313 314 318 315 314 314 315 315 316 315 314 314 314 314
305 309 306 310 309 308 309 308 308 308 309 309 309 310 310 311 310 311 311 310 310 309 310 312 314 312 311 311 311 312 312 313 314 314 315 314 314 315 315 315 315 314 314 314 314
305 305 304 305 306 307 307 308 307 307 308 306 307 307 308 310 310 310 309 308 308 309 309 310 312 311 311 311 311 312 312 312 312 312 313 313 314 314 314 314 314 314 314 314 314
297 299 303 306 306 307 308 306 306 306 304 304 306 307 307 308 306 305 305 306 307 308 309 309 312 312 313 311 312 313 312 312 312 313 313 314 314 315 316 316 315 315 314 314 314

GFSSW_850_thetae_075.txt.gz
Theta_e
307 306 305 305 305 304 302 301 301 301 302 302 303 304 304 309 311 316 319 315 311 306 305 308 313 314 316 318 320 322 326 326 327 327 328 328 329 327 326 328 329 328 328 329 327
308 308 307 305 305 305 304 302 301 301 302 302 303 304 305 312 312 319 317 310 308 308 313 312 311 313 316 318 320 323 325 325 325 326 327 327 328 327 327 327 327 327 327 328 326
308 308 308 307 305 305 306 305 302 301 301 302 303 304 308 314 320 316 311 312 312 310 314 311 312 314 316 318 320 322 324 325 324 324 324 325 326 327 327 327 326 326 326 326 325
309 309 309 308 305 305 306 305 302 301 301 302 303 304 310 314 323 317 312 311 312 316 315 311 312 314 316 318 319 321 321 322 323 322 323 324 324 326 326 327 325 325 327 325 325
309 310 310 309 305 306 305 302 301 301 301 301 303 304 310 320 319 316 311 310 314 315 316 316 314 314 316 317 317 319 320 320 320 320 320 321 323 324 325 325 326 324 323 326 325
308 310 310 308 305 304 302 302 302 302 301 301 305 304 312 317 316 316 315 315 315 314 315 315 316 315 316 317 317 317 317 317 318 319 319 320 321 320 321 322 323 322 320 323 326
308 309 311 306 305 303 303 303 302 302 301 302 307 306 314 314 314 315 315 315 314 314 314 314 314 314 316 317 316 316 317 318 318 318 319 318 319 320 319 319 321 320 320 323 326
308 310 311 306 305 308 310 309 309 310 306 304 309 313 317 311 313 313 314 314 313 313 314 314 313 314 315 315 316 317 317 317 318 318 318 317 318 319 318 319 319 319 319 323 324
308 310 311 307 309 310 310 310 310 311 311 311 313 318 318 312 312 313 314 313 313 312 313 312 312 314 315 316 317 318 318 318 318 318 317 318 318 319 318 318 319 318 319 319 323
309 310 311 308 310 311 311 310 310 312 311 311 317 317 317 314 314 313 313 312 312 312 312 313 314 316 317 316 318 318 319 319 317 319 318 318 318 319 318 318 318 318 318 318 322
310 311 310 308 311 312 311 315 318 320 318 319 317 317 316 315 314 313 314 312 312 313 315 315 316 317 317 318 318 317 317 318 318 318 317 317 318 318 319 318 318 317 317 317 319
310 311 309 309 312 312 314 316 314 314 316 315 314 313 314 314 314 313 313 313 314 316 317 316 316 316 316 316 315 315 315 316 317 317 317 317 318 318 318 318 318 318 317 317 317
307 310 306 310 312 313 315 314 314 314 317 316 313 313 314 314 314 315 313 313 315 316 316 316 317 315 315 315 315 315 316 316 317 317 317 317 318 318 318 318 317 316 317 317 317
309 305 306 311 314 314 316 314 314 315 320 318 315 315 314 314 315 314 313 314 316 316 316 316 316 314 314 314 315 316 316 316 316 316 317 318 318 319 319 318 318 316 316 316 317
305 305 308 312 317 316 315 313 313 316 326 317 316 315 315 315 315 315 314 314 315 316 316 316 316 315 315 315 316 316 316 316 316 317 317 317 317 317 318 318 317 317 316 316 316
307 308 309 313 315 314 312 313 316 324 325 317 316 315 315 315 315 315 314 314 314 316 317 317 316 316 316 316 315 315 315 316 316 317 318 318 318 317 317 317 317 317 315 316 315
309 310 311 312 317 314 314 316 324 323 319 318 316 316 316 317 317 317 317 317 318 318 318 318 317 317 316 315 315 316 316 317 318 318 319 318 316 316 317 316 317 317 315 315 315
310 310 314 314 314 313 315 320 324 321 320 317 315 316 316 317 317 317 317 317 317 317 317 318 317 317 317 316 317 316 317 318 319 319 317 316 316 316 316 316 314 314 314 315 316
304 312 315 318 315 314 316 321 322 321 316 316 316 316 317 317 316 316 316 316 317 317 318 318 318 317 316 317 317 316 316 316 317 318 316 317 316 317 316 316 315 315 315 316 316
307 316 318 317 313 315 320 319 319 317 316 316 316 316 317 316 316 316 316 316 315 315 316 316 317 316 316 316 316 315 316 315 319 319 316 315 315 316 317 316 316 316 316 315 316
316 317 318 315 314 316 321 320 318 315 315 316 316 316 316 316 315 315 315 316 316 315 315 315 316 316 315 316 315 315 315 316 315 315 319 317 316 317 317 316 316 316 316 315 316
314 319 317 314 317 318 318 316 312 312 312 314 314 314 314 314 315 315 315 316 315 314 315 315 315 319 316 315 316 316 316 316 321 319 316 317 316 316 317 316 317 316 316 315 316
310 312 316 310 321 318 315 314 312 312 312 313 314 314 314 314 315 315 315 315 314 314 314 314 316 318 317 315 315 317 316 316 316 316 318 319 318 317 317 317 316 316 316 315 316
310 315 313 313 311 312 315 316 314 312 312 311 313 312 312 313 313 314 315 314 313 313 312 312 315 315 316 315 316 317 316 315 315 320 317 316 316 316 316 315 317 316 316 316 316
310 314 311 314 314 313 313 314 314 314 312 311 312 312 312 313 313 313 313 313 313 312 311 313 314 313 312 313 313 314 313 314 315 316 316 316 317 315 316 316 316 315 315 315 316
308 309 309 309 311 312 313 314 314 313 312 313 312 310 309 310 311 311 311 312 312 311 311 311 312 312 312 311 312 312 312 313 313 313 313 315 315 315 315 314 314 315 315 316 315
305 305 306 311 312 313 313 312 311 310 310 308 308 308 309 309 307 307 307 308 309 310 310 311 312 314 315 313 313 316 314 314 314 314 313 313 314 314 314 315 316 317 317 317 315

GFSSW_850_thetae_078.txt.gz
Theta_e
308 308 307 306 306 305 304 302 301 302 302 303 303 304 304 308 310 314 318 318 316 314 307 307 311 316 317 318 320 321 324 325 325 326 327 327 328 328 327 327 329 330 330 329 329
308 308 308 307 306 305 306 304 302 302 302 302 303 304 304 312 311 319 319 318 310 307 308 313 313 314 316 318 319 321 323 323 324 325 325 326 327 327 328 327 327 329 330 329 329
309 309 309 309 306 305 306 307 304 302 302 302 302 304 305 313 318 320 317 310 310 308 315 314 313 314 315 317 319 321 323 323 323 324 324 324 325 325 327 329 328 329 329 329 328
308 309 310 310 307 305 306 307 304 302 302 302 302 304 305 311 325 316 313 310 311 315 319 314 313 314 316 317 318 320 321 321 323 323 323 324 324 324 324 327 328 327 328 327 328
307 309 310 310 306 306 305 303 302 302 302 302 302 304 306 321 321 318 312 311 312 317 318 318 317 315 316 317 317 318 320 320 321 321 322 322 322 323 323 324 326 327 326 327 326
306 309 310 310 306 305 303 303 302 302 302 302 302 305 306 319 319 317 313 314 317 315 317 316 317 317 317 317 318 318 318 319 319 319 320 321 321 320 321 323 324 324 326 325 325
307 310 311 309 306 304 306 307 307 305 302 302 303 307 315 316 315 317 317 315 316 315 315 316 316 316 316 318 317 318 318 318 318 318 319 318 319 320 320 321 321 321 322 324 323
308 309 311 306 306 309 310 310 309 309 307 303 308 309 316 316 314 315 315 315 315 314 315 315 315 314 315 316 317 317 318 318 318 319 318 318 318 319 319 319 319 319 320 321 321
310 310 312 307 309 310 310 310 310 310 310 311 311 313 320 314 312 314 314 315 315 314 314 314 314 313 315 316 317 317 316 317 318 320 319 319 318 319 319 319 320 320 320 320 321
310 311 312 307 310 311 310 310 311 311 312 310 315 319 319 318 313 314 314 314 314 313 314 314 314 316 316 316 316 317 318 319 319 320 319 318 318 319 318 318 319 320 320 320 320
309 311 312 308 310 312 312 318 319 320 321 320 321 319 318 317 316 315 315 315 314 314 315 315 316 317 318 318 318 319 319 318 319 320 319 318 319 318 319 319 319 319 319 319 319
309 310 312 309 311 313 316 319 316 315 317 317 319 316 316 316 316 315 315 315 314 315 317 317 317 317 317 317 317 317 317 317 317 317 317 318 318 318 319 319 319 320 320 319 319
309 308 307 310 311 313 316 316 315 316 317 318 318 314 315 315 315 316 315 315 315 316 317 317 318 318 317 317 317 316 316 316 317 317 318 318 318 319 319 319 319 318 318 319 319
306 304 306 310 315 317 318 316 315 316 318 322 317 315 315 315 316 315 316 315 316 316 317 317 318 318 317 316 316 316 316 317 317 317 317 318 319 320 320 320 320 319 318 318 318
307 306 307 312 316 319 317 314 314 317 329 319 318 316 316 316 317 316 315 315 316 316 317 317 317 317 317 316 316 316 317 317 317 317 318 318 318 319 320 320 320 321 318 317 317
308 310 308 317 316 318 315 315 317 324 327 320 317 317 316 316 316 316 316 315 315 316 316 317 317 317 317 317 317 317 316 316 316 316 318 317 317 319 319 321 320 320 318 317 317
306 309 311 311 317 317 315 316 323 326 323 321 318 318 317 317 317 318 318 318 318 318 318 319 319 318 318 317 317 316 316 317 318 319 319 318 318 320 320 318 318 318 317 317 317
310 307 310 312 314 316 315 319 323 323 323 320 318 317 317 317 317 317 318 318 318 318 318 318 318 318 318 317 318 318 318 319 322 322 321 320 320 319 320 319 317 317 316 316 315
309 312 313 317 319 316 316 321 322 322 321 319 318 316 317 318 318 318 317 317 317 317 317 318 318 318 319 318 318 318 319 318 318 320 321 319 319 318 319 318 318 316 316 315 316
310 316 319 320 318 316 318 320 321 320 319 318 318 317 317 317 317 317 317 317 317 317 316 316 317 316 317 317 317 318 318 319 317 320 321 317 318 318 319 319 318 316 316 316 316
312 320 320 318 316 315 320 322 321 318 316 315 316 317 317 316 315 316 316 316 316 316 317 317 317 316 317 317 317 317 319 318 318 318 319 320 318 317 318 318 318 317 316 316 316
312 319 319 316 315 319 323 320 316 316 315 315 315 315 316 316 316 316 316 316 315 316 316 317 318 319 317 317 316 316 317 318 320 322 321 318 320 317 317 318 317 316 316 316 316
310 313 317 313 316 320 318 317 316 316 315 315 315 315 316 316 316 315 315 315 315 315 316 316 316 317 315 315 315 315 315 316 316 316 319 322 320 316 318 318 317 317 315 315 316
311 315 316 315 315 315 316 316 316 316 316 314 314 314 315 315 315 315 315 315 314 314 313 313 315 315 317 315 314 315 316 315 315 316 316 316 315 316 317 317 317 315 316 315 316
312 314 314 314 314 315 315 315 316 317 315 314 315 315 315 315 313 313 313 313 313 313 315 314 316 315 313 312 312 312 312 313 317 317 318 316 316 316 316 316 317 315 314 314 315
311 310 310 310 311 315 315 315 316 316 314 313 314 313 312 312 311 312 311 311 312 312 313 313 312 311 311 312 313 313 313 313 313 312 312 314 314 314 314 314 316 315 315 315 317
309 308 308 309 312 315 315 314 314 313 312 312 312 312 311 311 309 309 308 308 309 309 310 311 311 313 314 313 313 314 313 314 315 315 315 316 316 315 316 318 317 317 317 317 318

GFSSW_850_thetae_081.txt.gz
Theta_e
309 309 308 307 306 305 305 304 302 302 302 302 302 302 304 304 308 309 310 320 319 317 315 310 310 315 316 317 318 319 318 319 320 322 322 324 323 326 327 327 327 328 328 329 329
309 309 310 309 307 305 305 306 304 303 302 302 302 302 304 305 310 311 315 321 318 313 308 308 309 312 314 317 317 317 316 318 319 320 321 322 323 323 327 326 326 327 329 329 329
307 309 310 310 308 305 305 307 307 304 302 302 302 302 304 307 314 322 323 318 310 309 309 317 314 313 313 314 316 317 316 317 320 321 321 322 322 323 323 324 327 327 328 329 329
306 308 310 311 308 305 306 306 305 303 302 302 302 303 304 307 322 316 314 311 310 311 315 316 314 313 312 311 315 313 317 319 319 320 321 320 322 322 322 322 327 327 327 327 328
306 309 311 311 307 305 305 303 303 302 302 302 302 302 304 316 318 320 316 311 310 315 317 318 319 314 310 312 314 313 314 317 318 320 320 321 320 320 321 321 321 325 328 327 326
308 309 310 311 305 305 303 303 303 302 302 302 302 303 305 315 319 318 317 313 316 317 316 316 316 316 316 315 313 316 316 316 317 317 318 317 317 319 320 320 320 320 325 328 327
309 310 310 312 306 305 307 308 308 308 303 302 302 305 307 307 317 317 317 316 315 316 315 315 315 315 315 313 316 315 314 314 315 316 315 318 316 316 318 319 320 320 321 326 326
310 310 311 311 306 309 309 309 309 308 309 303 303 308 309 316 314 314 316 316 315 315 314 314 315 315 314 315 314 313 312 313 314 316 317 316 315 316 318 319 319 319 319 319 324
309 311 311 308 308 309 310 309 309 310 310 310 309 310 317 317 314 313 315 314 315 315 314 314 314 313 313 311 311 312 312 312 314 316 316 315 315 316 318 318 318 318 319 319 319
309 310 312 307 308 312 311 310 315 312 315 311 313 316 319 320 315 313 313 315 315 314 314 314 314 311 310 310 311 312 313 314 315 316 316 315 315 315 318 318 318 318 318 319 320
309 310 313 308 309 312 315 317 320 320 316 316 319 318 319 317 315 314 315 314 314 314 312 314 311 311 313 313 314 315 315 316 316 316 314 314 314 316 317 318 316 317 319 319 319
306 306 312 308 310 313 316 317 316 315 316 316 318 319 319 318 316 316 315 315 315 313 313 313 312 315 316 316 316 315 314 314 315 315 315 313 314 314 315 316 317 318 317 319 319
307 305 306 309 311 313 315 317 315 315 315 316 317 318 320 316 315 316 315 315 315 313 313 313 316 317 317 316 316 314 314 314 315 315 315 314 315 314 316 317 318 318 318 318 318
305 308 306 310 318 318 318 317 315 315 315 319 319 317 315 315 316 315 315 316 315 314 314 314 315 317 315 315 315 313 314 315 315 315 314 315 315 315 315 316 316 317 318 318 317
311 308 307 308 311 314 317 315 315 317 325 321 318 316 315 315 317 316 316 316 314 314 314 314 315 315 315 316 316 314 315 315 316 313 312 314 313 315 315 316 316 316 317 318 318
309 310 309 311 317 318 316 315 315 322 327 320 317 316 316 316 316 316 316 315 315 314 314 314 315 315 315 316 316 316 314 314 314 312 313 313 314 314 314 315 317 316 318 318 318
308 311 310 310 313 317 316 315 319 325 324 324 319 317 316 316 316 316 316 315 313 314 314 316 316 316 317 316 315 315 314 314 313 313 315 314 315 315 317 318 318 316 317 318 318
308 310 309 307 311 317 316 317 322 322 322 322 320 318 317 316 315 316 316 315 316 317 317 316 316 317 317 316 317 316 315 318 319 316 317 318 319 317 317 318 318 318 317 317 317
308 312 317 316 317 316 316 319 321 322 321 320 318 318 317 317 316 316 317 317 316 316 316 316 316 316 316 316 315 315 316 316 320 321 321 317 316 316 316 316 316 316 317 315 315
309 316 320 319 319 316 317 319 319 319 320 316 315 316 316 316 316 315 315 317 317 316 315 315 317 317 316 316 315 316 315 317 317 322 321 318 317 315 315 318 316 317 315 316 316
309 316 320 319 318 316 316 318 320 320 316 316 315 315 314 314 314 315 315 316 316 315 315 315 315 317 316 316 315 314 313 317 317 316 322 320 314 315 316 316 316 316 316 316 315
310 314 320 318 317 317 319 319 321 317 316 316 315 315 315 315 316 316 316 316 315 315 315 315 316 316 317 315 315 313 316 315 319 319 320 319 316 315 313 313 317 315 316 316 316
309 310 314 316 314 314 316 316 316 316 316 316 316 314 314 314 315 315 315 314 314 314 316 315 314 315 314 312 313 315 314 314 316 316 316 317 314 314 313 315 316 316 315 316 316
308 315 316 316 315 316 314 315 316 314 315 317 315 314 314 315 315 316 315 314 313 313 315 315 314 314 315 314 312 313 312 312 313 315 314 314 313 313 313 315 315 316 315 315 315
309 313 311 314 313 311 313 315 316 316 316 314 313 313 313 312 311 312 312 311 311 311 311 313 314 314 314 314 313 310 310 311 311 314 315 313 313 313 313 314 314 315 315 315 314
309 310 308 309 310 312 313 315 316 314 313 313 313 313 312 311 311 311 309 309 310 309 308 308 311 312 313 312 311 312 312 312 312 312 313 315 314 316 316 316 316 315 316 315 315
308 309 307 309 309 310 313 313 313 311 312 311 311 311 312 310 308 307 307 307 307 308 307 307 308 308 309 311 311 312 312 313 314 315 316 316 316 314 314 315 315 315 315 316 315

GFSSW_850_thetae_084.txt.gz
Theta_e
308 309 309 308 307 305 305 305 304 303 302 302 302 302 303 304 305 308 308 309 317 316 316 314 311 311 313 313 315 317 315 316 317 320 320 321 320 322 323 325 329 330 328 329 328
306 309 310 310 308 306 305 306 306 304 303 302 302 302 303 304 307 310 310 315 318 318 311 308 307 309 313 315 316 314 312 315 316 317 318 319 320 321 323 324 326 327 328 328 328
304 308 311 311 309 306 305 306 307 305 303 302 302 302 303 304 314 321 321 317 311 311 308 312 315 314 311 312 315 314 314 314 316 318 319 319 319 320 322 323 326 327 328 328 328
307 308 310 311 309 305 306 306 304 303 302 302 302 302 303 305 319 317 315 310 311 309 313 314 314 313 311 310 313 311 313 315 316 317 318 317 319 319 320 322 322 325 327 327 328
309 309 310 311 308 305 304 303 303 303 302 302 302 302 303 308 309 319 317 312 310 315 316 317 317 318 310 310 311 311 311 314 315 317 318 318 318 318 319 319 320 321 321 323 326
310 310 310 312 306 305 304 305 305 303 302 302 302 301 304 310 316 319 317 314 313 315 315 316 315 315 314 313 312 313 313 314 315 315 314 314 315 316 318 318 318 318 319 320 323
309 311 311 312 306 306 307 308 308 308 307 302 302 302 304 306 318 317 316 315 315 316 316 315 314 315 314 311 314 313 312 310 313 315 314 315 314 314 317 317 318 318 318 319 320
309 310 311 312 306 308 308 309 309 308 309 306 303 305 307 312 313 316 316 316 315 315 315 314 314 314 314 313 312 312 310 311 311 314 315 315 315 314 317 317 317 318 318 319 320
308 309 312 310 307 310 310 309 311 310 310 310 309 314 314 316 317 314 314 316 315 315 315 314 314 313 313 310 308 309 310 311 312 313 313 313 314 314 317 316 316 317 318 318 318
306 307 312 308 308 311 312 313 312 317 313 315 310 314 316 319 317 314 313 314 314 314 314 314 313 310 307 307 309 311 311 311 312 314 314 313 312 312 315 315 315 316 317 318 318
307 305 310 307 309 313 316 316 317 318 314 315 315 315 317 318 317 314 313 313 314 314 312 313 310 309 310 309 312 312 312 312 313 314 313 312 311 311 314 315 315 316 317 317 318
310 307 306 307 309 312 314 316 315 316 314 315 315 316 317 319 320 315 315 314 314 312 311 310 310 311 312 313 313 313 313 312 312 313 314 312 312 312 313 314 316 315 316 317 317
309 309 306 308 314 316 316 317 316 316 314 314 315 317 316 317 319 316 315 315 313 312 311 310 312 314 314 314 314 313 312 312 313 314 313 313 313 313 313 315 316 316 317 317 317
308 310 309 306 314 316 315 317 314 315 313 317 317 318 317 317 315 315 315 315 313 312 311 311 312 314 313 314 314 312 313 314 314 313 312 314 313 312 313 313 314 315 316 317 317
310 308 310 309 308 315 316 316 315 316 319 322 318 316 317 316 315 316 315 315 313 313 312 312 313 313 313 314 314 314 314 313 313 312 310 312 311 312 313 313 313 313 314 316 317
310 308 309 311 310 317 316 315 315 320 325 321 316 314 312 314 314 315 315 315 315 312 312 312 314 313 313 314 314 314 313 312 311 309 311 310 311 313 312 312 312 314 317 317 317
315 310 309 311 310 315 316 316 317 321 322 322 319 316 315 315 315 315 314 313 312 312 312 313 313 314 314 314 314 313 312 312 314 312 314 311 312 313 312 314 316 315 316 316 317
315 311 312 317 308 316 316 315 320 320 321 320 317 317 317 315 315 315 314 312 311 312 313 315 315 316 316 315 314 316 315 316 320 316 318 317 318 315 315 315 317 316 316 316 317
315 311 319 311 315 315 316 317 318 321 320 319 315 316 315 315 315 314 313 313 314 314 315 315 315 315 316 316 314 314 315 315 317 319 321 319 317 315 314 316 316 314 314 315 316
315 311 319 319 317 316 315 317 317 317 317 316 314 314 314 314 313 313 314 314 315 315 312 313 314 315 315 316 316 315 315 316 316 322 323 319 318 316 314 315 315 316 315 315 315
314 310 320 320 319 316 313 316 317 318 318 316 315 314 314 314 313 314 314 315 315 314 312 312 312 314 316 316 315 313 313 315 313 314 319 316 316 313 314 314 314 313 315 316 316
311 310 318 319 315 314 315 316 317 316 315 315 315 313 313 313 314 314 314 314 314 313 312 312 313 315 316 314 314 313 315 314 313 317 317 317 314 312 313 312 312 314 315 315 316
310 309 314 317 315 312 313 313 314 315 314 315 316 313 312 313 313 314 315 315 313 312 314 313 310 313 313 311 310 313 313 313 313 312 312 314 312 311 311 311 311 312 315 315 315
309 310 313 312 312 310 311 313 314 314 315 314 313 312 312 312 312 313 311 313 311 311 313 312 311 312 314 313 310 313 313 311 311 307 312 313 312 311 312 312 311 313 315 315 315
309 309 308 309 309 310 310 312 315 315 313 312 312 312 311 311 311 311 311 310 310 310 308 309 311 312 312 312 312 312 311 310 309 310 312 312 312 311 314 314 314 315 315 316 315
309 308 308 308 309 310 310 312 314 313 310 312 312 312 311 310 310 310 307 307 308 308 307 305 308 307 308 312 312 310 310 310 310 310 312 315 314 314 314 314 314 315 315 316 315
307 307 306 308 309 309 310 312 312 311 309 310 311 311 311 310 307 307 307 307 306 306 306 305 304 306 307 309 311 310 311 314 315 316 316 317 315 315 315 315 314 314 315 314 314

GFSSW_850_thetae_087.txt.gz
Theta_e
304 307 310 309 308 306 305 305 304 303 303 302 303 302 303 304 304 306 307 308 311 310 315 314 313 311 312 313 314 316 313 315 317 319 321 320 319 321 320 321 321 323 328 328 326
305 307 309 311 309 306 305 305 306 305 304 303 303 303 303 304 306 310 309 312 317 316 313 309 308 309 312 313 315 313 310 314 315 317 316 318 318 318 319 319 320 323 327 326 325
308 308 310 311 310 306 304 305 306 306 304 303 302 302 302 304 313 320 317 314 314 311 309 307 313 313 311 311 314 312 312 313 315 317 318 316 317 318 319 318 320 321 325 326 325
309 309 310 311 310 305 305 305 304 304 303 302 302 302 302 304 318 316 314 310 311 309 309 315 315 313 309 309 311 311 312 313 315 316 316 316 317 317 318 318 319 320 321 323 327
309 310 310 311 310 305 304 303 303 303 303 302 302 302 302 304 306 318 316 312 316 314 315 317 316 316 311 309 311 309 310 312 313 313 314 315 315 316 316 317 318 319 321 321 323
309 310 311 312 308 305 305 307 307 306 304 302 302 302 302 305 309 318 317 315 311 313 316 315 314 314 313 312 311 312 312 312 313 314 313 312 313 313 315 317 318 319 319 319 319
308 309 311 312 306 306 308 308 309 308 308 305 301 301 302 306 316 317 316 314 314 315 315 315 314 314 313 312 312 312 311 310 311 314 313 314 312 312 316 315 315 316 317 317 318
306 308 312 311 306 308 309 308 309 309 309 308 303 303 306 308 314 317 316 315 315 315 315 315 314 314 313 312 311 310 309 310 310 312 313 313 312 313 316 316 316 316 315 316 317
307 306 311 309 307 310 310 310 311 313 310 310 308 310 313 313 310 315 316 315 314 315 314 315 313 313 311 307 307 306 309 310 311 311 312 312 312 312 315 314 314 316 315 316 316
309 307 306 308 308 311 314 315 316 314 316 315 312 312 314 318 318 315 314 314 314 314 314 315 313 308 305 306 309 309 310 310 311 312 312 311 310 310 314 313 314 316 316 315 315
308 310 307 306 308 312 314 315 316 315 315 315 314 313 315 317 317 315 313 313 313 313 311 311 309 308 308 308 310 310 310 310 311 312 312 310 310 310 312 313 313 315 315 316 316
309 308 309 306 310 312 315 316 316 315 315 316 315 315 315 315 317 315 313 312 312 311 310 309 309 309 310 310 310 310 310 311 311 311 310 310 311 310 311 312 314 315 316 316 316
310 309 307 309 312 316 315 316 315 314 315 314 314 314 315 315 316 318 315 313 312 311 310 309 311 312 312 312 312 312 311 311 312 312 311 312 311 312 312 313 314 315 315 315 316
315 313 309 308 309 316 315 316 315 315 312 315 315 317 316 316 316 317 317 315 312 311 310 309 311 311 311 312 312 311 311 312 312 312 311 311 313 310 311 311 312 313 314 314 314
312 314 313 308 310 309 316 316 315 316 319 319 316 317 317 317 315 315 315 315 312 312 310 311 312 311 312 312 312 312 313 312 312 311 310 311 310 312 310 311 311 310 313 315 316
314 314 315 311 311 310 316 316 315 319 321 321 315 314 314 315 314 315 314 314 314 311 310 311 312 311 311 312 313 312 312 310 307 307 310 310 310 311 310 311 310 311 314 316 317
313 313 315 312 314 312 317 315 318 322 318 320 317 315 313 313 313 314 313 312 312 312 311 312 312 312 313 313 312 312 311 312 314 313 315 313 315 310 311 312 312 312 315 316 316
309 312 316 315 315 310 315 315 319 317 319 318 315 315 317 315 314 315 313 312 312 311 311 312 314 315 315 314 313 312 311 313 318 317 316 315 317 315 314 314 315 314 315 315 315
312 315 313 314 309 315 316 316 314 320 318 318 317 314 314 314 314 313 313 313 313 313 313 313 314 314 315 315 314 314 313 313 313 316 313 315 316 314 313 314 313 314 314 315 314
312 314 319 313 316 316 313 312 317 317 316 317 314 314 313 313 313 313 313 314 315 313 311 312 313 313 314 314 315 314 314 315 313 320 321 318 317 316 313 313 312 312 312 313 314
312 312 318 319 318 315 315 315 315 316 315 316 314 314 313 314 313 313 314 313 314 314 312 311 311 312 315 315 314 313 316 315 314 316 320 320 314 311 312 309 309 310 312 311 312
310 309 313 318 315 313 314 315 314 315 314 315 315 313 312 312 313 313 314 314 311 312 312 311 311 313 314 313 312 313 314 313 311 312 317 315 313 310 309 308 310 310 310 312 312
309 310 313 315 314 310 310 312 313 315 315 315 314 313 312 312 312 313 315 313 311 311 314 312 310 312 312 310 310 313 313 313 311 312 312 308 311 309 308 309 310 311 313 312 313
309 306 312 310 309 309 310 312 313 314 315 313 313 312 312 311 312 312 311 312 310 310 312 311 310 311 314 313 310 313 313 311 310 305 310 311 311 309 309 312 312 313 314 314 315
309 309 307 306 309 308 310 310 313 314 313 311 312 312 313 311 311 312 311 311 310 310 308 307 310 310 311 311 312 312 312 311 309 308 309 310 309 310 313 313 312 313 313 314 315
308 308 307 307 308 308 310 311 312 313 311 311 312 311 311 313 312 312 310 308 308 308 305 303 305 307 306 306 308 310 310 308 308 308 308 309 313 314 313 313 312 312 312 313 314
307 306 306 307 308 309 310 311 313 311 311 310 310 310 311 311 310 309 307 306 306 307 306 303 303 304 307 308 309 310 309 310 313 314 314 315 315 311 312 313 312 310 309 312 312

GFSSW_850_thetae_090.txt.gz
Theta_e
306 306 309 310 308 307 305 305 305 304 303 302 302 303 303 303 304 305 306 307 309 307 311 313 313 311 312 313 314 316 311 314 317 319 319 319 317 320 319 319 319 320 321 324 327
308 308 309 310 310 307 305 305 305 305 305 303 302 302 302 303 304 310 309 308 314 312 315 312 310 311 312 313 313 312 310 312 313 316 316 317 317 318 318 318 318 319 320 326 326
309 309 310 310 310 307 305 305 306 305 305 303 302 302 302 303 312 319 315 313 317 317 311 307 309 309 310 312 313 311 312 311 314 316 317 315 315 317 317 316 318 318 319 324 327
308 310 310 311 310 306 305 304 303 303 303 302 302 302 302 303 317 317 312 312 312 310 308 314 314 312 307 308 310 312 312 313 314 314 314 314 316 315 316 317 317 317 317 318 324
308 309 310 311 310 305 304 304 305 304 303 302 302 302 302 303 306 318 315 311 311 311 314 316 316 313 309 308 309 309 309 311 312 313 313 313 312 313 314 315 316 317 316 317 320
306 308 310 311 309 305 306 307 308 308 307 304 302 302 302 303 306 314 317 314 313 314 315 315 314 313 312 311 311 310 311 311 312 313 312 311 312 312 314 316 316 316 317 319 320
307 306 311 312 307 307 308 308 308 308 308 308 304 302 302 305 308 318 316 315 311 313 315 314 313 313 313 311 311 311 310 309 310 313 311 312 311 311 315 315 315 316 316 316 316
309 306 308 310 307 308 310 309 309 311 309 309 307 305 305 307 310 317 315 313 313 314 314 315 314 313 313 311 309 309 307 309 308 310 312 312 311 311 315 314 313 314 315 316 317
308 309 306 307 307 309 311 312 311 311 313 310 310 308 309 311 309 317 316 315 315 315 315 315 315 312 310 307 306 305 306 309 309 309 311 311 311 311 315 314 313 314 315 315 316
312 309 308 306 307 310 313 313 316 315 314 314 313 311 310 316 318 312 316 315 315 315 313 313 312 307 303 305 308 309 310 309 310 311 311 310 308 309 313 312 313 314 315 315 316
314 313 310 309 307 309 311 313 315 314 315 316 314 312 314 315 317 317 313 314 314 313 310 309 308 308 308 307 308 310 309 309 309 310 311 309 309 309 311 311 312 314 315 316 316
313 314 313 308 309 312 314 315 315 315 314 314 315 315 315 315 315 316 314 314 312 310 309 308 308 308 308 308 308 309 309 309 309 310 308 309 309 308 308 310 314 315 315 315 315
310 313 314 313 308 312 316 315 315 314 313 314 314 314 314 314 314 316 314 312 311 309 308 308 310 310 310 310 311 310 310 310 311 311 310 310 310 311 311 311 313 314 314 315 315
312 313 314 315 310 310 315 316 316 314 312 313 314 316 315 316 316 317 317 312 311 310 309 309 310 310 310 310 309 310 310 311 311 311 311 310 313 311 309 310 310 313 314 314 314
307 308 313 314 315 310 313 316 316 315 319 317 315 316 315 317 315 315 317 316 312 311 310 311 311 310 310 310 310 311 312 311 311 310 309 309 308 311 310 310 309 309 313 313 314
309 308 308 311 314 312 309 316 315 319 319 321 314 314 316 316 315 313 315 316 314 310 310 310 311 310 310 311 310 312 312 310 306 306 309 310 309 311 309 310 310 311 313 314 315
310 310 310 313 315 312 314 316 315 321 316 318 315 315 313 314 314 313 313 312 311 311 310 311 312 310 312 311 312 311 310 311 312 312 314 313 313 310 310 311 312 311 314 314 313
310 312 314 314 315 312 314 313 318 315 320 318 317 315 316 314 314 314 313 312 312 310 310 311 313 313 313 312 313 311 310 312 316 315 314 312 314 314 311 313 313 313 313 313 313
311 315 316 313 309 309 315 314 313 319 316 317 317 314 314 314 313 313 313 313 312 311 312 312 313 313 314 315 313 313 312 310 312 313 309 313 313 314 313 313 312 310 310 312 312
312 315 317 310 315 316 309 309 316 316 315 315 316 314 313 313 313 313 313 314 315 312 311 312 312 312 313 314 313 312 312 315 312 319 319 315 316 315 313 312 309 308 309 312 312
312 312 314 316 317 316 314 314 315 315 315 316 316 316 314 313 313 313 313 314 313 313 310 310 311 312 313 314 313 312 314 314 314 318 317 315 313 311 312 310 307 306 310 311 314
311 309 312 317 315 310 311 312 312 315 315 315 315 315 313 313 313 314 314 314 311 311 311 310 311 311 312 311 310 312 312 313 315 313 313 314 314 310 308 307 307 308 313 314 313
309 310 312 315 313 309 309 311 312 314 315 316 315 314 312 312 314 314 315 312 310 311 312 311 309 311 311 311 310 312 313 311 309 308 311 315 312 307 306 306 311 312 313 312 313
309 306 310 309 309 309 310 311 312 312 314 314 313 313 313 314 313 313 312 312 311 310 311 312 309 310 313 312 311 312 312 311 310 310 312 311 311 310 307 310 311 312 312 311 311
309 307 307 305 307 307 308 310 311 312 313 312 312 313 313 314 312 313 312 312 312 310 310 307 309 309 309 311 310 311 312 311 310 311 310 311 307 308 311 312 311 312 311 309 309
307 306 306 305 307 308 308 311 310 311 313 312 311 312 312 313 313 314 313 312 309 308 307 303 305 307 307 307 307 306 307 309 310 309 308 308 308 310 312 312 311 310 309 308 308
307 306 306 305 307 308 310 310 310 310 310 310 311 309 309 311 310 309 307 307 307 306 305 303 303 304 306 307 308 309 308 307 308 310 310 313 312 310 311 310 309 308 307 307 310

GFSSW_850_thetae_093.txt.gz
Theta_e
308 307 308 309 309 307 306 305 304 304 303 303 302 302 303 303 304 304 306 306 308 306 312 312 312 310 311 314 315 317 320 320 320 321 320 319 321 320 319 319 319 319 320 320 323
309 309 309 309 309 308 305 305 305 305 305 304 303 303 303 303 304 307 310 308 309 306 310 313 313 311 312 312 314 317 318 318 318 320 320 319 318 318 318 318 319 319 319 320 327
308 309 310 310 310 308 305 305 305 305 305 304 303 302 303 303 312 319 314 310 314 313 314 310 309 310 311 312 313 314 317 316 316 317 317 317 317 317 318 319 319 318 318 318 319
306 308 310 310 311 307 305 304 303 303 303 303 302 302 302 303 318 317 313 313 316 314 309 310 309 311 312 313 312 315 314 315 316 315 316 315 315 315 316 317 317 316 317 316 317
306 308 310 311 311 306 305 305 306 306 304 302 302 302 302 303 306 315 311 311 311 308 311 314 314 311 312 311 310 312 312 312 312 312 312 312 314 315 315 315 315 316 316 317 317
308 306 310 311 307 305 307 307 308 308 307 307 302 302 302 304 305 316 314 312 310 313 316 315 314 313 313 313 314 312 312 313 313 313 312 313 315 313 315 316 316 316 316 316 317
310 308 306 308 306 307 309 308 308 308 308 308 306 302 302 305 305 313 316 312 313 315 315 314 313 313 313 314 311 312 314 314 314 315 315 313 315 314 315 314 314 315 315 315 316
313 312 309 306 307 308 310 310 309 310 312 309 308 305 306 306 306 317 316 314 312 313 315 314 314 313 312 310 311 313 312 314 314 313 313 314 316 316 314 314 315 314 315 315 316
313 313 311 308 306 308 312 313 313 313 311 312 310 309 310 311 307 316 315 314 313 313 314 314 314 311 311 313 313 311 312 312 314 313 313 314 315 316 316 314 315 315 314 315 316
312 313 313 311 308 307 312 312 314 315 314 314 313 313 311 315 315 314 316 315 314 314 312 312 311 314 311 313 312 313 313 313 314 315 314 315 316 316 315 315 315 315 315 315 316
309 311 313 314 311 309 310 315 315 314 314 315 314 311 314 314 316 316 315 315 314 313 314 311 315 315 314 313 313 312 313 313 314 315 313 316 316 316 315 314 315 316 316 316 315
310 310 312 313 314 309 312 315 315 314 314 314 314 314 314 315 315 315 314 314 314 314 312 313 314 314 313 312 312 312 313 314 315 315 314 316 316 316 316 315 315 316 316 316 316
306 308 309 310 314 310 311 315 315 315 314 314 314 314 314 314 315 315 314 313 313 313 313 314 314 312 312 313 313 314 314 315 315 315 314 314 316 317 316 314 315 315 315 315 314
310 311 311 312 313 314 311 315 316 315 316 316 315 315 314 314 315 315 314 313 313 314 312 313 314 312 313 313 314 315 315 314 314 315 316 314 317 318 317 317 316 315 316 315 314
312 311 310 309 309 312 312 316 316 315 319 317 316 316 316 316 315 316 316 313 314 313 313 315 313 313 314 315 313 315 314 314 315 316 315 317 316 317 315 317 317 317 315 315 316
310 310 310 312 311 312 311 313 314 319 320 319 316 316 316 316 315 314 316 316 314 314 313 314 312 313 315 314 313 314 314 315 313 315 317 317 317 318 317 317 316 316 317 316 314
310 311 312 313 313 312 310 315 317 319 318 318 317 316 315 316 316 315 314 317 317 316 316 316 315 315 313 314 315 314 315 317 317 318 318 317 316 317 317 317 316 317 315 313 313
312 314 312 314 313 312 315 316 315 315 319 319 318 316 316 314 315 315 314 314 314 314 315 315 316 314 314 315 316 315 316 317 319 319 318 317 317 318 318 316 316 313 312 312 312
314 313 307 308 314 312 314 315 315 318 316 316 317 316 318 319 317 316 315 314 314 313 315 315 315 314 314 315 316 316 316 316 317 317 320 318 318 317 317 318 315 313 312 312 312
314 315 313 313 313 314 315 312 315 315 316 316 317 317 317 316 316 318 318 317 316 314 313 315 316 314 315 314 314 315 315 317 318 320 321 319 318 318 317 316 315 313 312 311 312
313 313 313 315 316 316 319 316 315 315 316 318 317 317 316 316 315 316 315 314 314 315 312 313 315 315 314 315 316 316 316 318 317 320 322 321 318 317 317 315 314 313 311 312 314
312 314 312 317 318 311 315 312 312 314 316 316 316 317 316 314 315 315 315 315 314 313 314 314 314 316 315 315 312 314 315 316 322 320 320 320 318 315 316 313 311 312 313 314 314
309 310 312 316 316 313 312 313 312 314 315 316 316 316 314 315 316 315 315 314 314 313 314 312 314 316 315 314 312 314 315 315 316 316 319 321 318 314 312 313 312 313 314 314 313
309 312 310 309 308 310 311 313 313 312 314 314 314 314 314 315 313 314 315 313 312 312 312 313 315 315 317 315 314 314 314 314 316 319 318 317 316 315 314 312 312 313 314 312 311
308 308 307 309 308 308 309 310 311 312 312 313 313 314 314 315 314 315 314 313 313 312 312 312 315 313 312 312 311 312 312 312 313 315 317 315 314 313 312 311 313 314 312 311 310
307 307 305 306 306 308 308 310 310 310 311 313 312 312 312 313 313 314 313 312 312 310 310 310 313 311 311 309 309 308 308 308 311 312 312 311 311 311 312 314 314 313 311 310 309
307 306 306 305 306 307 309 309 309 307 307 310 310 310 310 310 309 310 310 310 309 309 309 308 309 309 310 308 308 310 310 309 308 308 308 310 311 314 315 315 313 312 311 310 309

GFSSW_850_thetae_096.txt.gz
Theta_e
309 309 309 309 309 308 306 305 305 304 304 303 303 303 303 303 303 303 306 307 307 306 310 312 310 312 313 316 318 319 320 321 321 321 322 322 323 322 322 321 322 322 323 324 323
306 308 310 310 310 308 306 305 305 305 305 304 303 303 303 303 303 305 307 307 307 306 312 313 312 313 315 316 318 319 320 321 320 321 321 321 321 320 320 320 321 321 322 322 322
306 308 309 310 311 308 305 305 305 305 305 304 303 302 302 303 311 319 318 308 310 306 312 312 313 313 315 316 317 319 320 320 320 319 319 319 319 319 319 321 320 321 321 321 321
306 307 310 311 311 307 305 304 304 304 303 303 303 303 303 303 320 317 313 311 314 313 312 313 311 314 316 317 317 318 318 318 318 318 318 319 319 318 318 319 319 319 319 319 321
310 307 307 309 307 305 305 306 307 307 305 303 302 302 302 311 310 315 312 314 315 314 311 314 313 314 316 316 316 317 318 316 316 316 316 316 317 317 317 317 317 318 318 319 320
312 311 308 306 306 307 308 307 308 308 308 307 304 302 306 310 306 315 311 312 314 311 315 316 316 314 315 315 315 316 316 316 316 316 316 317 317 317 317 317 317 318 318 319 320
312 312 311 308 306 307 309 309 308 310 310 308 307 304 308 310 306 316 314 314 312 316 317 317 315 315 316 317 316 316 317 317 317 317 318 317 318 318 317 317 317 317 318 318 318
311 312 312 312 308 307 309 312 312 311 311 312 310 308 313 307 305 313 317 313 313 315 316 316 315 315 316 316 316 317 317 318 318 317 316 316 317 320 317 317 318 318 318 318 318
309 310 311 313 313 307 309 313 312 313 313 312 312 312 317 309 307 312 317 315 313 313 314 315 315 316 315 317 317 317 316 317 316 316 317 316 317 319 318 318 318 318 318 318 318
308 309 310 311 313 311 307 311 314 314 314 314 313 316 317 315 313 314 315 315 314 315 315 315 315 317 316 317 317 317 316 315 317 318 318 318 318 318 318 318 318 318 318 318 318
305 306 308 310 312 310 309 313 318 319 318 318 318 317 315 316 317 314 315 315 316 316 317 315 317 317 318 317 316 316 316 317 318 318 318 318 319 319 318 318 318 318 318 318 318
310 311 311 310 311 309 309 315 317 315 317 317 317 316 316 315 318 316 316 316 316 318 317 317 317 317 318 317 315 316 316 318 318 318 318 319 319 319 320 319 318 318 318 318 318
312 312 312 313 312 312 313 314 315 316 318 317 315 316 316 316 317 318 314 316 317 318 318 318 318 315 316 316 316 316 317 318 318 318 318 319 320 320 320 319 318 318 318 318 318
310 310 310 312 312 313 313 313 315 315 320 319 317 317 315 316 317 317 316 316 316 317 317 317 317 316 316 316 316 317 318 317 318 318 319 319 320 320 320 320 320 319 319 319 319
310 309 309 310 311 312 313 313 316 316 323 320 318 316 315 316 317 316 316 314 316 316 316 317 317 316 317 317 317 317 317 317 318 319 320 320 321 321 321 320 321 321 320 319 319
309 311 313 312 312 312 312 314 315 321 321 321 319 319 318 318 316 316 317 315 316 316 316 317 317 317 318 318 317 317 317 318 319 320 321 321 321 322 322 322 321 320 319 319 317
311 315 313 313 314 310 311 314 321 320 319 320 320 319 319 318 318 317 318 319 318 319 319 318 318 318 317 318 318 318 319 321 322 322 323 322 321 322 321 320 320 320 319 317 316
314 309 311 314 313 310 313 319 319 317 320 320 320 319 320 318 318 318 317 318 318 318 318 319 319 318 318 318 319 320 321 322 323 323 323 322 322 322 320 320 319 318 316 316 316
315 312 313 312 313 312 317 320 318 319 318 318 320 321 322 321 320 320 319 319 317 316 317 318 319 317 316 317 318 320 319 320 321 321 323 322 322 321 321 320 319 318 316 316 315
315 315 314 315 311 314 318 314 317 317 317 318 319 319 319 319 319 320 321 319 318 316 316 317 320 318 317 316 317 318 319 321 321 325 326 323 322 322 321 321 320 318 316 315 314
314 318 314 317 316 319 322 319 317 316 317 318 319 319 319 319 319 318 319 318 318 318 317 317 319 321 319 318 318 318 319 319 320 321 327 325 323 321 319 320 319 318 315 314 314
314 319 314 317 321 319 320 317 314 316 316 317 318 319 319 319 319 319 319 319 315 316 316 316 318 321 320 319 317 317 318 319 326 324 323 326 325 320 319 319 318 316 315 313 314
314 315 314 317 322 320 318 317 316 317 317 318 318 318 318 318 319 318 318 316 315 316 316 315 318 321 320 319 317 317 317 318 319 319 323 327 323 318 317 316 315 315 313 314 316
313 318 314 314 313 317 317 318 317 314 315 316 317 316 317 317 316 317 316 316 314 314 314 313 317 319 321 320 319 318 317 316 318 323 321 320 320 319 319 317 315 313 312 315 316
311 313 311 315 314 313 313 314 314 313 313 313 315 315 316 317 316 316 315 315 315 314 314 313 317 317 317 317 316 316 315 314 315 317 319 319 319 318 316 315 313 313 315 316 315
312 312 310 310 310 311 311 313 311 311 310 313 313 313 313 313 313 315 314 314 313 313 315 313 316 316 316 315 314 313 312 312 313 313 313 313 314 315 313 313 315 316 316 315 315
308 308 310 309 310 311 311 311 311 309 310 310 311 310 312 312 310 310 311 311 312 312 313 314 314 315 316 313 311 312 311 312 311 312 311 312 313 313 316 316 315 316 315 313 313

GFSSW_850_thetae_099.txt.gz
Theta_e
307 308 310 310 310 309 307 306 305 304 304 303 303 303 303 303 304 304 309 311 312 308 308 315 314 314 314 317 319 320 323 323 323 324 324 324 325 324 326 326 326 326 327 328 326
306 308 309 310 310 309 306 305 305 305 305 305 304 303 303 303 303 310 311 309 307 307 310 316 314 314 316 317 319 321 322 322 323 323 324 324 324 324 324 324 324 324 324 324 325
309 307 310 311 311 308 306 305 305 305 305 305 304 303 303 303 315 319 315 312 307 308 315 315 316 315 317 318 319 321 322 323 323 322 321 322 322 322 322 322 322 323 323 324 325
311 310 307 307 307 306 305 305 305 304 304 303 303 303 303 304 323 323 315 309 309 309 314 314 315 316 318 320 319 321 321 321 322 321 320 321 320 321 321 321 320 321 321 322 322
311 311 310 306 306 306 306 307 307 308 306 305 303 302 303 315 314 316 311 314 313 316 315 315 315 316 319 320 319 320 321 320 320 320 320 319 319 320 320 319 319 319 320 320 321
311 311 311 311 307 307 308 308 308 308 308 307 306 303 308 315 311 316 314 313 320 318 313 316 317 316 318 319 320 320 319 319 319 319 319 319 319 319 319 319 319 319 319 319 320
309 310 311 312 312 307 308 310 309 309 312 311 308 306 314 314 310 320 319 318 317 313 317 318 318 318 318 319 318 318 319 320 319 319 320 319 320 320 319 319 319 319 319 320 320
307 308 308 310 311 312 307 311 313 312 312 312 313 314 319 312 310 318 319 316 314 317 318 318 317 317 318 320 319 319 320 320 321 321 320 319 320 321 320 320 320 319 319 319 319
304 305 306 307 310 311 310 309 312 313 313 313 314 317 320 315 310 312 320 316 316 316 317 317 317 317 318 319 320 320 319 320 320 320 319 319 320 321 320 320 320 320 320 320 320
309 310 312 311 309 311 309 308 312 314 314 315 317 318 319 317 314 310 317 317 316 315 317 317 317 320 319 320 318 320 320 320 320 320 320 319 319 320 320 320 320 321 320 320 320
311 312 312 313 314 311 308 310 321 321 319 322 321 320 318 318 315 313 316 317 316 316 319 319 320 320 320 320 320 320 319 320 321 320 320 321 321 321 321 321 321 320 320 320 320
312 312 311 312 313 314 310 315 319 318 318 319 319 319 318 318 319 315 316 317 317 320 320 321 320 320 320 320 320 319 319 320 320 320 321 321 321 322 322 322 321 321 321 320 320
311 311 310 311 311 314 314 317 316 318 320 320 318 318 318 317 317 318 317 317 319 320 321 321 321 319 319 320 320 320 319 320 320 321 321 321 322 322 322 321 320 320 320 320 320
311 310 310 312 313 317 316 317 315 318 323 322 319 319 317 317 318 319 317 317 319 320 321 321 321 320 318 318 319 319 319 319 319 320 321 322 323 323 323 323 323 322 321 321 320
311 310 314 313 314 316 317 316 316 318 329 322 321 318 318 318 318 319 318 316 318 318 317 318 319 318 319 319 319 318 319 319 320 321 322 322 323 323 324 324 324 323 322 322 323
310 314 313 315 313 316 316 315 317 323 326 323 321 321 319 319 319 319 318 317 317 318 319 317 317 318 319 319 319 319 319 320 321 321 323 324 325 325 325 325 325 324 322 321 321
311 310 313 314 318 314 315 314 324 326 321 322 322 321 321 321 319 320 320 320 319 320 320 319 319 319 319 319 320 320 321 322 324 325 326 325 326 326 325 324 324 323 322 322 321
313 312 314 315 316 315 315 320 327 321 322 323 322 321 321 321 321 320 320 321 321 321 322 322 323 321 320 320 320 321 321 322 325 327 326 325 327 326 325 323 322 322 321 320 319
314 317 316 316 315 315 319 325 323 322 320 320 321 322 322 321 322 322 322 322 322 321 322 322 323 321 321 320 320 321 321 322 324 325 326 325 325 325 325 324 322 322 321 320 319
315 318 317 316 315 318 323 319 320 319 319 319 320 321 322 323 322 323 322 322 322 321 319 320 323 321 321 319 319 319 320 323 324 330 329 325 326 326 326 325 323 322 322 320 319
316 321 318 318 317 320 323 323 320 318 318 319 321 322 321 322 322 321 321 320 320 319 320 320 322 323 322 323 322 321 321 321 322 324 329 329 326 324 324 323 323 322 321 319 318
318 323 318 318 324 323 324 322 316 319 318 319 320 321 321 320 320 320 321 319 318 318 320 320 321 323 323 322 321 322 322 321 328 329 327 329 329 324 323 323 322 321 320 318 317
317 319 318 319 326 324 322 320 318 319 320 320 319 318 319 320 321 320 319 318 317 319 320 320 321 323 321 322 320 321 321 320 320 321 325 329 326 321 321 321 320 319 318 317 315
317 321 318 318 318 321 320 320 319 317 317 317 319 318 318 318 318 319 318 317 316 316 316 316 319 321 323 322 321 322 321 320 319 324 324 323 322 322 322 321 321 319 317 315 315
315 318 316 320 318 317 317 318 317 316 316 315 317 317 317 318 317 319 317 318 316 316 316 315 317 318 319 318 318 318 319 319 319 320 321 320 320 320 320 320 318 316 315 316 316
315 315 314 315 314 316 313 318 316 314 314 316 316 316 315 315 316 317 316 317 317 316 315 315 317 318 318 316 317 318 318 318 317 317 318 317 317 318 315 314 315 316 317 316 317
312 312 313 312 315 315 316 315 314 313 313 313 313 313 314 314 313 313 312 313 314 315 316 315 317 316 319 317 317 319 318 317 316 316 315 315 315 315 315 316 317 317 316 316 315

GFSSW_850_thetae_102.txt.gz
Theta_e
307 307 309 310 310 309 308 306 305 305 304 304 303 303 303 303 304 304 305 309 312 311 310 312 316 316 315 316 317 319 321 321 321 322 324 326 326 327 329 329 330 328 328 329 328
310 309 307 309 311 310 307 305 305 305 305 305 304 304 303 303 304 305 310 312 311 311 309 315 316 315 316 316 317 320 321 321 323 324 324 325 325 325 325 325 327 327 327 326 326
311 310 309 306 306 307 306 305 305 304 304 304 304 303 303 303 312 316 318 312 310 308 308 316 317 316 316 317 318 320 321 322 322 322 323 323 323 324 325 325 325 325 324 325 325
310 311 311 310 306 306 305 306 306 306 305 304 303 303 303 303 325 325 320 315 309 308 310 317 317 318 318 318 319 320 321 321 321 322 322 322 321 322 322 322 322 322 322 322 323
309 309 310 310 311 307 308 308 308 308 308 306 304 303 302 317 315 320 312 310 309 308 315 316 316 317 318 319 320 320 321 321 321 321 321 321 321 321 321 321 321 321 320 321 322
308 308 308 309 310 311 307 309 309 308 308 307 307 303 304 315 316 317 314 312 313 316 317 316 317 317 318 319 320 320 320 321 320 321 320 320 320 319 320 320 320 320 320 320 320
305 306 306 307 309 310 311 307 311 309 311 312 310 307 315 316 312 319 317 318 319 320 317 315 317 319 318 319 320 320 320 320 320 320 320 320 320 320 320 320 320 320 320 320 320
305 308 309 310 309 310 312 309 311 313 312 312 312 312 320 318 315 314 319 320 319 315 317 319 319 319 320 320 321 320 320 319 321 321 320 320 319 321 321 321 320 320 320 320 320
308 310 312 313 313 313 311 309 308 312 314 313 314 318 320 319 316 312 320 319 316 317 319 319 319 318 319 320 321 321 320 320 320 322 322 321 320 321 320 321 321 321 321 320 320
310 312 312 312 313 314 312 308 309 313 316 314 316 320 321 320 318 312 317 319 317 317 317 317 317 319 319 320 319 320 320 320 320 322 321 320 319 320 320 321 321 321 321 321 321
313 312 311 311 311 312 313 313 323 322 320 321 322 320 321 320 317 313 314 320 318 317 318 318 320 319 320 320 320 320 320 320 322 322 321 321 321 321 321 321 321 321 321 322 321
313 312 311 311 311 311 313 316 319 319 319 320 320 321 320 319 320 315 314 318 319 319 319 320 321 321 321 321 321 321 320 320 321 321 321 321 321 322 322 323 322 322 322 322 321
313 312 311 312 313 313 315 316 317 317 320 320 320 320 320 319 318 319 317 318 319 319 320 321 322 322 321 321 321 321 321 321 320 321 321 322 321 322 322 322 322 322 322 322 322
313 312 311 314 315 318 319 318 319 317 322 323 320 319 319 318 318 318 317 318 319 319 321 321 322 322 321 320 320 320 321 321 320 320 320 321 322 324 323 325 325 324 322 322 321
312 311 312 313 316 318 319 319 318 319 331 323 321 320 320 318 319 318 318 317 319 319 320 320 320 320 321 320 320 320 319 320 320 321 321 321 322 322 324 323 325 326 324 323 324
312 311 310 318 317 318 319 318 318 324 330 324 322 320 320 319 320 319 320 318 317 319 319 319 318 318 319 319 320 319 319 320 320 320 322 321 323 323 324 326 327 327 324 323 324
311 312 311 315 320 318 318 318 322 328 325 324 323 321 321 321 321 321 320 320 319 319 319 320 320 319 319 319 319 319 321 321 322 323 324 323 323 326 328 326 326 326 324 324 323
312 316 316 316 318 318 318 319 328 327 325 325 324 323 323 323 322 321 322 322 321 320 321 322 325 322 320 319 319 320 321 322 323 325 324 325 327 327 327 326 325 324 324 323 323
314 320 319 319 318 318 319 325 327 324 322 322 322 323 324 323 322 323 322 323 324 323 324 325 324 323 323 323 323 322 322 322 323 323 327 326 326 326 326 327 326 324 323 323 321
315 320 320 318 317 318 323 326 323 321 321 321 322 322 324 325 326 323 324 324 323 322 323 323 323 322 322 322 322 322 320 321 323 330 329 325 325 327 328 327 325 325 324 322 321
316 323 320 318 318 322 326 324 321 320 319 321 322 323 323 323 323 323 323 322 322 321 321 322 323 323 322 323 323 323 323 322 322 324 330 329 326 327 326 325 325 324 323 323 322
319 324 321 320 323 326 326 324 320 319 320 320 321 321 322 322 322 322 322 321 320 320 321 322 324 324 322 321 321 323 324 324 328 328 328 330 330 326 327 324 324 323 323 322 322
318 319 320 320 325 327 325 322 320 320 320 320 320 320 321 321 321 320 320 319 318 320 322 321 323 323 321 321 322 323 322 323 325 326 327 329 326 322 323 322 321 321 321 321 320
317 321 320 318 319 322 322 320 321 319 317 318 319 319 319 320 319 320 319 318 317 318 318 318 320 322 323 321 321 322 322 322 322 327 324 324 323 321 322 323 321 322 321 321 318
318 320 318 321 320 319 318 318 319 318 317 316 318 318 318 318 319 319 318 318 317 318 318 319 319 318 318 317 318 319 318 319 321 322 324 322 321 321 321 320 320 319 319 318 317
316 316 316 315 317 317 315 317 318 317 316 317 317 316 316 316 316 316 316 316 316 317 317 318 318 317 319 316 317 317 317 317 318 319 320 320 322 320 319 317 318 317 318 317 317
313 314 314 315 317 316 317 318 316 315 314 314 315 314 314 315 314 314 314 314 315 315 317 317 317 318 318 316 316 321 319 319 319 319 319 319 318 317 316 316 318 317 317 316 315

GFSSW_850_thetae_105.txt.gz
Theta_e
310 310 308 306 308 310 308 306 305 305 304 304 304 303 303 303 303 303 305 309 309 309 312 310 315 314 312 314 316 316 313 314 316 318 319 322 321 324 330 331 329 329 329 329 329
310 310 310 309 306 306 306 305 305 305 305 305 304 304 303 303 303 304 310 308 309 311 312 310 316 316 316 315 315 314 314 316 318 319 319 321 321 322 324 327 327 328 329 327 326
308 309 309 310 310 306 306 305 305 304 304 304 304 303 303 302 304 310 315 309 310 311 311 310 316 316 315 316 315 316 315 318 319 320 321 321 321 322 321 322 324 326 326 325 323
308 308 309 308 309 310 307 308 307 307 307 305 303 303 302 302 323 324 319 316 311 310 309 310 313 314 313 313 316 314 317 319 319 320 321 321 321 320 321 321 322 321 322 322 321
307 307 306 307 308 310 310 307 309 308 308 307 306 303 302 312 309 316 315 313 313 310 308 313 316 318 314 314 316 315 316 319 319 320 320 321 320 320 320 321 321 321 321 321 320
304 305 306 308 309 309 310 311 308 309 309 309 307 305 303 313 320 317 315 311 309 308 309 316 317 317 317 316 314 318 318 319 320 320 320 319 318 320 320 320 320 320 320 320 320
305 308 310 312 312 312 311 311 308 312 311 311 312 309 310 308 318 318 317 312 312 310 319 317 317 316 318 314 318 318 316 317 318 319 318 319 317 317 320 319 320 320 320 320 320
307 309 312 313 313 313 314 312 309 312 312 312 312 311 314 317 315 318 318 318 318 320 320 318 317 318 319 319 318 317 317 314 316 318 319 318 316 318 320 320 320 320 320 320 320
312 313 313 313 313 314 313 313 308 308 312 313 313 317 320 319 318 315 316 319 320 318 315 319 319 319 319 316 315 316 316 317 317 318 318 318 316 318 319 320 321 320 320 320 320
314 314 313 312 311 312 313 314 309 310 315 313 315 317 319 320 318 316 315 320 319 316 318 318 317 315 314 313 314 316 317 317 318 318 318 317 316 317 319 320 321 321 321 321 320
313 313 313 312 311 311 312 313 321 321 319 318 318 317 320 320 317 314 312 319 319 317 315 317 314 314 314 315 316 317 317 317 317 318 319 317 317 317 319 320 320 320 321 320 320
312 312 313 312 311 313 312 312 315 318 319 319 320 320 320 321 320 317 313 318 320 317 316 316 315 317 319 319 318 318 317 317 318 319 318 317 318 318 318 319 321 320 321 321 322
312 312 312 311 313 314 314 315 315 318 317 318 320 321 319 320 319 318 313 315 319 318 317 316 318 319 320 319 319 318 318 319 319 319 318 317 317 318 320 320 321 321 321 322 321
311 312 311 312 315 318 318 318 318 318 318 322 321 321 321 320 319 318 318 316 318 318 317 317 318 320 320 320 319 317 318 318 320 319 316 318 317 317 319 319 320 321 321 321 322
311 312 311 311 314 317 319 319 319 318 326 323 320 320 319 319 318 318 318 317 317 318 318 319 319 317 318 318 318 319 319 317 318 317 318 318 316 317 319 319 319 319 321 322 322
311 311 311 313 318 318 318 318 318 322 328 323 321 320 318 319 319 318 318 318 318 317 317 318 319 317 317 318 318 319 319 318 317 316 316 317 318 317 318 319 320 322 323 322 323
311 312 312 312 320 319 318 318 319 325 327 326 322 320 320 320 319 319 319 318 317 317 318 319 319 318 319 317 317 318 317 316 318 317 319 319 319 318 319 325 325 323 324 323 322
311 315 317 316 318 318 318 319 323 328 326 325 323 321 320 321 320 320 320 319 318 317 318 320 321 321 321 319 317 317 318 318 320 319 319 320 323 323 323 324 324 324 323 323 322
311 315 320 319 318 318 318 321 327 325 322 322 322 322 322 324 324 321 320 320 322 322 325 325 325 322 323 323 322 321 322 319 321 320 320 321 322 322 324 325 324 324 323 322 322
313 318 321 320 318 318 320 324 326 321 320 321 321 323 325 327 327 324 324 324 323 323 321 323 324 321 321 321 321 322 321 322 321 325 325 324 322 325 324 324 324 323 323 321 321
313 321 319 318 317 320 323 326 324 320 319 321 322 323 323 323 323 324 324 322 321 320 319 320 322 323 321 322 321 320 321 320 319 324 323 321 322 323 325 323 322 320 321 321 323
314 322 321 319 321 323 325 324 321 320 320 320 320 321 322 322 322 322 322 321 320 320 321 321 321 323 322 319 319 318 319 323 327 327 323 319 323 321 322 320 320 320 320 321 321
311 318 321 320 321 323 325 323 323 320 320 320 321 320 320 320 320 321 320 319 318 319 322 321 320 319 319 318 321 322 321 320 324 323 327 328 325 320 319 321 320 319 320 320 321
312 321 320 320 320 321 323 322 322 319 317 318 319 318 318 319 318 318 319 319 317 319 319 318 318 319 318 319 318 319 319 319 321 324 326 324 323 320 318 321 320 320 319 320 321
314 320 317 319 319 320 319 318 319 319 317 316 318 318 317 317 316 317 318 316 317 319 318 316 318 317 316 317 316 316 316 316 316 316 321 320 320 319 317 316 317 319 318 319 320
314 315 315 314 317 317 316 317 318 317 316 318 317 317 315 315 315 315 314 314 316 317 318 318 318 316 317 315 316 317 316 316 316 316 316 316 316 315 317 318 317 317 317 317 317
312 313 313 315 315 317 317 318 316 315 315 314 314 314 314 314 313 313 314 314 314 315 314 316 317 317 317 315 315 314 314 315 317 317 317 317 316 317 316 317 315 315 316 315 314

GFSSW_850_thetae_108.txt.gz
Theta_e
308 309 309 308 308 305 305 305 305 304 304 304 304 303 303 303 303 304 307 310 309 311 313 311 313 313 311 312 313 315 311 312 314 317 318 320 320 322 323 328 329 333 341 338 338
308 307 307 308 308 308 306 305 304 304 304 304 304 304 303 303 303 304 310 309 308 308 310 311 311 316 313 314 315 312 309 312 315 318 318 319 319 320 322 321 326 328 328 327 328
307 306 306 306 307 309 308 307 307 306 305 304 304 303 303 302 303 309 314 310 308 310 311 311 311 313 315 315 314 312 311 314 317 319 319 318 319 321 320 320 321 321 323 324 325
303 304 305 307 308 309 309 309 308 307 307 306 304 303 302 302 317 322 318 317 308 309 310 311 310 310 311 311 315 313 314 315 316 317 318 317 320 320 320 320 321 321 321 321 321
302 304 306 309 311 311 311 310 309 309 308 307 307 304 302 305 307 317 316 315 309 311 311 310 310 312 312 311 313 312 312 315 316 317 318 319 318 319 320 320 320 320 321 321 321
304 306 308 311 312 312 312 312 310 308 308 310 308 306 303 307 314 319 315 312 312 310 309 308 315 316 316 314 312 315 314 315 316 317 317 317 318 318 319 320 320 320 319 320 320
308 310 311 312 313 313 313 313 311 308 311 310 312 310 309 308 318 317 317 312 310 309 308 312 317 315 315 316 317 315 313 313 314 317 315 318 316 316 319 319 320 319 319 319 319
313 313 314 313 313 313 313 313 312 307 311 311 311 311 312 315 316 318 316 315 313 310 312 317 318 318 315 318 316 316 314 314 313 316 317 317 316 316 319 319 319 319 319 319 319
313 313 313 314 313 312 312 312 313 307 308 311 311 312 317 317 318 315 316 319 319 320 320 318 318 318 318 314 312 312 315 315 316 316 316 315 315 316 319 318 318 319 319 319 319
314 314 312 313 313 312 311 312 313 310 311 313 315 315 315 319 318 317 314 317 319 319 318 317 317 313 311 311 314 314 315 315 316 317 316 315 315 316 318 318 318 319 320 319 320
312 312 311 312 312 311 313 313 314 319 317 316 315 314 318 321 319 318 313 314 317 317 314 316 313 313 312 312 314 315 315 315 315 316 317 315 315 314 316 316 317 319 319 319 320
310 311 311 311 311 311 313 313 315 316 317 318 319 319 318 319 320 315 313 312 317 314 313 314 312 313 314 315 315 315 315 314 315 316 316 317 316 316 316 316 318 319 320 320 320
311 311 311 312 311 313 315 315 315 314 316 317 317 319 319 319 320 316 313 312 318 317 314 313 315 315 316 316 318 316 315 316 317 318 317 317 315 315 316 318 320 320 320 321 320
310 311 311 311 314 316 318 318 318 314 316 319 318 320 320 320 319 319 313 313 316 317 315 314 315 316 317 317 318 318 316 317 317 317 315 316 316 314 315 316 317 319 320 320 320
310 310 311 310 312 317 318 318 319 316 323 323 320 320 320 319 318 318 318 315 315 316 315 315 318 317 317 317 317 316 317 317 317 316 316 315 313 313 315 316 316 315 320 321 322
310 310 310 311 314 318 318 318 318 320 326 322 319 318 319 320 318 318 318 317 317 317 316 316 317 317 316 317 317 317 317 315 314 312 314 314 315 314 316 316 316 318 321 323 321
310 310 312 313 317 318 318 318 317 322 325 322 320 318 318 318 319 317 317 316 316 316 316 317 317 316 317 317 316 316 314 314 315 313 315 316 317 314 316 320 321 322 321 322 321
310 311 315 318 317 318 317 315 320 324 326 326 322 318 318 318 318 317 317 316 316 315 315 317 320 320 320 318 317 314 313 314 317 316 316 318 319 319 320 323 323 321 320 321 321
309 313 314 318 318 318 318 319 322 326 322 321 321 319 319 320 321 319 317 318 318 316 316 323 322 322 322 322 321 320 318 315 318 318 318 318 318 320 323 322 322 322 321 321 320
309 314 320 321 318 318 317 321 323 324 320 321 322 323 325 325 326 324 320 322 322 320 319 321 323 321 321 320 319 320 320 321 318 322 322 321 321 322 324 321 320 319 320 321 320
310 317 320 319 318 318 320 323 325 323 320 321 321 321 321 325 324 324 325 320 320 319 318 319 319 321 320 320 320 318 319 319 318 322 321 318 320 320 322 320 319 319 321 321 320
311 317 320 317 317 317 320 324 324 323 320 319 319 321 321 320 320 320 323 320 319 319 320 318 318 322 321 318 318 317 319 321 322 323 320 314 318 319 318 319 320 320 319 319 322
309 313 320 318 319 319 323 321 323 323 319 318 320 319 318 318 318 319 319 318 318 319 320 318 316 316 314 318 318 320 320 320 322 323 326 329 326 319 318 317 319 319 319 319 318
309 314 319 320 319 319 321 321 322 320 319 317 317 317 316 317 316 317 318 317 318 319 319 316 315 314 313 317 316 317 316 315 318 323 323 324 321 319 318 317 316 317 318 319 319
311 315 314 317 317 315 317 318 318 321 315 315 316 316 316 315 314 315 314 314 318 320 316 312 314 316 316 315 315 315 315 315 315 314 317 317 316 315 315 315 316 316 316 315 315
312 313 313 314 315 316 314 315 318 316 315 315 314 314 312 313 313 314 313 313 314 316 316 312 315 314 316 315 315 315 314 315 315 314 314 315 315 313 313 314 313 314 314 313 313
311 312 312 312 314 316 314 316 315 313 313 312 311 311 313 312 311 311 311 312 312 312 313 312 313 313 314 313 313 312 311 312 313 313 313 315 315 314 313 313 312 313 313 313 312

GFSSW_850_thetae_111.txt.gz
Theta_e
307 307 307 307 308 308 306 305 304 304 304 304 303 303 303 303 303 303 305 311 310 310 311 313 312 311 312 313 313 314 311 312 315 317 317 318 316 320 321 323 327 332 343 344 347
305 304 305 306 307 308 309 307 307 305 304 304 304 304 303 303 303 303 309 308 308 309 311 312 314 315 312 312 313 311 308 313 314 317 317 317 317 318 320 322 325 333 336 335 346
302 303 304 306 309 310 310 310 308 307 307 305 303 303 302 302 302 307 309 309 307 307 312 311 310 315 313 313 313 311 311 313 315 317 318 317 318 319 319 320 321 323 325 326 339
301 302 305 308 310 311 311 311 311 308 307 307 306 303 301 301 306 319 317 317 308 307 308 310 310 311 310 311 314 312 312 314 315 316 316 316 318 318 318 320 321 320 321 322 322
304 305 307 309 311 311 311 311 311 310 308 308 307 306 301 304 305 319 315 315 308 307 310 311 310 311 311 311 312 311 312 314 315 315 315 316 316 316 318 319 320 320 320 320 321
309 310 311 312 312 312 312 312 312 311 308 308 309 306 302 305 307 314 315 314 309 308 310 311 310 314 314 312 311 313 313 314 315 315 314 315 316 316 318 320 320 320 320 319 319
313 313 313 313 314 313 313 312 312 312 308 310 310 309 309 307 313 318 315 313 311 309 310 311 311 315 315 314 315 314 313 312 313 315 313 315 314 315 318 319 319 319 319 319 319
312 313 314 314 313 314 313 312 311 312 307 310 310 309 311 313 312 317 314 311 312 311 309 309 311 314 315 316 314 315 313 314 314 314 315 316 315 316 319 318 318 319 318 319 319
311 311 312 313 312 313 312 311 311 312 308 308 310 310 311 315 315 317 315 313 312 309 309 313 312 317 315 313 313 311 314 314 316 315 315 314 315 315 318 318 317 318 319 319 319
310 310 310 311 311 311 311 311 312 312 310 311 313 315 313 317 313 316 317 317 315 314 311 314 316 312 309 312 314 314 314 315 316 317 315 315 314 313 318 315 316 318 318 319 319
310 310 310 310 310 311 311 311 314 315 314 316 316 313 317 320 319 315 314 316 317 317 314 314 312 312 313 313 314 314 314 314 314 315 316 313 313 313 315 314 314 316 318 319 319
310 310 310 311 311 311 310 311 314 314 315 317 319 316 318 317 318 318 316 315 315 313 312 312 312 312 313 313 313 314 314 313 313 314 313 313 314 314 315 313 315 317 318 319 320
310 309 310 310 310 312 314 316 316 314 313 317 317 318 318 318 319 320 317 313 315 314 312 311 313 313 313 314 315 315 314 314 314 316 315 315 314 315 315 316 318 318 318 318 319
308 308 309 310 311 314 316 317 317 314 316 318 320 319 318 320 320 319 315 312 315 316 312 312 312 314 315 315 314 315 315 316 316 315 313 314 314 313 313 313 314 317 318 318 319
308 307 309 310 310 312 317 317 315 316 322 320 319 320 318 319 318 318 314 313 313 315 314 315 315 315 315 315 315 315 316 315 316 314 314 313 312 312 313 316 314 313 320 323 323
307 307 309 310 311 316 317 318 316 319 323 322 319 319 318 318 317 317 316 314 315 315 315 314 316 316 315 315 315 316 316 312 310 310 313 313 313 312 314 315 315 316 322 323 323
307 307 309 310 314 318 317 317 317 322 322 321 318 318 318 319 318 316 316 315 315 316 316 316 316 315 316 316 315 314 312 313 314 313 313 313 314 312 314 318 319 320 320 321 321
307 307 309 313 315 316 317 315 320 321 325 325 319 317 318 317 317 317 315 315 314 314 314 317 319 317 317 317 316 312 311 312 316 315 315 316 317 316 320 320 322 319 318 321 321
307 307 312 315 316 317 317 317 319 325 325 326 321 319 318 319 317 317 315 315 316 314 315 316 318 321 320 320 320 318 314 312 315 316 317 317 317 317 320 319 319 319 320 318 319
309 308 315 317 318 317 316 318 321 322 324 321 322 322 319 320 323 318 316 319 320 317 317 320 322 320 320 319 318 320 318 320 316 321 321 319 319 318 322 320 319 318 319 320 319
309 310 321 318 317 318 318 321 324 324 322 321 321 321 323 324 323 323 322 320 319 319 317 317 318 319 318 319 319 318 318 317 317 316 318 317 318 317 321 319 320 319 319 321 321
308 309 320 319 316 315 320 322 323 323 322 320 320 321 321 320 320 323 324 321 319 318 319 317 316 320 320 315 317 317 319 318 320 321 316 313 315 317 318 316 316 317 320 320 320
310 309 317 319 319 319 319 322 322 322 321 320 319 318 318 318 318 319 319 317 319 319 319 316 315 314 310 316 314 317 317 319 317 319 324 327 321 317 317 316 316 317 318 318 318
307 313 316 318 317 317 320 321 322 320 320 317 316 316 316 316 314 317 318 317 318 319 318 315 313 312 310 314 314 316 315 315 315 316 321 321 320 318 317 317 315 315 315 315 316
309 314 313 317 317 315 315 318 321 320 318 314 315 316 315 315 314 314 313 315 318 318 314 311 312 316 315 315 315 315 314 313 314 315 316 315 316 315 314 314 314 313 314 313 313
310 312 312 312 315 316 314 315 318 316 315 314 314 313 312 313 313 313 312 312 315 313 314 309 313 314 315 314 313 314 312 312 312 313 313 313 313 310 312 312 312 312 312 312 312
309 311 311 312 314 316 316 314 315 312 312 312 312 312 312 311 310 311 312 311 311 312 311 311 310 309 311 311 311 310 309 310 311 311 312 312 311 314 313 311 311 311 311 311 311

GFSSW_850_thetae_114.txt.gz
Theta_e
303 303 304 304 306 308 309 309 307 306 304 304 303 303 303 302 302 302 305 311 313 311 310 313 323 314 311 312 313 313 310 311 314 315 317 317 317 319 320 321 327 336 335 342 348
300 301 302 304 307 309 310 310 310 308 306 305 303 303 303 304 303 303 310 308 307 308 310 311 320 318 311 312 312 312 309 311 313 314 316 316 316 318 318 321 325 328 335 345 347
301 302 303 305 308 310 310 310 311 311 308 307 305 303 302 302 303 306 308 308 307 306 310 312 313 315 312 311 312 310 310 313 315 316 317 317 316 318 318 319 321 323 327 342 348
304 306 307 308 309 310 311 311 311 311 310 307 307 305 302 302 304 309 315 311 307 308 310 310 312 314 312 310 312 311 311 313 314 315 315 315 316 316 318 319 320 320 320 323 341
311 310 311 312 312 312 312 312 311 311 310 307 307 306 304 304 303 307 316 314 306 305 309 310 311 311 310 311 311 310 312 313 314 314 315 315 314 315 316 318 319 319 320 320 320
314 313 313 313 313 313 313 313 312 311 311 307 307 308 304 306 305 305 314 314 311 305 306 309 310 313 313 311 311 312 313 313 313 313 313 313 314 314 316 318 319 319 319 320 319
311 310 312 313 313 313 312 313 312 311 311 307 308 309 309 308 307 315 318 313 312 307 307 309 310 313 314 311 313 313 313 312 311 313 313 314 312 312 317 318 318 318 319 319 319
310 310 310 311 312 312 311 312 312 311 311 307 308 308 310 311 313 311 315 310 306 306 309 311 310 313 314 314 313 312 312 314 314 312 314 315 313 315 318 317 317 318 318 319 319
309 310 310 310 310 310 310 311 311 312 311 306 308 309 310 312 312 314 315 311 307 307 310 310 310 311 314 313 312 311 313 313 315 313 314 313 313 314 317 316 316 317 318 318 318
309 310 309 310 310 310 310 311 311 311 311 310 312 313 311 313 314 315 314 313 310 310 310 311 311 311 309 310 312 314 314 314 315 316 313 314 313 313 316 315 316 317 316 317 318
309 309 309 309 310 310 310 310 312 313 313 311 312 312 314 317 318 315 316 314 314 311 312 312 311 311 312 312 314 314 314 314 314 314 314 314 313 312 314 315 313 315 315 317 318
308 308 308 308 309 310 309 308 312 313 314 315 313 314 314 314 317 316 315 315 315 313 311 310 311 312 313 312 313 313 314 313 313 313 313 313 313 312 312 314 315 315 316 317 319
307 308 308 308 309 310 313 315 315 313 311 314 316 315 317 319 318 318 316 315 313 312 310 311 313 312 313 313 314 313 313 314 314 314 313 314 313 314 314 314 316 317 316 316 317
305 308 308 308 310 312 313 315 315 315 313 316 320 318 318 318 318 319 317 314 314 312 309 311 311 313 313 313 313 314 313 315 315 314 314 313 313 312 313 312 312 315 316 319 321
304 307 307 308 308 310 313 316 315 314 321 318 320 318 318 319 319 318 316 313 313 314 312 313 314 313 313 314 313 314 314 314 315 313 312 313 312 311 312 315 314 313 318 322 323
305 306 307 307 308 311 314 315 313 317 321 320 319 318 318 318 319 316 312 314 314 314 314 313 315 314 314 314 313 314 313 310 308 308 312 312 312 311 312 314 315 317 320 322 323
305 306 306 308 308 314 315 314 317 320 319 320 318 318 318 318 317 317 314 314 314 314 314 315 315 315 315 316 314 311 310 312 313 312 313 311 312 311 313 314 317 317 320 321 321
305 305 306 306 308 311 314 313 319 319 320 325 318 319 318 317 317 316 314 314 313 314 316 316 317 314 315 314 314 312 311 311 315 314 313 314 315 315 316 318 317 317 318 319 319
305 306 306 308 311 314 314 318 318 320 325 324 320 319 317 317 316 316 315 314 314 313 316 316 319 319 319 318 316 314 312 310 312 314 315 314 315 315 319 318 318 318 319 318 317
306 308 309 311 313 314 316 318 318 321 323 322 324 319 318 320 319 315 316 317 319 315 315 318 322 320 320 318 317 316 314 318 314 320 321 317 318 316 321 319 318 317 317 318 318
307 307 315 316 313 315 319 318 319 322 322 324 323 323 321 322 321 321 318 318 318 317 315 316 317 320 317 317 318 317 317 315 314 314 316 317 317 315 319 316 315 314 318 318 319
305 305 315 314 315 313 316 319 318 322 321 321 321 322 323 320 320 322 322 319 318 317 318 316 315 319 318 314 316 316 319 316 318 319 312 312 315 314 315 315 315 315 315 315 315
305 306 314 315 317 316 318 320 320 321 322 320 321 320 318 319 321 320 318 316 319 319 318 316 315 315 310 314 314 315 315 316 315 314 319 323 319 316 315 315 316 315 314 314 314
306 308 314 316 316 317 319 320 321 321 321 320 316 316 316 317 316 319 318 319 319 318 318 317 313 312 313 311 313 316 315 314 312 314 317 318 318 317 316 315 313 312 313 314 314
307 311 312 316 317 316 316 316 320 321 319 318 317 316 315 316 314 315 314 317 316 317 312 311 313 315 313 314 314 314 314 313 313 312 313 313 316 314 313 312 312 312 312 312 312
308 312 311 312 313 316 315 316 319 317 314 315 315 314 313 313 313 313 312 314 316 313 312 308 313 314 314 313 313 313 312 311 311 312 311 312 312 310 311 311 311 311 311 311 311
307 309 311 311 313 316 316 314 313 315 313 313 313 312 312 311 310 310 310 310 312 313 311 310 310 310 312 310 310 309 309 310 309 309 310 311 309 311 312 311 310 311 311 310 310

GFSSW_850_thetae_120.txt.gz
Theta_e
307 304 302 302 303 305 307 309 310 310 311 310 308 306 304 303 303 305 308 307 306 309 311 315 316 316 317 317 317 320 325 328 326 326 328 325 327 324 323 325 330 338 340 345 357
313 311 308 307 307 307 309 310 311 311 311 311 310 308 306 304 304 309 307 305 305 307 309 314 316 316 317 323 316 323 328 329 327 324 322 323 322 324 325 325 332 335 345 347 354
312 313 314 313 311 311 311 312 312 312 312 311 310 309 307 306 309 308 306 305 305 306 309 313 316 316 320 324 319 319 327 328 328 321 323 323 323 321 324 328 329 333 341 350 352
310 309 310 312 312 313 313 313 313 313 312 312 310 310 307 308 312 311 313 311 306 305 308 312 313 316 322 326 323 326 324 324 319 321 322 322 322 321 321 330 324 323 329 351 352
310 309 310 310 310 310 311 313 313 313 312 312 311 310 308 311 310 307 306 306 307 305 310 312 314 315 322 325 323 325 322 317 318 320 322 322 323 322 321 321 322 322 322 340 352
311 310 308 309 309 309 309 310 311 312 312 312 311 310 309 312 310 306 311 306 309 308 311 312 314 315 318 324 325 322 321 320 321 322 321 324 319 323 322 321 321 321 322 323 340
309 311 309 308 309 309 309 309 310 311 311 311 311 310 310 311 310 310 315 318 314 311 312 311 313 314 319 325 325 324 327 328 324 323 324 325 324 321 320 320 321 322 322 322 322
306 307 308 309 309 309 309 309 309 310 310 311 311 310 311 312 311 310 312 317 316 311 309 311 312 315 317 322 320 326 323 328 327 325 325 324 327 325 322 320 319 322 322 322 321
305 305 305 306 308 308 308 309 309 310 310 311 311 310 314 313 311 311 315 317 316 310 309 310 311 314 316 318 317 319 324 321 319 318 319 322 327 325 323 319 320 321 322 322 321
308 306 304 304 307 308 308 308 309 311 312 311 312 311 313 313 313 315 316 315 312 308 309 309 311 315 316 318 317 317 318 319 316 318 316 317 318 319 321 320 320 320 322 323 322
307 307 304 304 305 307 308 308 312 311 311 314 316 316 314 313 316 315 314 311 310 310 312 311 313 314 315 317 318 318 317 318 318 317 318 318 317 318 319 320 321 321 321 322 322
307 307 305 303 305 306 308 307 310 313 315 315 314 315 316 316 318 315 312 311 312 313 314 313 313 315 315 316 318 318 318 318 319 319 319 319 319 319 321 321 320 321 321 322 322
306 305 305 304 304 305 308 309 312 312 315 316 316 316 316 316 318 316 312 314 313 314 314 315 315 315 315 316 318 319 319 319 319 320 319 320 321 320 321 321 321 321 321 322 322
305 303 303 304 305 309 308 310 311 312 321 320 317 317 317 316 318 315 313 315 314 314 314 315 315 315 316 317 318 319 318 319 319 320 320 320 319 320 321 322 322 321 322 322 324
304 303 302 304 305 305 308 312 312 312 323 319 319 319 319 318 318 317 314 316 315 315 315 316 316 315 318 318 318 319 320 319 319 320 320 321 320 321 321 321 322 322 322 324 325
303 302 302 303 305 304 308 310 311 320 322 321 321 320 321 320 320 318 315 317 317 316 316 318 317 317 318 319 319 319 319 319 320 320 322 321 320 320 322 321 321 322 323 325 325
302 302 302 303 304 305 309 309 317 322 319 322 323 323 323 322 320 319 317 318 318 319 319 318 318 318 318 318 318 319 321 322 321 321 320 321 321 322 322 321 322 324 325 325 324
301 302 304 305 305 307 309 311 322 317 319 324 323 323 324 321 319 318 316 317 317 318 319 319 319 318 318 318 319 319 321 320 320 321 321 321 320 322 322 323 324 324 324 324 324
301 305 305 306 307 307 310 316 319 318 320 320 322 323 324 321 323 320 319 316 317 318 320 319 319 319 319 319 320 320 321 320 321 322 322 322 322 323 325 325 324 324 324 324 324
303 305 306 308 308 305 311 317 318 318 320 323 324 323 324 325 324 323 320 319 317 317 319 320 321 319 319 319 320 321 320 321 321 323 322 320 322 322 325 326 326 325 324 323 322
304 305 310 309 306 307 313 315 317 318 320 321 324 324 323 324 325 323 323 319 317 317 318 320 322 322 322 320 320 321 322 321 322 322 324 324 323 324 325 326 326 324 322 322 321
304 306 309 308 311 311 312 312 314 318 318 321 322 321 326 323 322 325 324 321 318 319 319 320 322 324 323 322 322 321 321 322 324 326 324 325 327 325 326 325 324 322 321 320 320
305 306 307 307 314 316 315 315 316 318 319 321 321 317 321 323 323 321 321 321 320 320 320 322 327 328 326 323 323 324 325 324 325 327 328 329 326 325 325 325 323 321 320 320 319
304 309 310 309 307 305 311 319 318 318 319 317 318 318 318 323 323 323 324 322 319 318 321 320 324 326 327 325 325 325 325 325 326 328 326 325 324 326 325 325 324 321 319 319 318
305 309 308 311 311 310 309 316 320 319 319 316 316 318 313 321 323 325 324 322 321 319 322 321 324 322 321 322 323 323 323 323 324 324 323 321 320 322 323 324 321 318 317 317 317
305 306 306 309 311 309 309 311 319 319 318 314 315 317 313 314 321 324 324 323 322 321 322 324 326 324 323 319 319 320 320 320 320 318 319 318 319 318 318 317 316 317 317 317 317
304 303 304 309 311 311 310 311 314 316 315 315 315 315 315 314 315 316 318 319 321 323 323 323 325 325 326 319 317 318 317 316 317 317 317 318 317 317 317 318 319 318 318 317 316

GFSSW_850_thetae_123.txt.gz
Theta_e
313 314 313 308 306 306 307 307 309 310 311 311 311 311 308 306 304 304 310 309 310 308 309 313 316 318 319 320 321 322 325 330 332 333 335 335 334 333 330 329 332 334 343 353 356
311 311 312 314 313 311 310 310 310 310 311 312 311 311 311 307 306 311 309 308 306 306 307 312 316 317 320 320 322 324 326 330 330 330 330 332 330 333 330 329 331 335 341 354 355
309 309 310 309 311 313 313 313 312 312 312 313 313 312 312 308 312 312 311 309 306 305 308 312 314 317 320 321 322 323 327 329 331 328 326 326 327 327 328 332 332 334 338 348 352
309 309 310 311 310 310 310 311 312 313 313 313 313 313 311 311 316 314 311 309 306 305 310 313 314 317 320 322 323 326 325 327 329 330 328 326 325 328 327 329 329 330 333 344 349
307 310 311 311 310 310 310 309 310 311 312 313 312 312 312 314 313 312 310 310 308 305 311 313 315 316 320 321 322 328 326 325 327 328 326 324 325 326 325 325 325 327 327 340 346
306 306 307 310 310 309 309 309 309 310 310 311 311 311 311 317 315 313 312 314 317 313 311 312 315 315 317 319 323 327 326 327 327 325 323 324 327 329 325 326 324 325 326 329 346
307 305 306 307 309 310 309 309 309 309 309 310 310 312 313 316 315 311 314 317 317 314 312 312 314 316 316 319 322 327 327 326 325 324 326 328 329 331 327 324 326 325 325 328 330
308 308 307 305 305 306 309 309 308 309 309 310 311 312 314 317 317 315 313 316 319 314 312 312 314 316 316 318 321 326 327 328 325 326 329 329 333 330 329 328 327 324 324 327 327
308 307 307 307 304 306 307 308 307 308 309 310 313 312 317 318 316 316 314 314 319 315 313 314 314 315 317 319 322 327 331 330 328 329 331 332 334 330 329 328 328 324 324 326 326
307 307 307 307 306 304 306 307 307 309 311 312 314 313 314 318 317 315 315 315 319 316 314 312 314 316 317 319 322 329 330 328 328 330 329 330 331 330 326 327 328 326 324 326 327
307 307 306 306 304 304 305 308 311 313 312 314 315 314 319 318 316 315 315 317 318 315 315 312 315 316 317 320 320 324 322 325 325 324 325 323 326 325 325 324 327 325 323 324 326
308 309 307 305 302 303 304 307 309 311 315 314 316 315 316 317 318 316 316 318 317 315 315 314 315 316 317 319 319 320 320 319 320 320 321 321 320 319 321 323 325 324 323 324 324
309 307 306 305 302 303 309 309 310 313 315 316 316 317 316 318 318 317 316 317 317 316 315 315 315 316 316 317 318 319 320 319 319 320 320 320 321 320 320 320 320 322 322 322 323
305 305 305 303 305 309 310 312 313 313 316 320 320 318 317 318 319 318 315 316 317 317 317 316 316 315 316 317 318 319 320 320 320 321 322 321 323 322 322 322 322 321 322 322 322
302 302 303 302 304 304 306 309 312 312 320 320 319 319 318 318 319 320 315 315 317 317 318 316 317 316 317 317 318 319 320 320 321 321 323 322 320 320 323 322 322 322 322 322 323
301 302 302 304 305 305 306 308 311 317 322 319 320 320 320 319 321 319 315 314 316 317 317 318 318 318 317 318 318 320 320 321 321 322 322 322 323 322 322 323 323 323 322 322 325
301 301 301 303 304 305 306 309 315 320 317 318 323 322 321 321 322 320 318 317 319 317 318 318 319 318 318 319 320 320 322 323 322 322 322 322 323 323 324 323 323 323 323 325 326
300 301 305 307 308 307 306 311 316 314 317 321 322 323 323 322 323 321 317 318 319 318 318 318 320 319 319 320 320 321 322 322 322 322 322 322 323 323 324 324 325 324 325 325 324
301 305 307 308 308 308 308 312 312 315 319 319 324 323 324 323 324 322 319 318 319 320 319 319 321 319 319 320 321 321 322 322 324 324 324 324 326 326 324 325 324 325 325 326 326
303 306 310 309 308 307 309 311 313 313 316 322 322 326 327 326 324 323 321 318 318 319 321 320 322 320 319 319 320 322 321 323 323 325 324 324 325 325 326 324 324 326 326 325 325
305 307 311 309 308 307 310 310 310 310 315 322 323 324 325 327 326 323 321 317 317 318 319 321 322 321 321 320 321 321 322 322 323 324 326 325 324 328 327 326 326 327 326 325 324
305 308 309 307 309 308 312 311 310 312 313 317 322 318 325 325 326 324 322 321 317 317 319 321 322 322 321 321 321 322 323 323 325 325 323 326 330 326 327 327 327 325 324 324 324
306 308 308 307 313 310 310 314 315 313 313 318 321 320 320 321 326 325 324 320 318 319 319 322 325 328 325 325 323 324 322 323 324 326 327 327 330 327 327 327 326 325 324 323 323
307 310 310 306 307 307 312 315 318 317 314 319 321 320 319 319 320 327 324 323 319 318 320 321 326 328 328 326 324 324 324 323 323 328 327 328 330 328 327 327 326 324 323 323 322
307 308 308 312 311 312 312 313 315 320 320 317 320 320 319 320 324 326 326 323 319 321 321 323 327 326 326 327 324 322 324 324 328 328 327 327 327 328 328 326 326 324 322 321 321
307 307 304 307 311 312 311 312 312 319 316 316 318 316 313 314 322 326 325 323 323 322 323 326 327 326 324 326 325 325 325 325 325 325 325 323 322 322 321 321 321 320 319 319 319
306 306 304 307 312 309 308 308 314 317 316 316 317 315 311 309 318 321 324 323 323 322 324 324 325 328 326 323 323 324 323 323 324 323 322 320 319 319 319 319 319 320 319 319 319

GFSSW_850_thetae_126.txt.gz
Theta_e
307 310 311 312 313 314 311 309 309 309 310 310 311 311 311 311 310 308 306 307 309 308 309 312 313 316 318 319 321 323 325 328 328 332 333 334 337 337 337 336 334 335 352 354 351
306 309 309 311 312 312 313 313 312 312 312 311 312 312 312 312 311 312 310 309 309 310 309 311 313 314 317 318 320 323 325 325 328 330 330 333 333 336 335 333 332 334 354 354 351
307 307 311 312 311 311 310 310 311 312 313 313 313 313 313 312 313 313 313 312 310 309 308 311 311 315 317 319 319 322 325 325 326 329 330 333 333 334 328 332 331 332 338 354 351
306 306 307 310 311 311 310 310 309 309 310 312 313 313 313 312 318 314 312 309 310 309 310 311 312 314 318 319 319 321 323 324 326 328 330 331 332 328 327 330 329 331 334 342 352
309 307 306 307 308 308 310 310 310 309 309 310 311 312 312 315 315 315 313 313 310 311 311 312 313 314 317 319 319 321 323 324 324 327 327 330 327 327 326 327 328 326 328 333 345
309 308 308 307 307 306 308 310 310 309 309 309 310 311 312 316 317 317 316 315 314 311 311 312 313 314 316 318 319 319 321 324 326 327 327 328 330 327 326 328 329 327 326 328 333
309 308 308 307 307 307 307 307 309 310 309 309 310 311 312 315 318 318 315 314 315 317 312 313 313 315 316 317 318 319 320 323 328 327 327 327 326 327 326 327 328 330 327 328 327
308 307 307 306 307 307 306 306 307 308 308 308 310 311 312 313 317 318 316 315 315 319 316 313 313 315 316 316 317 318 321 328 328 328 328 327 329 329 328 327 328 331 330 328 326
308 308 308 307 306 306 304 305 304 304 307 308 311 312 314 315 316 319 317 316 318 320 317 314 313 314 316 317 317 318 327 330 329 328 327 329 329 330 329 329 328 330 330 329 327
308 307 308 308 308 307 305 302 304 306 309 311 313 314 313 314 318 319 319 316 314 320 316 313 314 315 317 318 318 317 322 329 329 328 327 328 331 330 330 330 329 330 329 327 328
306 307 307 309 308 307 304 305 309 313 312 312 314 315 312 318 320 320 319 316 314 319 317 314 316 316 316 318 317 317 325 326 327 325 329 330 333 331 328 331 330 328 327 326 326
305 306 307 307 307 305 303 305 307 308 311 313 315 316 315 315 319 319 318 316 316 321 318 316 317 317 317 317 317 318 324 328 327 327 329 331 333 328 327 330 329 327 326 327 324
302 303 303 303 303 303 309 310 311 311 311 312 312 315 316 316 317 319 316 315 318 321 318 317 316 316 316 316 317 318 321 326 326 327 326 329 333 324 324 324 328 328 327 327 324
302 302 302 303 305 307 307 308 309 313 314 314 314 314 316 316 318 320 316 316 320 321 318 317 315 315 316 316 317 318 320 322 321 321 323 326 320 324 323 322 324 327 327 326 325
300 300 300 301 303 304 305 306 308 311 318 313 315 317 314 317 318 320 317 317 320 319 317 316 316 315 316 316 317 319 320 320 321 322 322 321 321 322 324 322 322 324 324 324 324
299 300 300 302 304 305 307 308 309 314 317 314 319 320 318 317 319 320 319 317 318 318 318 317 316 317 316 317 317 318 318 319 321 322 322 324 323 322 324 323 324 324 323 323 324
300 301 301 303 304 305 306 307 312 314 311 314 320 321 320 318 318 321 320 319 319 318 318 318 317 318 317 316 318 318 320 323 321 321 323 323 323 324 326 325 323 324 323 322 325
301 302 306 306 307 307 306 308 310 309 310 316 316 315 321 319 318 321 320 318 317 317 319 319 319 318 318 317 318 318 321 323 323 323 321 322 324 324 325 325 323 322 323 326 326
302 306 308 310 309 309 308 310 309 310 310 313 315 316 318 320 319 323 321 317 317 317 319 319 318 319 319 318 319 318 320 322 323 323 323 322 325 327 326 325 326 325 327 325 327
304 307 310 312 310 308 309 310 308 309 310 312 317 317 324 321 321 324 322 318 316 318 320 319 320 320 319 319 320 321 321 323 323 325 331 324 327 327 328 327 328 328 327 326 326
305 308 311 309 309 309 312 310 310 310 310 309 312 311 311 325 321 325 323 319 318 319 320 320 323 322 320 320 320 321 322 322 324 326 329 329 329 328 328 328 328 328 326 326 325
306 309 311 308 309 307 311 311 311 313 313 312 313 313 319 320 326 326 325 320 318 319 320 320 323 324 320 320 321 321 322 324 326 327 326 330 331 327 329 327 328 327 326 325 325
307 309 310 308 312 312 310 312 313 315 315 315 315 318 316 317 319 325 325 320 318 319 320 323 323 327 325 321 321 321 321 323 327 330 328 328 332 328 329 328 326 326 325 325 325
308 311 310 310 309 307 310 313 314 315 317 317 318 317 320 321 317 323 325 321 318 318 319 323 325 326 326 322 322 322 323 323 326 327 326 328 331 330 330 329 328 326 325 324 324
309 310 308 310 310 310 311 312 313 317 319 320 319 316 321 321 318 322 324 323 320 318 319 324 327 328 328 327 323 323 324 323 325 325 326 328 332 331 328 327 327 326 324 324 323
308 308 307 307 309 311 311 310 311 313 319 319 320 317 317 320 316 318 326 324 323 320 321 323 328 326 324 324 325 324 323 324 326 328 328 327 327 328 326 324 324 324 323 322 322
306 307 306 307 310 310 308 307 308 311 317 318 316 314 315 315 315 315 322 324 323 323 323 326 325 325 325 323 325 328 323 325 326 328 327 327 325 326 325 326 325 321 320 320 320